<?xml version="1.0" encoding="UTF-8" standalone="no" ?>
<gpx xmlns="http://www.topografix.com/GPX/1/1" xmlns:xsi="http://www.w3.org/2001/XMLSchema-instance" xsi:schemaLocation="http://www.topografix.com/GPX/1/1 http://www.topografix.com/GPX/1/1/gpx.xsd" version="1.1" creator="VisuGPX - https://www.visugpx.com">
  <metadata>
    <name>4 Moustiers  a_Manosque </name>
  </metadata>
  <trk>
    <name><![CDATA[4 Moustiers  a_Manosque ]]></name>
    <extensions>
      <line xmlns="http://www.topografix.com/GPX/gpx_style/0/2">
        <color>0000FF</color>
        <width>4</width>
      </line>
    </extensions>
    <trkseg>
      <trkpt lat="43.85769" lon="6.19123">
        <ele>748.1</ele>
        <time>2022-02-20T19:57:27Z</time>
      </trkpt>
      <trkpt lat="43.85729" lon="6.18994">
        <ele>733.7</ele>
        <time>2022-02-20T19:57:44Z</time>
      </trkpt>
      <trkpt lat="43.85626" lon="6.19017">
        <ele>731.1</ele>
        <time>2022-02-20T19:57:52Z</time>
      </trkpt>
      <trkpt lat="43.85497" lon="6.19169">
        <ele>732.6</ele>
        <time>2022-02-20T19:58:03Z</time>
      </trkpt>
      <trkpt lat="43.85499" lon="6.19164">
        <ele>732.8</ele>
        <time>2022-02-20T19:58:21Z</time>
      </trkpt>
      <trkpt lat="43.85269" lon="6.18686">
        <ele>706.5</ele>
        <time>2022-02-20T19:58:37Z</time>
      </trkpt>
      <trkpt lat="43.85204" lon="6.18533">
        <ele>701.6</ele>
        <time>2022-02-20T19:58:57Z</time>
      </trkpt>
      <trkpt lat="43.85189" lon="6.18434">
        <ele>701.5</ele>
        <time>2022-02-20T19:59:07Z</time>
      </trkpt>
      <trkpt lat="43.85157" lon="6.18434">
        <ele>700.4</ele>
        <time>2022-02-20T19:59:12Z</time>
      </trkpt>
      <trkpt lat="43.85166" lon="6.18388">
        <ele>699.6</ele>
        <time>2022-02-20T19:59:32Z</time>
      </trkpt>
      <trkpt lat="43.8512" lon="6.18271">
        <ele>694.7</ele>
        <time>2022-02-20T19:59:52Z</time>
      </trkpt>
      <trkpt lat="43.85084" lon="6.18262">
        <ele>693.3</ele>
        <time>2022-02-20T19:59:55Z</time>
      </trkpt>
      <trkpt lat="43.85053" lon="6.1815">
        <ele>692.1</ele>
        <time>2022-02-20T20:00:05Z</time>
      </trkpt>
      <trkpt lat="43.85023" lon="6.18174">
        <ele>694.5</ele>
        <time>2022-02-20T20:00:13Z</time>
      </trkpt>
      <trkpt lat="43.84975" lon="6.18161">
        <ele>700</ele>
        <time>2022-02-20T20:00:27Z</time>
      </trkpt>
      <trkpt lat="43.8497" lon="6.18091">
        <ele>701.9</ele>
        <time>2022-02-20T20:00:36Z</time>
      </trkpt>
      <trkpt lat="43.84949" lon="6.18068">
        <ele>705.1</ele>
        <time>2022-02-20T20:00:41Z</time>
      </trkpt>
      <trkpt lat="43.84943" lon="6.17956">
        <ele>702.7</ele>
        <time>2022-02-20T20:00:47Z</time>
      </trkpt>
      <trkpt lat="43.8493" lon="6.17933">
        <ele>704.6</ele>
        <time>2022-02-20T20:00:55Z</time>
      </trkpt>
      <trkpt lat="43.84874" lon="6.17989">
        <ele>720.6</ele>
        <time>2022-02-20T20:01:03Z</time>
      </trkpt>
      <trkpt lat="43.84867" lon="6.18038">
        <ele>724.8</ele>
        <time>2022-02-20T20:01:13Z</time>
      </trkpt>
      <trkpt lat="43.84835" lon="6.18031">
        <ele>734.2</ele>
        <time>2022-02-20T20:01:28Z</time>
      </trkpt>
      <trkpt lat="43.8477" lon="6.18125">
        <ele>742.4</ele>
        <time>2022-02-20T20:01:37Z</time>
      </trkpt>
      <trkpt lat="43.84722" lon="6.18245">
        <ele>747.2</ele>
        <time>2022-02-20T20:01:52Z</time>
      </trkpt>
      <trkpt lat="43.84671" lon="6.18324">
        <ele>753.8</ele>
        <time>2022-02-20T20:02:08Z</time>
      </trkpt>
      <trkpt lat="43.84618" lon="6.18364">
        <ele>753.8</ele>
        <time>2022-02-20T20:02:20Z</time>
      </trkpt>
      <trkpt lat="43.84596" lon="6.18375">
        <ele>754.4</ele>
        <time>2022-02-20T20:02:27Z</time>
      </trkpt>
      <trkpt lat="43.84584" lon="6.1841">
        <ele>756.5</ele>
        <time>2022-02-20T20:02:32Z</time>
      </trkpt>
      <trkpt lat="43.8456" lon="6.18424">
        <ele>757.1</ele>
        <time>2022-02-20T20:02:34Z</time>
      </trkpt>
      <trkpt lat="43.84536" lon="6.18393">
        <ele>755.6</ele>
        <time>2022-02-20T20:02:37Z</time>
      </trkpt>
      <trkpt lat="43.84434" lon="6.18372">
        <ele>754.4</ele>
        <time>2022-02-20T20:02:40Z</time>
      </trkpt>
      <trkpt lat="43.84409" lon="6.18447">
        <ele>756.2</ele>
        <time>2022-02-20T20:02:46Z</time>
      </trkpt>
      <trkpt lat="43.84406" lon="6.18503">
        <ele>758.4</ele>
        <time>2022-02-20T20:02:51Z</time>
      </trkpt>
      <trkpt lat="43.84354" lon="6.18605">
        <ele>763.4</ele>
        <time>2022-02-20T20:02:57Z</time>
      </trkpt>
      <trkpt lat="43.84077" lon="6.18627">
        <ele>761.7</ele>
        <time>2022-02-20T20:03:08Z</time>
      </trkpt>
      <trkpt lat="43.84047" lon="6.19027">
        <ele>772.5</ele>
        <time>2022-02-20T20:03:23Z</time>
      </trkpt>
      <trkpt lat="43.84101" lon="6.19158">
        <ele>778.6</ele>
        <time>2022-02-20T20:03:34Z</time>
      </trkpt>
      <trkpt lat="43.84109" lon="6.19271">
        <ele>778.3</ele>
        <time>2022-02-20T20:03:40Z</time>
      </trkpt>
      <trkpt lat="43.84047" lon="6.19346">
        <ele>775</ele>
        <time>2022-02-20T20:03:56Z</time>
      </trkpt>
      <trkpt lat="43.83991" lon="6.19387">
        <ele>771.3</ele>
        <time>2022-02-20T20:04:05Z</time>
      </trkpt>
      <trkpt lat="43.83947" lon="6.19348">
        <ele>777.8</ele>
        <time>2022-02-20T20:04:22Z</time>
      </trkpt>
      <trkpt lat="43.83911" lon="6.19332">
        <ele>779.8</ele>
        <time>2022-02-20T20:04:32Z</time>
      </trkpt>
      <trkpt lat="43.83857" lon="6.19367">
        <ele>778.4</ele>
        <time>2022-02-20T20:04:40Z</time>
      </trkpt>
      <trkpt lat="43.83691" lon="6.19458">
        <ele>771.6</ele>
        <time>2022-02-20T20:04:43Z</time>
      </trkpt>
      <trkpt lat="43.83425" lon="6.19343">
        <ele>776</ele>
        <time>2022-02-20T20:05:01Z</time>
      </trkpt>
      <trkpt lat="43.83196" lon="6.19497">
        <ele>759.6</ele>
        <time>2022-02-20T20:05:13Z</time>
      </trkpt>
      <trkpt lat="43.83009" lon="6.19503">
        <ele>770.6</ele>
        <time>2022-02-20T20:05:30Z</time>
      </trkpt>
      <trkpt lat="43.82852" lon="6.19592">
        <ele>757.7</ele>
        <time>2022-02-20T20:05:42Z</time>
      </trkpt>
      <trkpt lat="43.8282" lon="6.19648">
        <ele>748.9</ele>
        <time>2022-02-20T20:06:02Z</time>
      </trkpt>
      <trkpt lat="43.82625" lon="6.19718">
        <ele>763</ele>
        <time>2022-02-20T20:06:09Z</time>
      </trkpt>
      <trkpt lat="43.82533" lon="6.19863">
        <ele>760.3</ele>
        <time>2022-02-20T20:06:14Z</time>
      </trkpt>
      <trkpt lat="43.82411" lon="6.19932">
        <ele>767.6</ele>
        <time>2022-02-20T20:06:30Z</time>
      </trkpt>
      <trkpt lat="43.8233" lon="6.20053">
        <ele>761</ele>
        <time>2022-02-20T20:06:49Z</time>
      </trkpt>
      <trkpt lat="43.82261" lon="6.2016">
        <ele>763.4</ele>
        <time>2022-02-20T20:07:05Z</time>
      </trkpt>
      <trkpt lat="43.82188" lon="6.20334">
        <ele>754.2</ele>
        <time>2022-02-20T20:07:09Z</time>
      </trkpt>
      <trkpt lat="43.81966" lon="6.20544">
        <ele>753.4</ele>
        <time>2022-02-20T20:07:20Z</time>
      </trkpt>
      <trkpt lat="43.81868" lon="6.20567">
        <ele>763</ele>
        <time>2022-02-20T20:07:36Z</time>
      </trkpt>
      <trkpt lat="43.81734" lon="6.20541">
        <ele>760.2</ele>
        <time>2022-02-20T20:07:39Z</time>
      </trkpt>
      <trkpt lat="43.81647" lon="6.20457">
        <ele>760.3</ele>
        <time>2022-02-20T20:07:42Z</time>
      </trkpt>
      <trkpt lat="43.81595" lon="6.20452">
        <ele>761.3</ele>
        <time>2022-02-20T20:07:58Z</time>
      </trkpt>
      <trkpt lat="43.81571" lon="6.20367">
        <ele>759</ele>
        <time>2022-02-20T20:08:02Z</time>
      </trkpt>
      <trkpt lat="43.8152" lon="6.20336">
        <ele>760.7</ele>
        <time>2022-02-20T20:08:05Z</time>
      </trkpt>
      <trkpt lat="43.81511" lon="6.20343">
        <ele>760.6</ele>
        <time>2022-02-20T20:08:20Z</time>
      </trkpt>
      <trkpt lat="43.81512" lon="6.20341">
        <ele>760.8</ele>
        <time>2022-02-20T20:08:33Z</time>
      </trkpt>
      <trkpt lat="43.81499" lon="6.20328">
        <ele>762</ele>
        <time>2022-02-20T20:08:52Z</time>
      </trkpt>
      <trkpt lat="43.81475" lon="6.20317">
        <ele>762</ele>
        <time>2022-02-20T20:09:05Z</time>
      </trkpt>
      <trkpt lat="43.81457" lon="6.20312">
        <ele>761.8</ele>
        <time>2022-02-20T20:09:20Z</time>
      </trkpt>
      <trkpt lat="43.81415" lon="6.20288">
        <ele>760.2</ele>
        <time>2022-02-20T20:09:38Z</time>
      </trkpt>
      <trkpt lat="43.81383" lon="6.20267">
        <ele>758</ele>
        <time>2022-02-20T20:09:54Z</time>
      </trkpt>
      <trkpt lat="43.81357" lon="6.20248">
        <ele>756.4</ele>
        <time>2022-02-20T20:10:03Z</time>
      </trkpt>
      <trkpt lat="43.81354" lon="6.20245">
        <ele>756.2</ele>
        <time>2022-02-20T20:10:07Z</time>
      </trkpt>
      <trkpt lat="43.81349" lon="6.20245">
        <ele>756</ele>
        <time>2022-02-20T20:10:18Z</time>
      </trkpt>
      <trkpt lat="43.81333" lon="6.20233">
        <ele>754.7</ele>
        <time>2022-02-20T20:10:37Z</time>
      </trkpt>
      <trkpt lat="43.81315" lon="6.20223">
        <ele>752.3</ele>
        <time>2022-02-20T20:10:55Z</time>
      </trkpt>
      <trkpt lat="43.81291" lon="6.20207">
        <ele>749.4</ele>
        <time>2022-02-20T20:10:58Z</time>
      </trkpt>
      <trkpt lat="43.81261" lon="6.20176">
        <ele>745.9</ele>
        <time>2022-02-20T20:11:18Z</time>
      </trkpt>
      <trkpt lat="43.81256" lon="6.20172">
        <ele>745.5</ele>
        <time>2022-02-20T20:11:32Z</time>
      </trkpt>
      <trkpt lat="43.8123" lon="6.20163">
        <ele>744.9</ele>
        <time>2022-02-20T20:11:50Z</time>
      </trkpt>
      <trkpt lat="43.81201" lon="6.20154">
        <ele>745</ele>
        <time>2022-02-20T20:11:52Z</time>
      </trkpt>
      <trkpt lat="43.81179" lon="6.20142">
        <ele>745.2</ele>
        <time>2022-02-20T20:12:07Z</time>
      </trkpt>
      <trkpt lat="43.8116" lon="6.20127">
        <ele>745.4</ele>
        <time>2022-02-20T20:12:21Z</time>
      </trkpt>
      <trkpt lat="43.81139" lon="6.20103">
        <ele>745.2</ele>
        <time>2022-02-20T20:12:30Z</time>
      </trkpt>
      <trkpt lat="43.81123" lon="6.2009">
        <ele>744.9</ele>
        <time>2022-02-20T20:12:48Z</time>
      </trkpt>
      <trkpt lat="43.81089" lon="6.20048">
        <ele>743.5</ele>
        <time>2022-02-20T20:13:03Z</time>
      </trkpt>
      <trkpt lat="43.81068" lon="6.20017">
        <ele>742.9</ele>
        <time>2022-02-20T20:13:14Z</time>
      </trkpt>
      <trkpt lat="43.8105" lon="6.20004">
        <ele>742.9</ele>
        <time>2022-02-20T20:13:33Z</time>
      </trkpt>
      <trkpt lat="43.81012" lon="6.20001">
        <ele>743</ele>
        <time>2022-02-20T20:13:39Z</time>
      </trkpt>
      <trkpt lat="43.80962" lon="6.19998">
        <ele>741.7</ele>
        <time>2022-02-20T20:13:43Z</time>
      </trkpt>
      <trkpt lat="43.80907" lon="6.20003">
        <ele>739.3</ele>
        <time>2022-02-20T20:13:54Z</time>
      </trkpt>
      <trkpt lat="43.80885" lon="6.20007">
        <ele>738</ele>
        <time>2022-02-20T20:14:10Z</time>
      </trkpt>
      <trkpt lat="43.80868" lon="6.20006">
        <ele>737.9</ele>
        <time>2022-02-20T20:14:20Z</time>
      </trkpt>
      <trkpt lat="43.8085" lon="6.1999">
        <ele>738.5</ele>
        <time>2022-02-20T20:14:27Z</time>
      </trkpt>
      <trkpt lat="43.80842" lon="6.19962">
        <ele>738.3</ele>
        <time>2022-02-20T20:14:32Z</time>
      </trkpt>
      <trkpt lat="43.8083" lon="6.19906">
        <ele>737.7</ele>
        <time>2022-02-20T20:14:51Z</time>
      </trkpt>
      <trkpt lat="43.80815" lon="6.19837">
        <ele>735.6</ele>
        <time>2022-02-20T20:14:53Z</time>
      </trkpt>
      <trkpt lat="43.80791" lon="6.19741">
        <ele>733.1</ele>
        <time>2022-02-20T20:15:08Z</time>
      </trkpt>
      <trkpt lat="43.80785" lon="6.19711">
        <ele>731.7</ele>
        <time>2022-02-20T20:15:11Z</time>
      </trkpt>
      <trkpt lat="43.80784" lon="6.19669">
        <ele>729.9</ele>
        <time>2022-02-20T20:15:15Z</time>
      </trkpt>
      <trkpt lat="43.80792" lon="6.19628">
        <ele>729.3</ele>
        <time>2022-02-20T20:15:28Z</time>
      </trkpt>
      <trkpt lat="43.80807" lon="6.19547">
        <ele>727</ele>
        <time>2022-02-20T20:15:48Z</time>
      </trkpt>
      <trkpt lat="43.80821" lon="6.1947">
        <ele>723</ele>
        <time>2022-02-20T20:16:04Z</time>
      </trkpt>
      <trkpt lat="43.80831" lon="6.19411">
        <ele>721.2</ele>
        <time>2022-02-20T20:16:06Z</time>
      </trkpt>
      <trkpt lat="43.80844" lon="6.1938">
        <ele>722.9</ele>
        <time>2022-02-20T20:16:24Z</time>
      </trkpt>
      <trkpt lat="43.80882" lon="6.19343">
        <ele>726</ele>
        <time>2022-02-20T20:16:32Z</time>
      </trkpt>
      <trkpt lat="43.80894" lon="6.19333">
        <ele>726.9</ele>
        <time>2022-02-20T20:16:39Z</time>
      </trkpt>
      <trkpt lat="43.80903" lon="6.1933">
        <ele>727.3</ele>
        <time>2022-02-20T20:16:50Z</time>
      </trkpt>
      <trkpt lat="43.80921" lon="6.19294">
        <ele>727.6</ele>
        <time>2022-02-20T20:16:52Z</time>
      </trkpt>
      <trkpt lat="43.80921" lon="6.19277">
        <ele>727.4</ele>
        <time>2022-02-20T20:16:59Z</time>
      </trkpt>
      <trkpt lat="43.80916" lon="6.19264">
        <ele>727.1</ele>
        <time>2022-02-20T20:17:04Z</time>
      </trkpt>
      <trkpt lat="43.80908" lon="6.19222">
        <ele>725.9</ele>
        <time>2022-02-20T20:17:19Z</time>
      </trkpt>
      <trkpt lat="43.80917" lon="6.19188">
        <ele>725.5</ele>
        <time>2022-02-20T20:17:24Z</time>
      </trkpt>
      <trkpt lat="43.80929" lon="6.19148">
        <ele>724.7</ele>
        <time>2022-02-20T20:17:29Z</time>
      </trkpt>
      <trkpt lat="43.80946" lon="6.19089">
        <ele>723.5</ele>
        <time>2022-02-20T20:17:35Z</time>
      </trkpt>
      <trkpt lat="43.80969" lon="6.19008">
        <ele>722.7</ele>
        <time>2022-02-20T20:17:42Z</time>
      </trkpt>
      <trkpt lat="43.80989" lon="6.18939">
        <ele>720.5</ele>
        <time>2022-02-20T20:17:55Z</time>
      </trkpt>
      <trkpt lat="43.81008" lon="6.18868">
        <ele>718</ele>
        <time>2022-02-20T20:18:10Z</time>
      </trkpt>
      <trkpt lat="43.81026" lon="6.18799">
        <ele>716.6</ele>
        <time>2022-02-20T20:18:13Z</time>
      </trkpt>
      <trkpt lat="43.81037" lon="6.18755">
        <ele>715.9</ele>
        <time>2022-02-20T20:18:29Z</time>
      </trkpt>
      <trkpt lat="43.81037" lon="6.18736">
        <ele>715.7</ele>
        <time>2022-02-20T20:18:33Z</time>
      </trkpt>
      <trkpt lat="43.81044" lon="6.18702">
        <ele>715.8</ele>
        <time>2022-02-20T20:18:48Z</time>
      </trkpt>
      <trkpt lat="43.81049" lon="6.1866">
        <ele>715.5</ele>
        <time>2022-02-20T20:19:01Z</time>
      </trkpt>
      <trkpt lat="43.81055" lon="6.18598">
        <ele>714.1</ele>
        <time>2022-02-20T20:19:06Z</time>
      </trkpt>
      <trkpt lat="43.81059" lon="6.18559">
        <ele>713.3</ele>
        <time>2022-02-20T20:19:08Z</time>
      </trkpt>
      <trkpt lat="43.8106" lon="6.18554">
        <ele>713.2</ele>
        <time>2022-02-20T20:19:10Z</time>
      </trkpt>
      <trkpt lat="43.81053" lon="6.18543">
        <ele>712.8</ele>
        <time>2022-02-20T20:19:29Z</time>
      </trkpt>
      <trkpt lat="43.81041" lon="6.18536">
        <ele>712.1</ele>
        <time>2022-02-20T20:19:43Z</time>
      </trkpt>
      <trkpt lat="43.81006" lon="6.185">
        <ele>710.2</ele>
        <time>2022-02-20T20:19:51Z</time>
      </trkpt>
      <trkpt lat="43.80968" lon="6.18462">
        <ele>709</ele>
        <time>2022-02-20T20:20:10Z</time>
      </trkpt>
      <trkpt lat="43.80927" lon="6.18424">
        <ele>706.7</ele>
        <time>2022-02-20T20:20:27Z</time>
      </trkpt>
      <trkpt lat="43.80867" lon="6.18364">
        <ele>703.8</ele>
        <time>2022-02-20T20:20:31Z</time>
      </trkpt>
      <trkpt lat="43.80797" lon="6.18297">
        <ele>701.3</ele>
        <time>2022-02-20T20:20:33Z</time>
      </trkpt>
      <trkpt lat="43.80761" lon="6.18271">
        <ele>701.6</ele>
        <time>2022-02-20T20:20:51Z</time>
      </trkpt>
      <trkpt lat="43.80705" lon="6.18244">
        <ele>700.9</ele>
        <time>2022-02-20T20:21:10Z</time>
      </trkpt>
      <trkpt lat="43.8068" lon="6.18237">
        <ele>700.2</ele>
        <time>2022-02-20T20:21:19Z</time>
      </trkpt>
      <trkpt lat="43.80656" lon="6.18223">
        <ele>699.3</ele>
        <time>2022-02-20T20:21:28Z</time>
      </trkpt>
      <trkpt lat="43.80609" lon="6.18205">
        <ele>697.4</ele>
        <time>2022-02-20T20:21:47Z</time>
      </trkpt>
      <trkpt lat="43.80569" lon="6.18189">
        <ele>695.9</ele>
        <time>2022-02-20T20:21:57Z</time>
      </trkpt>
      <trkpt lat="43.80515" lon="6.18168">
        <ele>694.4</ele>
        <time>2022-02-20T20:22:04Z</time>
      </trkpt>
      <trkpt lat="43.80509" lon="6.18165">
        <ele>694.2</ele>
        <time>2022-02-20T20:22:13Z</time>
      </trkpt>
      <trkpt lat="43.80485" lon="6.18142">
        <ele>693.4</ele>
        <time>2022-02-20T20:22:25Z</time>
      </trkpt>
      <trkpt lat="43.80466" lon="6.18094">
        <ele>692.2</ele>
        <time>2022-02-20T20:22:40Z</time>
      </trkpt>
      <trkpt lat="43.80448" lon="6.18046">
        <ele>692.3</ele>
        <time>2022-02-20T20:22:48Z</time>
      </trkpt>
      <trkpt lat="43.8042" lon="6.17984">
        <ele>692.6</ele>
        <time>2022-02-20T20:22:56Z</time>
      </trkpt>
      <trkpt lat="43.80391" lon="6.17932">
        <ele>691.9</ele>
        <time>2022-02-20T20:23:14Z</time>
      </trkpt>
      <trkpt lat="43.8036" lon="6.17878">
        <ele>691.4</ele>
        <time>2022-02-20T20:23:21Z</time>
      </trkpt>
      <trkpt lat="43.80314" lon="6.17817">
        <ele>690.6</ele>
        <time>2022-02-20T20:23:29Z</time>
      </trkpt>
      <trkpt lat="43.80272" lon="6.17764">
        <ele>690</ele>
        <time>2022-02-20T20:23:46Z</time>
      </trkpt>
      <trkpt lat="43.80233" lon="6.1771">
        <ele>690.1</ele>
        <time>2022-02-20T20:24:01Z</time>
      </trkpt>
      <trkpt lat="43.80188" lon="6.17653">
        <ele>689.8</ele>
        <time>2022-02-20T20:24:18Z</time>
      </trkpt>
      <trkpt lat="43.80147" lon="6.17587">
        <ele>689.5</ele>
        <time>2022-02-20T20:24:36Z</time>
      </trkpt>
      <trkpt lat="43.80119" lon="6.1754">
        <ele>688.7</ele>
        <time>2022-02-20T20:24:38Z</time>
      </trkpt>
      <trkpt lat="43.80082" lon="6.1748">
        <ele>686.3</ele>
        <time>2022-02-20T20:24:58Z</time>
      </trkpt>
      <trkpt lat="43.80053" lon="6.17432">
        <ele>686.4</ele>
        <time>2022-02-20T20:25:04Z</time>
      </trkpt>
      <trkpt lat="43.80012" lon="6.17366">
        <ele>685.4</ele>
        <time>2022-02-20T20:25:22Z</time>
      </trkpt>
      <trkpt lat="43.79988" lon="6.17324">
        <ele>685.4</ele>
        <time>2022-02-20T20:25:39Z</time>
      </trkpt>
      <trkpt lat="43.79962" lon="6.17272">
        <ele>685.6</ele>
        <time>2022-02-20T20:25:53Z</time>
      </trkpt>
      <trkpt lat="43.79934" lon="6.17211">
        <ele>684.5</ele>
        <time>2022-02-20T20:26:09Z</time>
      </trkpt>
      <trkpt lat="43.79897" lon="6.17136">
        <ele>682.6</ele>
        <time>2022-02-20T20:26:12Z</time>
      </trkpt>
      <trkpt lat="43.7986" lon="6.17064">
        <ele>682.1</ele>
        <time>2022-02-20T20:26:32Z</time>
      </trkpt>
      <trkpt lat="43.79827" lon="6.17001">
        <ele>681.9</ele>
        <time>2022-02-20T20:26:45Z</time>
      </trkpt>
      <trkpt lat="43.798" lon="6.16944">
        <ele>680.7</ele>
        <time>2022-02-20T20:26:58Z</time>
      </trkpt>
      <trkpt lat="43.79786" lon="6.16917">
        <ele>679.9</ele>
        <time>2022-02-20T20:27:18Z</time>
      </trkpt>
      <trkpt lat="43.7977" lon="6.16888">
        <ele>679.3</ele>
        <time>2022-02-20T20:27:20Z</time>
      </trkpt>
      <trkpt lat="43.79751" lon="6.16846">
        <ele>679</ele>
        <time>2022-02-20T20:27:34Z</time>
      </trkpt>
      <trkpt lat="43.79732" lon="6.16799">
        <ele>678.8</ele>
        <time>2022-02-20T20:27:50Z</time>
      </trkpt>
      <trkpt lat="43.79703" lon="6.16724">
        <ele>678.1</ele>
        <time>2022-02-20T20:28:00Z</time>
      </trkpt>
      <trkpt lat="43.79683" lon="6.16674">
        <ele>677.3</ele>
        <time>2022-02-20T20:28:03Z</time>
      </trkpt>
      <trkpt lat="43.79649" lon="6.16594">
        <ele>675.7</ele>
        <time>2022-02-20T20:28:16Z</time>
      </trkpt>
      <trkpt lat="43.79624" lon="6.16532">
        <ele>675.6</ele>
        <time>2022-02-20T20:28:27Z</time>
      </trkpt>
      <trkpt lat="43.79591" lon="6.16456">
        <ele>675.1</ele>
        <time>2022-02-20T20:28:46Z</time>
      </trkpt>
      <trkpt lat="43.79563" lon="6.16399">
        <ele>674.8</ele>
        <time>2022-02-20T20:29:01Z</time>
      </trkpt>
      <trkpt lat="43.79545" lon="6.16366">
        <ele>674.5</ele>
        <time>2022-02-20T20:29:05Z</time>
      </trkpt>
      <trkpt lat="43.79518" lon="6.1631">
        <ele>674.4</ele>
        <time>2022-02-20T20:29:07Z</time>
      </trkpt>
      <trkpt lat="43.79492" lon="6.16264">
        <ele>674.7</ele>
        <time>2022-02-20T20:29:11Z</time>
      </trkpt>
      <trkpt lat="43.7947" lon="6.16221">
        <ele>675.2</ele>
        <time>2022-02-20T20:29:30Z</time>
      </trkpt>
      <trkpt lat="43.79447" lon="6.16183">
        <ele>675.4</ele>
        <time>2022-02-20T20:29:33Z</time>
      </trkpt>
      <trkpt lat="43.7942" lon="6.16139">
        <ele>675.1</ele>
        <time>2022-02-20T20:29:41Z</time>
      </trkpt>
      <trkpt lat="43.79383" lon="6.16077">
        <ele>674.5</ele>
        <time>2022-02-20T20:29:52Z</time>
      </trkpt>
      <trkpt lat="43.79344" lon="6.16015">
        <ele>672.6</ele>
        <time>2022-02-20T20:30:04Z</time>
      </trkpt>
      <trkpt lat="43.79315" lon="6.15963">
        <ele>671.9</ele>
        <time>2022-02-20T20:30:21Z</time>
      </trkpt>
      <trkpt lat="43.7928" lon="6.15895">
        <ele>670.4</ele>
        <time>2022-02-20T20:30:33Z</time>
      </trkpt>
      <trkpt lat="43.79251" lon="6.1584">
        <ele>669.1</ele>
        <time>2022-02-20T20:30:46Z</time>
      </trkpt>
      <trkpt lat="43.79211" lon="6.15763">
        <ele>665.1</ele>
        <time>2022-02-20T20:31:01Z</time>
      </trkpt>
      <trkpt lat="43.79178" lon="6.15699">
        <ele>663.1</ele>
        <time>2022-02-20T20:31:16Z</time>
      </trkpt>
      <trkpt lat="43.79147" lon="6.15636">
        <ele>663</ele>
        <time>2022-02-20T20:31:32Z</time>
      </trkpt>
      <trkpt lat="43.79124" lon="6.15589">
        <ele>662.5</ele>
        <time>2022-02-20T20:31:48Z</time>
      </trkpt>
      <trkpt lat="43.79118" lon="6.15582">
        <ele>662.2</ele>
        <time>2022-02-20T20:31:53Z</time>
      </trkpt>
      <trkpt lat="43.79091" lon="6.15527">
        <ele>660.7</ele>
        <time>2022-02-20T20:32:05Z</time>
      </trkpt>
      <trkpt lat="43.79067" lon="6.15483">
        <ele>659.9</ele>
        <time>2022-02-20T20:32:14Z</time>
      </trkpt>
      <trkpt lat="43.79043" lon="6.15435">
        <ele>660</ele>
        <time>2022-02-20T20:32:23Z</time>
      </trkpt>
      <trkpt lat="43.79012" lon="6.15376">
        <ele>661.6</ele>
        <time>2022-02-20T20:32:34Z</time>
      </trkpt>
      <trkpt lat="43.78989" lon="6.15327">
        <ele>662.5</ele>
        <time>2022-02-20T20:32:51Z</time>
      </trkpt>
      <trkpt lat="43.78974" lon="6.15301">
        <ele>661.9</ele>
        <time>2022-02-20T20:33:10Z</time>
      </trkpt>
      <trkpt lat="43.78967" lon="6.15303">
        <ele>661.5</ele>
        <time>2022-02-20T20:33:22Z</time>
      </trkpt>
      <trkpt lat="43.7896" lon="6.15353">
        <ele>661</ele>
        <time>2022-02-20T20:33:29Z</time>
      </trkpt>
      <trkpt lat="43.78952" lon="6.15391">
        <ele>660.9</ele>
        <time>2022-02-20T20:33:41Z</time>
      </trkpt>
      <trkpt lat="43.78946" lon="6.15419">
        <ele>661</ele>
        <time>2022-02-20T20:33:59Z</time>
      </trkpt>
      <trkpt lat="43.78941" lon="6.1545">
        <ele>660.9</ele>
        <time>2022-02-20T20:34:05Z</time>
      </trkpt>
      <trkpt lat="43.78937" lon="6.15468">
        <ele>660.9</ele>
        <time>2022-02-20T20:34:12Z</time>
      </trkpt>
      <trkpt lat="43.78924" lon="6.15491">
        <ele>660.9</ele>
        <time>2022-02-20T20:34:24Z</time>
      </trkpt>
      <trkpt lat="43.7891" lon="6.15527">
        <ele>660.9</ele>
        <time>2022-02-20T20:34:26Z</time>
      </trkpt>
      <trkpt lat="43.78892" lon="6.15584">
        <ele>660.1</ele>
        <time>2022-02-20T20:34:39Z</time>
      </trkpt>
      <trkpt lat="43.7888" lon="6.15611">
        <ele>660.2</ele>
        <time>2022-02-20T20:34:50Z</time>
      </trkpt>
      <trkpt lat="43.78856" lon="6.15638">
        <ele>659.7</ele>
        <time>2022-02-20T20:34:58Z</time>
      </trkpt>
      <trkpt lat="43.78834" lon="6.15657">
        <ele>658.9</ele>
        <time>2022-02-20T20:35:16Z</time>
      </trkpt>
      <trkpt lat="43.7882" lon="6.15655">
        <ele>659.2</ele>
        <time>2022-02-20T20:35:18Z</time>
      </trkpt>
      <trkpt lat="43.78801" lon="6.15621">
        <ele>659.2</ele>
        <time>2022-02-20T20:35:23Z</time>
      </trkpt>
      <trkpt lat="43.78789" lon="6.15598">
        <ele>659.2</ele>
        <time>2022-02-20T20:35:25Z</time>
      </trkpt>
      <trkpt lat="43.78773" lon="6.15573">
        <ele>659.5</ele>
        <time>2022-02-20T20:35:39Z</time>
      </trkpt>
      <trkpt lat="43.78761" lon="6.15549">
        <ele>659.9</ele>
        <time>2022-02-20T20:35:49Z</time>
      </trkpt>
      <trkpt lat="43.78747" lon="6.15524">
        <ele>659.9</ele>
        <time>2022-02-20T20:36:05Z</time>
      </trkpt>
      <trkpt lat="43.78734" lon="6.155">
        <ele>659.2</ele>
        <time>2022-02-20T20:36:15Z</time>
      </trkpt>
      <trkpt lat="43.78721" lon="6.15483">
        <ele>658.3</ele>
        <time>2022-02-20T20:36:24Z</time>
      </trkpt>
      <trkpt lat="43.78711" lon="6.15465">
        <ele>657.5</ele>
        <time>2022-02-20T20:36:29Z</time>
      </trkpt>
      <trkpt lat="43.78711" lon="6.1545">
        <ele>657.2</ele>
        <time>2022-02-20T20:36:46Z</time>
      </trkpt>
      <trkpt lat="43.78717" lon="6.15424">
        <ele>656.9</ele>
        <time>2022-02-20T20:36:59Z</time>
      </trkpt>
      <trkpt lat="43.78726" lon="6.15392">
        <ele>656.6</ele>
        <time>2022-02-20T20:37:09Z</time>
      </trkpt>
      <trkpt lat="43.78735" lon="6.15364">
        <ele>656</ele>
        <time>2022-02-20T20:37:28Z</time>
      </trkpt>
      <trkpt lat="43.78752" lon="6.15335">
        <ele>655.1</ele>
        <time>2022-02-20T20:37:41Z</time>
      </trkpt>
      <trkpt lat="43.78762" lon="6.153">
        <ele>655.2</ele>
        <time>2022-02-20T20:37:44Z</time>
      </trkpt>
      <trkpt lat="43.78774" lon="6.15261">
        <ele>655.3</ele>
        <time>2022-02-20T20:37:54Z</time>
      </trkpt>
      <trkpt lat="43.78781" lon="6.15242">
        <ele>655.2</ele>
        <time>2022-02-20T20:38:12Z</time>
      </trkpt>
      <trkpt lat="43.78779" lon="6.15211">
        <ele>654.7</ele>
        <time>2022-02-20T20:38:31Z</time>
      </trkpt>
      <trkpt lat="43.78777" lon="6.15181">
        <ele>654.2</ele>
        <time>2022-02-20T20:38:42Z</time>
      </trkpt>
      <trkpt lat="43.78775" lon="6.15148">
        <ele>653.4</ele>
        <time>2022-02-20T20:38:54Z</time>
      </trkpt>
      <trkpt lat="43.78771" lon="6.15122">
        <ele>652.5</ele>
        <time>2022-02-20T20:39:04Z</time>
      </trkpt>
      <trkpt lat="43.78761" lon="6.15095">
        <ele>651.5</ele>
        <time>2022-02-20T20:39:13Z</time>
      </trkpt>
      <trkpt lat="43.78753" lon="6.15059">
        <ele>651</ele>
        <time>2022-02-20T20:39:24Z</time>
      </trkpt>
      <trkpt lat="43.7874" lon="6.15027">
        <ele>651.2</ele>
        <time>2022-02-20T20:39:31Z</time>
      </trkpt>
      <trkpt lat="43.78718" lon="6.14987">
        <ele>651.2</ele>
        <time>2022-02-20T20:39:40Z</time>
      </trkpt>
      <trkpt lat="43.78697" lon="6.1495">
        <ele>650.6</ele>
        <time>2022-02-20T20:39:53Z</time>
      </trkpt>
      <trkpt lat="43.78687" lon="6.14916">
        <ele>650</ele>
        <time>2022-02-20T20:40:12Z</time>
      </trkpt>
      <trkpt lat="43.78682" lon="6.14878">
        <ele>649.5</ele>
        <time>2022-02-20T20:40:27Z</time>
      </trkpt>
      <trkpt lat="43.78684" lon="6.14842">
        <ele>649.1</ele>
        <time>2022-02-20T20:40:33Z</time>
      </trkpt>
      <trkpt lat="43.78698" lon="6.14823">
        <ele>649</ele>
        <time>2022-02-20T20:40:42Z</time>
      </trkpt>
      <trkpt lat="43.78693" lon="6.14811">
        <ele>649</ele>
        <time>2022-02-20T20:40:47Z</time>
      </trkpt>
      <trkpt lat="43.78673" lon="6.14796">
        <ele>648.7</ele>
        <time>2022-02-20T20:40:54Z</time>
      </trkpt>
      <trkpt lat="43.78655" lon="6.14798">
        <ele>648.4</ele>
        <time>2022-02-20T20:41:07Z</time>
      </trkpt>
      <trkpt lat="43.78638" lon="6.14812">
        <ele>648.3</ele>
        <time>2022-02-20T20:41:16Z</time>
      </trkpt>
      <trkpt lat="43.78618" lon="6.14827">
        <ele>648.3</ele>
        <time>2022-02-20T20:41:30Z</time>
      </trkpt>
      <trkpt lat="43.78594" lon="6.14836">
        <ele>648.2</ele>
        <time>2022-02-20T20:41:38Z</time>
      </trkpt>
      <trkpt lat="43.78554" lon="6.14848">
        <ele>648.6</ele>
        <time>2022-02-20T20:41:44Z</time>
      </trkpt>
      <trkpt lat="43.7853" lon="6.14855">
        <ele>649</ele>
        <time>2022-02-20T20:42:00Z</time>
      </trkpt>
      <trkpt lat="43.78499" lon="6.14864">
        <ele>649.4</ele>
        <time>2022-02-20T20:42:06Z</time>
      </trkpt>
      <trkpt lat="43.7847" lon="6.14873">
        <ele>650.4</ele>
        <time>2022-02-20T20:42:09Z</time>
      </trkpt>
      <trkpt lat="43.78444" lon="6.1488">
        <ele>651.2</ele>
        <time>2022-02-20T20:42:29Z</time>
      </trkpt>
      <trkpt lat="43.78416" lon="6.14888">
        <ele>652</ele>
        <time>2022-02-20T20:42:35Z</time>
      </trkpt>
      <trkpt lat="43.78391" lon="6.14894">
        <ele>651.6</ele>
        <time>2022-02-20T20:42:41Z</time>
      </trkpt>
      <trkpt lat="43.78366" lon="6.14901">
        <ele>651.3</ele>
        <time>2022-02-20T20:42:46Z</time>
      </trkpt>
      <trkpt lat="43.78332" lon="6.1491">
        <ele>650.9</ele>
        <time>2022-02-20T20:43:03Z</time>
      </trkpt>
      <trkpt lat="43.78299" lon="6.14926">
        <ele>651.1</ele>
        <time>2022-02-20T20:43:19Z</time>
      </trkpt>
      <trkpt lat="43.78269" lon="6.14938">
        <ele>651.2</ele>
        <time>2022-02-20T20:43:32Z</time>
      </trkpt>
      <trkpt lat="43.78236" lon="6.14949">
        <ele>651.1</ele>
        <time>2022-02-20T20:43:40Z</time>
      </trkpt>
      <trkpt lat="43.78211" lon="6.14954">
        <ele>650.8</ele>
        <time>2022-02-20T20:43:59Z</time>
      </trkpt>
      <trkpt lat="43.78192" lon="6.14957">
        <ele>650.4</ele>
        <time>2022-02-20T20:44:02Z</time>
      </trkpt>
      <trkpt lat="43.78163" lon="6.14962">
        <ele>650</ele>
        <time>2022-02-20T20:44:08Z</time>
      </trkpt>
      <trkpt lat="43.78142" lon="6.14968">
        <ele>650</ele>
        <time>2022-02-20T20:44:26Z</time>
      </trkpt>
      <trkpt lat="43.781" lon="6.14975">
        <ele>650</ele>
        <time>2022-02-20T20:44:45Z</time>
      </trkpt>
      <trkpt lat="43.78081" lon="6.14978">
        <ele>650</ele>
        <time>2022-02-20T20:45:01Z</time>
      </trkpt>
      <trkpt lat="43.78041" lon="6.14981">
        <ele>650.1</ele>
        <time>2022-02-20T20:45:07Z</time>
      </trkpt>
      <trkpt lat="43.78022" lon="6.14983">
        <ele>650.1</ele>
        <time>2022-02-20T20:45:25Z</time>
      </trkpt>
      <trkpt lat="43.77997" lon="6.14986">
        <ele>650.2</ele>
        <time>2022-02-20T20:45:28Z</time>
      </trkpt>
      <trkpt lat="43.77979" lon="6.14991">
        <ele>650.3</ele>
        <time>2022-02-20T20:45:37Z</time>
      </trkpt>
      <trkpt lat="43.77958" lon="6.14998">
        <ele>650.5</ele>
        <time>2022-02-20T20:45:39Z</time>
      </trkpt>
      <trkpt lat="43.77936" lon="6.15003">
        <ele>650.8</ele>
        <time>2022-02-20T20:45:58Z</time>
      </trkpt>
      <trkpt lat="43.77916" lon="6.15006">
        <ele>651.1</ele>
        <time>2022-02-20T20:46:12Z</time>
      </trkpt>
      <trkpt lat="43.77888" lon="6.15006">
        <ele>651.1</ele>
        <time>2022-02-20T20:46:20Z</time>
      </trkpt>
      <trkpt lat="43.7786" lon="6.15005">
        <ele>651.1</ele>
        <time>2022-02-20T20:46:22Z</time>
      </trkpt>
      <trkpt lat="43.7783" lon="6.15009">
        <ele>651</ele>
        <time>2022-02-20T20:46:34Z</time>
      </trkpt>
      <trkpt lat="43.77805" lon="6.15013">
        <ele>650.1</ele>
        <time>2022-02-20T20:46:52Z</time>
      </trkpt>
      <trkpt lat="43.7777" lon="6.15018">
        <ele>648.9</ele>
        <time>2022-02-20T20:47:02Z</time>
      </trkpt>
      <trkpt lat="43.77749" lon="6.15018">
        <ele>648.2</ele>
        <time>2022-02-20T20:47:17Z</time>
      </trkpt>
      <trkpt lat="43.77711" lon="6.15016">
        <ele>648</ele>
        <time>2022-02-20T20:47:22Z</time>
      </trkpt>
      <trkpt lat="43.7769" lon="6.15015">
        <ele>647.9</ele>
        <time>2022-02-20T20:47:28Z</time>
      </trkpt>
      <trkpt lat="43.77667" lon="6.15018">
        <ele>647.8</ele>
        <time>2022-02-20T20:47:34Z</time>
      </trkpt>
      <trkpt lat="43.77643" lon="6.1502">
        <ele>647.8</ele>
        <time>2022-02-20T20:47:37Z</time>
      </trkpt>
      <trkpt lat="43.77615" lon="6.15015">
        <ele>647.9</ele>
        <time>2022-02-20T20:47:52Z</time>
      </trkpt>
      <trkpt lat="43.77581" lon="6.15009">
        <ele>648</ele>
        <time>2022-02-20T20:48:12Z</time>
      </trkpt>
      <trkpt lat="43.77559" lon="6.15005">
        <ele>647.7</ele>
        <time>2022-02-20T20:48:31Z</time>
      </trkpt>
      <trkpt lat="43.77521" lon="6.14995">
        <ele>647.3</ele>
        <time>2022-02-20T20:48:46Z</time>
      </trkpt>
      <trkpt lat="43.775" lon="6.14987">
        <ele>647</ele>
        <time>2022-02-20T20:48:52Z</time>
      </trkpt>
      <trkpt lat="43.77473" lon="6.14971">
        <ele>646.5</ele>
        <time>2022-02-20T20:48:54Z</time>
      </trkpt>
      <trkpt lat="43.77436" lon="6.14952">
        <ele>645.3</ele>
        <time>2022-02-20T20:48:59Z</time>
      </trkpt>
      <trkpt lat="43.77391" lon="6.14932">
        <ele>644.4</ele>
        <time>2022-02-20T20:49:10Z</time>
      </trkpt>
      <trkpt lat="43.77345" lon="6.14911">
        <ele>644.1</ele>
        <time>2022-02-20T20:49:13Z</time>
      </trkpt>
      <trkpt lat="43.77304" lon="6.14898">
        <ele>644.6</ele>
        <time>2022-02-20T20:49:30Z</time>
      </trkpt>
      <trkpt lat="43.77261" lon="6.14892">
        <ele>645.2</ele>
        <time>2022-02-20T20:49:33Z</time>
      </trkpt>
      <trkpt lat="43.772" lon="6.14885">
        <ele>644.7</ele>
        <time>2022-02-20T20:49:45Z</time>
      </trkpt>
      <trkpt lat="43.77164" lon="6.1488">
        <ele>644.2</ele>
        <time>2022-02-20T20:50:04Z</time>
      </trkpt>
      <trkpt lat="43.7712" lon="6.14878">
        <ele>644.8</ele>
        <time>2022-02-20T20:50:24Z</time>
      </trkpt>
      <trkpt lat="43.77081" lon="6.14878">
        <ele>645.5</ele>
        <time>2022-02-20T20:50:41Z</time>
      </trkpt>
      <trkpt lat="43.77035" lon="6.14867">
        <ele>645.6</ele>
        <time>2022-02-20T20:50:58Z</time>
      </trkpt>
      <trkpt lat="43.77" lon="6.14862">
        <ele>645.7</ele>
        <time>2022-02-20T20:51:08Z</time>
      </trkpt>
      <trkpt lat="43.76963" lon="6.14864">
        <ele>644.5</ele>
        <time>2022-02-20T20:51:10Z</time>
      </trkpt>
      <trkpt lat="43.76928" lon="6.14865">
        <ele>643.4</ele>
        <time>2022-02-20T20:51:20Z</time>
      </trkpt>
      <trkpt lat="43.76895" lon="6.14867">
        <ele>642.8</ele>
        <time>2022-02-20T20:51:26Z</time>
      </trkpt>
      <trkpt lat="43.76857" lon="6.14866">
        <ele>642.4</ele>
        <time>2022-02-20T20:51:29Z</time>
      </trkpt>
      <trkpt lat="43.76827" lon="6.14852">
        <ele>641.8</ele>
        <time>2022-02-20T20:51:46Z</time>
      </trkpt>
      <trkpt lat="43.76798" lon="6.14834">
        <ele>642.3</ele>
        <time>2022-02-20T20:52:06Z</time>
      </trkpt>
      <trkpt lat="43.76759" lon="6.14811">
        <ele>642.9</ele>
        <time>2022-02-20T20:52:22Z</time>
      </trkpt>
      <trkpt lat="43.76707" lon="6.14785">
        <ele>642.9</ele>
        <time>2022-02-20T20:52:30Z</time>
      </trkpt>
      <trkpt lat="43.76657" lon="6.14757">
        <ele>643.2</ele>
        <time>2022-02-20T20:52:49Z</time>
      </trkpt>
      <trkpt lat="43.76617" lon="6.14737">
        <ele>643.7</ele>
        <time>2022-02-20T20:52:54Z</time>
      </trkpt>
      <trkpt lat="43.76567" lon="6.1471">
        <ele>643.9</ele>
        <time>2022-02-20T20:52:57Z</time>
      </trkpt>
      <trkpt lat="43.76535" lon="6.14692">
        <ele>643.6</ele>
        <time>2022-02-20T20:53:11Z</time>
      </trkpt>
      <trkpt lat="43.76506" lon="6.14678">
        <ele>643.2</ele>
        <time>2022-02-20T20:53:26Z</time>
      </trkpt>
      <trkpt lat="43.76482" lon="6.14665">
        <ele>642.5</ele>
        <time>2022-02-20T20:53:30Z</time>
      </trkpt>
      <trkpt lat="43.76461" lon="6.14662">
        <ele>642</ele>
        <time>2022-02-20T20:53:41Z</time>
      </trkpt>
      <trkpt lat="43.76438" lon="6.14682">
        <ele>641.7</ele>
        <time>2022-02-20T20:53:49Z</time>
      </trkpt>
      <trkpt lat="43.76404" lon="6.14715">
        <ele>641.4</ele>
        <time>2022-02-20T20:54:08Z</time>
      </trkpt>
      <trkpt lat="43.76363" lon="6.14755">
        <ele>641.2</ele>
        <time>2022-02-20T20:54:14Z</time>
      </trkpt>
      <trkpt lat="43.76345" lon="6.14771">
        <ele>640.6</ele>
        <time>2022-02-20T20:54:34Z</time>
      </trkpt>
      <trkpt lat="43.76315" lon="6.14783">
        <ele>638.9</ele>
        <time>2022-02-20T20:54:54Z</time>
      </trkpt>
      <trkpt lat="43.76295" lon="6.14779">
        <ele>637.6</ele>
        <time>2022-02-20T20:55:12Z</time>
      </trkpt>
      <trkpt lat="43.76293" lon="6.14778">
        <ele>637.6</ele>
        <time>2022-02-20T20:55:23Z</time>
      </trkpt>
      <trkpt lat="43.76291" lon="6.1478">
        <ele>637.3</ele>
        <time>2022-02-20T20:55:43Z</time>
      </trkpt>
      <trkpt lat="43.76264" lon="6.14766">
        <ele>636.9</ele>
        <time>2022-02-20T20:55:54Z</time>
      </trkpt>
      <trkpt lat="43.76218" lon="6.14723">
        <ele>636.9</ele>
        <time>2022-02-20T20:56:08Z</time>
      </trkpt>
      <trkpt lat="43.76178" lon="6.14708">
        <ele>636.4</ele>
        <time>2022-02-20T20:56:10Z</time>
      </trkpt>
      <trkpt lat="43.76153" lon="6.147">
        <ele>635.4</ele>
        <time>2022-02-20T20:56:20Z</time>
      </trkpt>
      <trkpt lat="43.76132" lon="6.14678">
        <ele>636.1</ele>
        <time>2022-02-20T20:56:37Z</time>
      </trkpt>
      <trkpt lat="43.76107" lon="6.14601">
        <ele>637.3</ele>
        <time>2022-02-20T20:56:45Z</time>
      </trkpt>
      <trkpt lat="43.76096" lon="6.14546">
        <ele>636.1</ele>
        <time>2022-02-20T20:56:58Z</time>
      </trkpt>
      <trkpt lat="43.76091" lon="6.14524">
        <ele>635.2</ele>
        <time>2022-02-20T20:57:14Z</time>
      </trkpt>
      <trkpt lat="43.76095" lon="6.1449">
        <ele>633.9</ele>
        <time>2022-02-20T20:57:30Z</time>
      </trkpt>
      <trkpt lat="43.76117" lon="6.14456">
        <ele>633.5</ele>
        <time>2022-02-20T20:57:42Z</time>
      </trkpt>
      <trkpt lat="43.76133" lon="6.14441">
        <ele>634.2</ele>
        <time>2022-02-20T20:57:48Z</time>
      </trkpt>
      <trkpt lat="43.76155" lon="6.14431">
        <ele>636</ele>
        <time>2022-02-20T20:58:00Z</time>
      </trkpt>
      <trkpt lat="43.76178" lon="6.14425">
        <ele>637.1</ele>
        <time>2022-02-20T20:58:19Z</time>
      </trkpt>
      <trkpt lat="43.76195" lon="6.14417">
        <ele>637</ele>
        <time>2022-02-20T20:58:21Z</time>
      </trkpt>
      <trkpt lat="43.76197" lon="6.14413">
        <ele>637</ele>
        <time>2022-02-20T20:58:32Z</time>
      </trkpt>
      <trkpt lat="43.76196" lon="6.14383">
        <ele>637.1</ele>
        <time>2022-02-20T20:58:46Z</time>
      </trkpt>
      <trkpt lat="43.76189" lon="6.14351">
        <ele>637.4</ele>
        <time>2022-02-20T20:59:02Z</time>
      </trkpt>
      <trkpt lat="43.76191" lon="6.14318">
        <ele>637.5</ele>
        <time>2022-02-20T20:59:06Z</time>
      </trkpt>
      <trkpt lat="43.76222" lon="6.14254">
        <ele>637.3</ele>
        <time>2022-02-20T20:59:20Z</time>
      </trkpt>
      <trkpt lat="43.76241" lon="6.14213">
        <ele>637</ele>
        <time>2022-02-20T20:59:30Z</time>
      </trkpt>
      <trkpt lat="43.76269" lon="6.14158">
        <ele>637</ele>
        <time>2022-02-20T20:59:45Z</time>
      </trkpt>
      <trkpt lat="43.76297" lon="6.14108">
        <ele>637</ele>
        <time>2022-02-20T20:59:55Z</time>
      </trkpt>
      <trkpt lat="43.76333" lon="6.14057">
        <ele>637.3</ele>
        <time>2022-02-20T21:00:06Z</time>
      </trkpt>
      <trkpt lat="43.76354" lon="6.14017">
        <ele>637.7</ele>
        <time>2022-02-20T21:00:11Z</time>
      </trkpt>
      <trkpt lat="43.76379" lon="6.13971">
        <ele>636.8</ele>
        <time>2022-02-20T21:00:22Z</time>
      </trkpt>
      <trkpt lat="43.76409" lon="6.13913">
        <ele>635.9</ele>
        <time>2022-02-20T21:00:29Z</time>
      </trkpt>
      <trkpt lat="43.76434" lon="6.13859">
        <ele>635.4</ele>
        <time>2022-02-20T21:00:43Z</time>
      </trkpt>
      <trkpt lat="43.76461" lon="6.13796">
        <ele>635.8</ele>
        <time>2022-02-20T21:00:46Z</time>
      </trkpt>
      <trkpt lat="43.76477" lon="6.13758">
        <ele>636.4</ele>
        <time>2022-02-20T21:00:54Z</time>
      </trkpt>
      <trkpt lat="43.76503" lon="6.13693">
        <ele>637</ele>
        <time>2022-02-20T21:01:00Z</time>
      </trkpt>
      <trkpt lat="43.76527" lon="6.13631">
        <ele>637.3</ele>
        <time>2022-02-20T21:01:16Z</time>
      </trkpt>
      <trkpt lat="43.76549" lon="6.13581">
        <ele>637.6</ele>
        <time>2022-02-20T21:01:32Z</time>
      </trkpt>
      <trkpt lat="43.76567" lon="6.13536">
        <ele>637.2</ele>
        <time>2022-02-20T21:01:38Z</time>
      </trkpt>
      <trkpt lat="43.76592" lon="6.13489">
        <ele>637.3</ele>
        <time>2022-02-20T21:01:53Z</time>
      </trkpt>
      <trkpt lat="43.76614" lon="6.13447">
        <ele>638</ele>
        <time>2022-02-20T21:02:04Z</time>
      </trkpt>
      <trkpt lat="43.76639" lon="6.13394">
        <ele>638.3</ele>
        <time>2022-02-20T21:02:13Z</time>
      </trkpt>
      <trkpt lat="43.76658" lon="6.13344">
        <ele>637.5</ele>
        <time>2022-02-20T21:02:24Z</time>
      </trkpt>
      <trkpt lat="43.7667" lon="6.13299">
        <ele>635.3</ele>
        <time>2022-02-20T21:02:29Z</time>
      </trkpt>
      <trkpt lat="43.76693" lon="6.13245">
        <ele>633.6</ele>
        <time>2022-02-20T21:02:35Z</time>
      </trkpt>
      <trkpt lat="43.76722" lon="6.13209">
        <ele>634.2</ele>
        <time>2022-02-20T21:02:43Z</time>
      </trkpt>
      <trkpt lat="43.76772" lon="6.13155">
        <ele>633.6</ele>
        <time>2022-02-20T21:02:47Z</time>
      </trkpt>
      <trkpt lat="43.76792" lon="6.13132">
        <ele>632.8</ele>
        <time>2022-02-20T21:02:51Z</time>
      </trkpt>
      <trkpt lat="43.76797" lon="6.13105">
        <ele>632.2</ele>
        <time>2022-02-20T21:03:01Z</time>
      </trkpt>
      <trkpt lat="43.76811" lon="6.13052">
        <ele>629.4</ele>
        <time>2022-02-20T21:03:13Z</time>
      </trkpt>
      <trkpt lat="43.76822" lon="6.13025">
        <ele>627.2</ele>
        <time>2022-02-20T21:03:15Z</time>
      </trkpt>
      <trkpt lat="43.7683" lon="6.13">
        <ele>625.3</ele>
        <time>2022-02-20T21:03:22Z</time>
      </trkpt>
      <trkpt lat="43.76835" lon="6.12981">
        <ele>622.1</ele>
        <time>2022-02-20T21:03:37Z</time>
      </trkpt>
      <trkpt lat="43.76834" lon="6.12977">
        <ele>621.6</ele>
        <time>2022-02-20T21:03:50Z</time>
      </trkpt>
      <trkpt lat="43.76843" lon="6.12974">
        <ele>619.2</ele>
        <time>2022-02-20T21:04:08Z</time>
      </trkpt>
      <trkpt lat="43.76855" lon="6.1295">
        <ele>613.8</ele>
        <time>2022-02-20T21:04:21Z</time>
      </trkpt>
      <trkpt lat="43.76857" lon="6.12918">
        <ele>610</ele>
        <time>2022-02-20T21:04:32Z</time>
      </trkpt>
      <trkpt lat="43.76852" lon="6.12913">
        <ele>610.3</ele>
        <time>2022-02-20T21:04:37Z</time>
      </trkpt>
      <trkpt lat="43.76847" lon="6.1291">
        <ele>610.9</ele>
        <time>2022-02-20T21:04:54Z</time>
      </trkpt>
      <trkpt lat="43.76853" lon="6.12896">
        <ele>608.6</ele>
        <time>2022-02-20T21:04:57Z</time>
      </trkpt>
      <trkpt lat="43.76865" lon="6.12875">
        <ele>604.9</ele>
        <time>2022-02-20T21:05:06Z</time>
      </trkpt>
      <trkpt lat="43.76884" lon="6.12854">
        <ele>600.7</ele>
        <time>2022-02-20T21:05:11Z</time>
      </trkpt>
      <trkpt lat="43.7691" lon="6.12838">
        <ele>596.1</ele>
        <time>2022-02-20T21:05:30Z</time>
      </trkpt>
      <trkpt lat="43.7694" lon="6.12815">
        <ele>600.9</ele>
        <time>2022-02-20T21:05:35Z</time>
      </trkpt>
      <trkpt lat="43.76945" lon="6.12811">
        <ele>602.4</ele>
        <time>2022-02-20T21:05:41Z</time>
      </trkpt>
      <trkpt lat="43.76973" lon="6.12804">
        <ele>609.7</ele>
        <time>2022-02-20T21:05:55Z</time>
      </trkpt>
      <trkpt lat="43.76976" lon="6.12803">
        <ele>610.6</ele>
        <time>2022-02-20T21:05:59Z</time>
      </trkpt>
      <trkpt lat="43.76984" lon="6.12791">
        <ele>613.9</ele>
        <time>2022-02-20T21:06:09Z</time>
      </trkpt>
      <trkpt lat="43.76976" lon="6.12769">
        <ele>613.7</ele>
        <time>2022-02-20T21:06:14Z</time>
      </trkpt>
      <trkpt lat="43.76958" lon="6.12724">
        <ele>609.8</ele>
        <time>2022-02-20T21:06:28Z</time>
      </trkpt>
      <trkpt lat="43.76954" lon="6.12663">
        <ele>609.2</ele>
        <time>2022-02-20T21:06:30Z</time>
      </trkpt>
      <trkpt lat="43.76947" lon="6.12636">
        <ele>608.9</ele>
        <time>2022-02-20T21:06:46Z</time>
      </trkpt>
      <trkpt lat="43.76941" lon="6.12612">
        <ele>608.2</ele>
        <time>2022-02-20T21:06:49Z</time>
      </trkpt>
      <trkpt lat="43.76938" lon="6.12585">
        <ele>608.7</ele>
        <time>2022-02-20T21:06:52Z</time>
      </trkpt>
      <trkpt lat="43.76934" lon="6.1255">
        <ele>609.1</ele>
        <time>2022-02-20T21:07:09Z</time>
      </trkpt>
      <trkpt lat="43.76926" lon="6.12521">
        <ele>607.9</ele>
        <time>2022-02-20T21:07:25Z</time>
      </trkpt>
      <trkpt lat="43.76923" lon="6.12487">
        <ele>609.2</ele>
        <time>2022-02-20T21:07:40Z</time>
      </trkpt>
      <trkpt lat="43.76921" lon="6.12469">
        <ele>610</ele>
        <time>2022-02-20T21:07:58Z</time>
      </trkpt>
      <trkpt lat="43.76902" lon="6.12432">
        <ele>607.6</ele>
        <time>2022-02-20T21:08:04Z</time>
      </trkpt>
      <trkpt lat="43.76887" lon="6.12413">
        <ele>604.1</ele>
        <time>2022-02-20T21:08:23Z</time>
      </trkpt>
      <trkpt lat="43.76856" lon="6.12369">
        <ele>600.1</ele>
        <time>2022-02-20T21:08:26Z</time>
      </trkpt>
      <trkpt lat="43.76821" lon="6.12323">
        <ele>596.6</ele>
        <time>2022-02-20T21:08:40Z</time>
      </trkpt>
      <trkpt lat="43.76795" lon="6.12281">
        <ele>595.3</ele>
        <time>2022-02-20T21:08:44Z</time>
      </trkpt>
      <trkpt lat="43.76757" lon="6.12244">
        <ele>587.9</ele>
        <time>2022-02-20T21:09:00Z</time>
      </trkpt>
      <trkpt lat="43.76726" lon="6.12209">
        <ele>587.9</ele>
        <time>2022-02-20T21:09:19Z</time>
      </trkpt>
      <trkpt lat="43.767" lon="6.12193">
        <ele>583.6</ele>
        <time>2022-02-20T21:09:28Z</time>
      </trkpt>
      <trkpt lat="43.76684" lon="6.12176">
        <ele>580.8</ele>
        <time>2022-02-20T21:09:30Z</time>
      </trkpt>
      <trkpt lat="43.76659" lon="6.12136">
        <ele>581.6</ele>
        <time>2022-02-20T21:09:32Z</time>
      </trkpt>
      <trkpt lat="43.76637" lon="6.12099">
        <ele>582.9</ele>
        <time>2022-02-20T21:09:51Z</time>
      </trkpt>
      <trkpt lat="43.76621" lon="6.1208">
        <ele>580.3</ele>
        <time>2022-02-20T21:10:10Z</time>
      </trkpt>
      <trkpt lat="43.76599" lon="6.12044">
        <ele>580.5</ele>
        <time>2022-02-20T21:10:15Z</time>
      </trkpt>
      <trkpt lat="43.76586" lon="6.12026">
        <ele>579.8</ele>
        <time>2022-02-20T21:10:33Z</time>
      </trkpt>
      <trkpt lat="43.76573" lon="6.12007">
        <ele>579.6</ele>
        <time>2022-02-20T21:10:45Z</time>
      </trkpt>
      <trkpt lat="43.76561" lon="6.11987">
        <ele>578.3</ele>
        <time>2022-02-20T21:10:51Z</time>
      </trkpt>
      <trkpt lat="43.76548" lon="6.11948">
        <ele>577.9</ele>
        <time>2022-02-20T21:11:10Z</time>
      </trkpt>
      <trkpt lat="43.76536" lon="6.11914">
        <ele>575.8</ele>
        <time>2022-02-20T21:11:29Z</time>
      </trkpt>
      <trkpt lat="43.76523" lon="6.11848">
        <ele>570.3</ele>
        <time>2022-02-20T21:11:43Z</time>
      </trkpt>
      <trkpt lat="43.76523" lon="6.1178">
        <ele>570.4</ele>
        <time>2022-02-20T21:11:57Z</time>
      </trkpt>
      <trkpt lat="43.76527" lon="6.11718">
        <ele>572.8</ele>
        <time>2022-02-20T21:12:05Z</time>
      </trkpt>
      <trkpt lat="43.76525" lon="6.1169">
        <ele>571.5</ele>
        <time>2022-02-20T21:12:08Z</time>
      </trkpt>
      <trkpt lat="43.76512" lon="6.11654">
        <ele>564.3</ele>
        <time>2022-02-20T21:12:26Z</time>
      </trkpt>
      <trkpt lat="43.76512" lon="6.11626">
        <ele>562.4</ele>
        <time>2022-02-20T21:12:46Z</time>
      </trkpt>
      <trkpt lat="43.76509" lon="6.11588">
        <ele>558.4</ele>
        <time>2022-02-20T21:12:56Z</time>
      </trkpt>
      <trkpt lat="43.76509" lon="6.1154">
        <ele>554.1</ele>
        <time>2022-02-20T21:13:02Z</time>
      </trkpt>
      <trkpt lat="43.76512" lon="6.11491">
        <ele>550.6</ele>
        <time>2022-02-20T21:13:04Z</time>
      </trkpt>
      <trkpt lat="43.76505" lon="6.11446">
        <ele>543.1</ele>
        <time>2022-02-20T21:13:07Z</time>
      </trkpt>
      <trkpt lat="43.76507" lon="6.11394">
        <ele>539</ele>
        <time>2022-02-20T21:13:24Z</time>
      </trkpt>
      <trkpt lat="43.76511" lon="6.11364">
        <ele>537.7</ele>
        <time>2022-02-20T21:13:44Z</time>
      </trkpt>
      <trkpt lat="43.7651" lon="6.11326">
        <ele>534</ele>
        <time>2022-02-20T21:13:58Z</time>
      </trkpt>
      <trkpt lat="43.76513" lon="6.11299">
        <ele>533.9</ele>
        <time>2022-02-20T21:14:16Z</time>
      </trkpt>
      <trkpt lat="43.76513" lon="6.11253">
        <ele>531.5</ele>
        <time>2022-02-20T21:14:19Z</time>
      </trkpt>
      <trkpt lat="43.76506" lon="6.112">
        <ele>529.3</ele>
        <time>2022-02-20T21:14:25Z</time>
      </trkpt>
      <trkpt lat="43.76505" lon="6.11158">
        <ele>528.9</ele>
        <time>2022-02-20T21:14:36Z</time>
      </trkpt>
      <trkpt lat="43.76491" lon="6.11117">
        <ele>526.9</ele>
        <time>2022-02-20T21:14:38Z</time>
      </trkpt>
      <trkpt lat="43.76473" lon="6.11104">
        <ele>524.3</ele>
        <time>2022-02-20T21:14:53Z</time>
      </trkpt>
      <trkpt lat="43.76456" lon="6.11085">
        <ele>521.2</ele>
        <time>2022-02-20T21:14:55Z</time>
      </trkpt>
      <trkpt lat="43.76424" lon="6.11058">
        <ele>518.6</ele>
        <time>2022-02-20T21:14:59Z</time>
      </trkpt>
      <trkpt lat="43.76396" lon="6.11039">
        <ele>517.6</ele>
        <time>2022-02-20T21:15:03Z</time>
      </trkpt>
      <trkpt lat="43.76367" lon="6.11025">
        <ele>516.1</ele>
        <time>2022-02-20T21:15:07Z</time>
      </trkpt>
      <trkpt lat="43.76344" lon="6.11023">
        <ele>513.8</ele>
        <time>2022-02-20T21:15:16Z</time>
      </trkpt>
      <trkpt lat="43.76317" lon="6.11039">
        <ele>511.8</ele>
        <time>2022-02-20T21:15:18Z</time>
      </trkpt>
      <trkpt lat="43.76282" lon="6.11052">
        <ele>510.6</ele>
        <time>2022-02-20T21:15:27Z</time>
      </trkpt>
      <trkpt lat="43.76274" lon="6.11055">
        <ele>510.4</ele>
        <time>2022-02-20T21:15:34Z</time>
      </trkpt>
      <trkpt lat="43.76246" lon="6.11054">
        <ele>509.3</ele>
        <time>2022-02-20T21:15:47Z</time>
      </trkpt>
      <trkpt lat="43.76239" lon="6.11052">
        <ele>508.6</ele>
        <time>2022-02-20T21:15:51Z</time>
      </trkpt>
      <trkpt lat="43.76219" lon="6.11027">
        <ele>506</ele>
        <time>2022-02-20T21:16:01Z</time>
      </trkpt>
      <trkpt lat="43.76198" lon="6.1101">
        <ele>503.8</ele>
        <time>2022-02-20T21:16:06Z</time>
      </trkpt>
      <trkpt lat="43.76174" lon="6.1098">
        <ele>504.9</ele>
        <time>2022-02-20T21:16:10Z</time>
      </trkpt>
      <trkpt lat="43.76148" lon="6.10958">
        <ele>506.1</ele>
        <time>2022-02-20T21:16:12Z</time>
      </trkpt>
      <trkpt lat="43.76126" lon="6.10948">
        <ele>504.7</ele>
        <time>2022-02-20T21:16:16Z</time>
      </trkpt>
      <trkpt lat="43.76101" lon="6.10945">
        <ele>501.7</ele>
        <time>2022-02-20T21:16:24Z</time>
      </trkpt>
      <trkpt lat="43.76059" lon="6.10944">
        <ele>497.4</ele>
        <time>2022-02-20T21:16:32Z</time>
      </trkpt>
      <trkpt lat="43.76032" lon="6.10959">
        <ele>495.1</ele>
        <time>2022-02-20T21:16:39Z</time>
      </trkpt>
      <trkpt lat="43.7602" lon="6.10971">
        <ele>494.6</ele>
        <time>2022-02-20T21:16:53Z</time>
      </trkpt>
      <trkpt lat="43.75982" lon="6.10966">
        <ele>492</ele>
        <time>2022-02-20T21:17:02Z</time>
      </trkpt>
      <trkpt lat="43.75961" lon="6.10963">
        <ele>490.5</ele>
        <time>2022-02-20T21:17:15Z</time>
      </trkpt>
      <trkpt lat="43.75936" lon="6.10974">
        <ele>488.5</ele>
        <time>2022-02-20T21:17:32Z</time>
      </trkpt>
      <trkpt lat="43.75901" lon="6.10983">
        <ele>485.4</ele>
        <time>2022-02-20T21:17:50Z</time>
      </trkpt>
      <trkpt lat="43.75869" lon="6.10999">
        <ele>482</ele>
        <time>2022-02-20T21:18:09Z</time>
      </trkpt>
      <trkpt lat="43.75826" lon="6.11002">
        <ele>478.6</ele>
        <time>2022-02-20T21:18:25Z</time>
      </trkpt>
      <trkpt lat="43.758" lon="6.11001">
        <ele>476.3</ele>
        <time>2022-02-20T21:18:32Z</time>
      </trkpt>
      <trkpt lat="43.75784" lon="6.11003">
        <ele>475.2</ele>
        <time>2022-02-20T21:18:52Z</time>
      </trkpt>
      <trkpt lat="43.75771" lon="6.11011">
        <ele>475</ele>
        <time>2022-02-20T21:19:01Z</time>
      </trkpt>
      <trkpt lat="43.75755" lon="6.11014">
        <ele>474</ele>
        <time>2022-02-20T21:19:08Z</time>
      </trkpt>
      <trkpt lat="43.75714" lon="6.11005">
        <ele>468.1</ele>
        <time>2022-02-20T21:19:25Z</time>
      </trkpt>
      <trkpt lat="43.75677" lon="6.11019">
        <ele>464.2</ele>
        <time>2022-02-20T21:19:41Z</time>
      </trkpt>
      <trkpt lat="43.75665" lon="6.1102">
        <ele>462.8</ele>
        <time>2022-02-20T21:19:55Z</time>
      </trkpt>
      <trkpt lat="43.75663" lon="6.11013">
        <ele>462.3</ele>
        <time>2022-02-20T21:19:57Z</time>
      </trkpt>
      <trkpt lat="43.75639" lon="6.10992">
        <ele>459.7</ele>
        <time>2022-02-20T21:20:02Z</time>
      </trkpt>
      <trkpt lat="43.75611" lon="6.10978">
        <ele>457.3</ele>
        <time>2022-02-20T21:20:19Z</time>
      </trkpt>
      <trkpt lat="43.75594" lon="6.10969">
        <ele>455.6</ele>
        <time>2022-02-20T21:20:23Z</time>
      </trkpt>
      <trkpt lat="43.75562" lon="6.1095">
        <ele>453.1</ele>
        <time>2022-02-20T21:20:36Z</time>
      </trkpt>
      <trkpt lat="43.75541" lon="6.10937">
        <ele>451.5</ele>
        <time>2022-02-20T21:20:49Z</time>
      </trkpt>
      <trkpt lat="43.75492" lon="6.10923">
        <ele>447.5</ele>
        <time>2022-02-20T21:21:06Z</time>
      </trkpt>
      <trkpt lat="43.7547" lon="6.10918">
        <ele>445.5</ele>
        <time>2022-02-20T21:21:23Z</time>
      </trkpt>
      <trkpt lat="43.7545" lon="6.10907">
        <ele>444.1</ele>
        <time>2022-02-20T21:21:39Z</time>
      </trkpt>
      <trkpt lat="43.75426" lon="6.10868">
        <ele>443</ele>
        <time>2022-02-20T21:21:57Z</time>
      </trkpt>
      <trkpt lat="43.75399" lon="6.10847">
        <ele>441</ele>
        <time>2022-02-20T21:22:17Z</time>
      </trkpt>
      <trkpt lat="43.75379" lon="6.10831">
        <ele>439</ele>
        <time>2022-02-20T21:22:24Z</time>
      </trkpt>
      <trkpt lat="43.7533" lon="6.10817">
        <ele>434.4</ele>
        <time>2022-02-20T21:22:26Z</time>
      </trkpt>
      <trkpt lat="43.75298" lon="6.10791">
        <ele>433.2</ele>
        <time>2022-02-20T21:22:28Z</time>
      </trkpt>
      <trkpt lat="43.75253" lon="6.10768">
        <ele>430.2</ele>
        <time>2022-02-20T21:22:48Z</time>
      </trkpt>
      <trkpt lat="43.75209" lon="6.10758">
        <ele>427.2</ele>
        <time>2022-02-20T21:23:04Z</time>
      </trkpt>
      <trkpt lat="43.75185" lon="6.10763">
        <ele>425.5</ele>
        <time>2022-02-20T21:23:12Z</time>
      </trkpt>
      <trkpt lat="43.75124" lon="6.10762">
        <ele>422.7</ele>
        <time>2022-02-20T21:23:21Z</time>
      </trkpt>
      <trkpt lat="43.75116" lon="6.10762">
        <ele>422.5</ele>
        <time>2022-02-20T21:23:28Z</time>
      </trkpt>
      <trkpt lat="43.75083" lon="6.10779">
        <ele>421.6</ele>
        <time>2022-02-20T21:23:33Z</time>
      </trkpt>
      <trkpt lat="43.75054" lon="6.108">
        <ele>420</ele>
        <time>2022-02-20T21:23:43Z</time>
      </trkpt>
      <trkpt lat="43.75021" lon="6.10807">
        <ele>417.6</ele>
        <time>2022-02-20T21:23:58Z</time>
      </trkpt>
      <trkpt lat="43.74985" lon="6.10801">
        <ele>415.6</ele>
        <time>2022-02-20T21:24:15Z</time>
      </trkpt>
      <trkpt lat="43.74949" lon="6.10786">
        <ele>414.8</ele>
        <time>2022-02-20T21:24:31Z</time>
      </trkpt>
      <trkpt lat="43.74932" lon="6.10776">
        <ele>414.4</ele>
        <time>2022-02-20T21:24:40Z</time>
      </trkpt>
      <trkpt lat="43.74901" lon="6.10755">
        <ele>413.8</ele>
        <time>2022-02-20T21:24:52Z</time>
      </trkpt>
      <trkpt lat="43.74901" lon="6.10754">
        <ele>413.8</ele>
        <time>2022-02-20T21:24:59Z</time>
      </trkpt>
      <trkpt lat="43.74906" lon="6.10756">
        <ele>413.9</ele>
        <time>2022-02-20T21:25:01Z</time>
      </trkpt>
      <trkpt lat="43.74892" lon="6.10745">
        <ele>414.4</ele>
        <time>2022-02-20T21:25:13Z</time>
      </trkpt>
      <trkpt lat="43.74869" lon="6.10727">
        <ele>416.7</ele>
        <time>2022-02-20T21:25:15Z</time>
      </trkpt>
      <trkpt lat="43.74836" lon="6.10712">
        <ele>418.9</ele>
        <time>2022-02-20T21:25:26Z</time>
      </trkpt>
      <trkpt lat="43.74807" lon="6.10703">
        <ele>419.6</ele>
        <time>2022-02-20T21:25:43Z</time>
      </trkpt>
      <trkpt lat="43.74772" lon="6.10687">
        <ele>421.5</ele>
        <time>2022-02-20T21:25:50Z</time>
      </trkpt>
      <trkpt lat="43.74735" lon="6.10672">
        <ele>422.5</ele>
        <time>2022-02-20T21:25:52Z</time>
      </trkpt>
      <trkpt lat="43.74715" lon="6.10666">
        <ele>421.4</ele>
        <time>2022-02-20T21:26:06Z</time>
      </trkpt>
      <trkpt lat="43.74698" lon="6.10647">
        <ele>421.4</ele>
        <time>2022-02-20T21:26:11Z</time>
      </trkpt>
      <trkpt lat="43.7469" lon="6.10617">
        <ele>423.4</ele>
        <time>2022-02-20T21:26:25Z</time>
      </trkpt>
      <trkpt lat="43.7469" lon="6.10573">
        <ele>426.4</ele>
        <time>2022-02-20T21:26:42Z</time>
      </trkpt>
      <trkpt lat="43.74693" lon="6.10531">
        <ele>426.6</ele>
        <time>2022-02-20T21:26:59Z</time>
      </trkpt>
      <trkpt lat="43.74691" lon="6.10495">
        <ele>426.4</ele>
        <time>2022-02-20T21:27:16Z</time>
      </trkpt>
      <trkpt lat="43.74678" lon="6.10443">
        <ele>425.7</ele>
        <time>2022-02-20T21:27:27Z</time>
      </trkpt>
      <trkpt lat="43.74677" lon="6.10404">
        <ele>426.2</ele>
        <time>2022-02-20T21:27:35Z</time>
      </trkpt>
      <trkpt lat="43.74677" lon="6.10395">
        <ele>426.4</ele>
        <time>2022-02-20T21:27:38Z</time>
      </trkpt>
      <trkpt lat="43.74666" lon="6.1038">
        <ele>425.8</ele>
        <time>2022-02-20T21:27:55Z</time>
      </trkpt>
      <trkpt lat="43.74658" lon="6.10377">
        <ele>425.2</ele>
        <time>2022-02-20T21:28:14Z</time>
      </trkpt>
      <trkpt lat="43.7464" lon="6.10377">
        <ele>423.6</ele>
        <time>2022-02-20T21:28:28Z</time>
      </trkpt>
      <trkpt lat="43.74613" lon="6.10387">
        <ele>420.4</ele>
        <time>2022-02-20T21:28:30Z</time>
      </trkpt>
      <trkpt lat="43.74606" lon="6.10383">
        <ele>419.9</ele>
        <time>2022-02-20T21:28:46Z</time>
      </trkpt>
      <trkpt lat="43.74607" lon="6.10369">
        <ele>421.2</ele>
        <time>2022-02-20T21:28:55Z</time>
      </trkpt>
      <trkpt lat="43.74625" lon="6.10354">
        <ele>423.6</ele>
        <time>2022-02-20T21:29:00Z</time>
      </trkpt>
      <trkpt lat="43.74643" lon="6.1034">
        <ele>425.5</ele>
        <time>2022-02-20T21:29:06Z</time>
      </trkpt>
      <trkpt lat="43.74667" lon="6.10293">
        <ele>429.4</ele>
        <time>2022-02-20T21:29:22Z</time>
      </trkpt>
      <trkpt lat="43.74676" lon="6.1027">
        <ele>431.6</ele>
        <time>2022-02-20T21:29:26Z</time>
      </trkpt>
      <trkpt lat="43.74682" lon="6.10228">
        <ele>433</ele>
        <time>2022-02-20T21:29:37Z</time>
      </trkpt>
      <trkpt lat="43.74695" lon="6.10183">
        <ele>433.6</ele>
        <time>2022-02-20T21:29:42Z</time>
      </trkpt>
      <trkpt lat="43.74696" lon="6.10147">
        <ele>433.1</ele>
        <time>2022-02-20T21:29:44Z</time>
      </trkpt>
      <trkpt lat="43.74698" lon="6.1011">
        <ele>432.7</ele>
        <time>2022-02-20T21:29:52Z</time>
      </trkpt>
      <trkpt lat="43.74706" lon="6.10085">
        <ele>432.9</ele>
        <time>2022-02-20T21:30:05Z</time>
      </trkpt>
      <trkpt lat="43.74701" lon="6.10075">
        <ele>432.6</ele>
        <time>2022-02-20T21:30:07Z</time>
      </trkpt>
      <trkpt lat="43.74681" lon="6.10054">
        <ele>431.7</ele>
        <time>2022-02-20T21:30:25Z</time>
      </trkpt>
      <trkpt lat="43.7467" lon="6.10036">
        <ele>431.4</ele>
        <time>2022-02-20T21:30:41Z</time>
      </trkpt>
      <trkpt lat="43.74674" lon="6.10024">
        <ele>431.9</ele>
        <time>2022-02-20T21:30:59Z</time>
      </trkpt>
      <trkpt lat="43.74697" lon="6.10022">
        <ele>433.4</ele>
        <time>2022-02-20T21:31:04Z</time>
      </trkpt>
      <trkpt lat="43.74731" lon="6.10013">
        <ele>435.7</ele>
        <time>2022-02-20T21:31:23Z</time>
      </trkpt>
      <trkpt lat="43.7475" lon="6.10009">
        <ele>436.9</ele>
        <time>2022-02-20T21:31:25Z</time>
      </trkpt>
      <trkpt lat="43.74769" lon="6.10004">
        <ele>438.8</ele>
        <time>2022-02-20T21:31:39Z</time>
      </trkpt>
      <trkpt lat="43.74789" lon="6.09998">
        <ele>440.8</ele>
        <time>2022-02-20T21:31:52Z</time>
      </trkpt>
      <trkpt lat="43.74808" lon="6.09992">
        <ele>442.6</ele>
        <time>2022-02-20T21:32:02Z</time>
      </trkpt>
      <trkpt lat="43.74828" lon="6.09983">
        <ele>444.5</ele>
        <time>2022-02-20T21:32:07Z</time>
      </trkpt>
      <trkpt lat="43.74848" lon="6.09966">
        <ele>446.2</ele>
        <time>2022-02-20T21:32:10Z</time>
      </trkpt>
      <trkpt lat="43.74882" lon="6.09943">
        <ele>448.9</ele>
        <time>2022-02-20T21:32:24Z</time>
      </trkpt>
      <trkpt lat="43.74903" lon="6.09932">
        <ele>450.7</ele>
        <time>2022-02-20T21:32:35Z</time>
      </trkpt>
      <trkpt lat="43.74926" lon="6.0992">
        <ele>452.8</ele>
        <time>2022-02-20T21:32:42Z</time>
      </trkpt>
      <trkpt lat="43.74949" lon="6.09909">
        <ele>454.8</ele>
        <time>2022-02-20T21:32:59Z</time>
      </trkpt>
      <trkpt lat="43.74936" lon="6.09886">
        <ele>453.5</ele>
        <time>2022-02-20T21:33:17Z</time>
      </trkpt>
      <trkpt lat="43.74915" lon="6.09856">
        <ele>451.1</ele>
        <time>2022-02-20T21:33:23Z</time>
      </trkpt>
      <trkpt lat="43.74907" lon="6.09831">
        <ele>450.2</ele>
        <time>2022-02-20T21:33:35Z</time>
      </trkpt>
      <trkpt lat="43.74907" lon="6.09801">
        <ele>450.2</ele>
        <time>2022-02-20T21:33:37Z</time>
      </trkpt>
      <trkpt lat="43.74914" lon="6.09762">
        <ele>450.8</ele>
        <time>2022-02-20T21:33:45Z</time>
      </trkpt>
      <trkpt lat="43.74936" lon="6.09753">
        <ele>452.9</ele>
        <time>2022-02-20T21:34:01Z</time>
      </trkpt>
      <trkpt lat="43.74939" lon="6.09739">
        <ele>453.1</ele>
        <time>2022-02-20T21:34:15Z</time>
      </trkpt>
      <trkpt lat="43.74915" lon="6.09709">
        <ele>450.8</ele>
        <time>2022-02-20T21:34:23Z</time>
      </trkpt>
      <trkpt lat="43.74896" lon="6.09681">
        <ele>449</ele>
        <time>2022-02-20T21:34:27Z</time>
      </trkpt>
      <trkpt lat="43.74885" lon="6.0966">
        <ele>448</ele>
        <time>2022-02-20T21:34:46Z</time>
      </trkpt>
      <trkpt lat="43.74873" lon="6.09639">
        <ele>447.1</ele>
        <time>2022-02-20T21:35:06Z</time>
      </trkpt>
      <trkpt lat="43.74865" lon="6.09626">
        <ele>446.7</ele>
        <time>2022-02-20T21:35:13Z</time>
      </trkpt>
      <trkpt lat="43.7486" lon="6.09617">
        <ele>446.4</ele>
        <time>2022-02-20T21:35:21Z</time>
      </trkpt>
      <trkpt lat="43.74841" lon="6.09544">
        <ele>445.1</ele>
        <time>2022-02-20T21:35:30Z</time>
      </trkpt>
      <trkpt lat="43.7482" lon="6.09499">
        <ele>443.5</ele>
        <time>2022-02-20T21:35:38Z</time>
      </trkpt>
      <trkpt lat="43.74813" lon="6.09475">
        <ele>442.5</ele>
        <time>2022-02-20T21:35:55Z</time>
      </trkpt>
      <trkpt lat="43.74809" lon="6.0945">
        <ele>441.7</ele>
        <time>2022-02-20T21:36:12Z</time>
      </trkpt>
      <trkpt lat="43.74799" lon="6.09391">
        <ele>439.6</ele>
        <time>2022-02-20T21:36:14Z</time>
      </trkpt>
      <trkpt lat="43.74797" lon="6.09353">
        <ele>438</ele>
        <time>2022-02-20T21:36:30Z</time>
      </trkpt>
      <trkpt lat="43.74804" lon="6.09321">
        <ele>437.5</ele>
        <time>2022-02-20T21:36:48Z</time>
      </trkpt>
      <trkpt lat="43.74817" lon="6.09282">
        <ele>438.1</ele>
        <time>2022-02-20T21:36:53Z</time>
      </trkpt>
      <trkpt lat="43.74817" lon="6.09271">
        <ele>438.1</ele>
        <time>2022-02-20T21:37:03Z</time>
      </trkpt>
      <trkpt lat="43.74807" lon="6.09244">
        <ele>437.2</ele>
        <time>2022-02-20T21:37:07Z</time>
      </trkpt>
      <trkpt lat="43.74796" lon="6.09224">
        <ele>435.6</ele>
        <time>2022-02-20T21:37:24Z</time>
      </trkpt>
      <trkpt lat="43.74786" lon="6.09195">
        <ele>433.4</ele>
        <time>2022-02-20T21:37:39Z</time>
      </trkpt>
      <trkpt lat="43.74785" lon="6.09177">
        <ele>432.4</ele>
        <time>2022-02-20T21:37:57Z</time>
      </trkpt>
      <trkpt lat="43.74792" lon="6.09153">
        <ele>432.9</ele>
        <time>2022-02-20T21:37:59Z</time>
      </trkpt>
      <trkpt lat="43.74801" lon="6.09136">
        <ele>434.3</ele>
        <time>2022-02-20T21:38:09Z</time>
      </trkpt>
      <trkpt lat="43.74804" lon="6.09135">
        <ele>434.6</ele>
        <time>2022-02-20T21:38:18Z</time>
      </trkpt>
      <trkpt lat="43.74805" lon="6.09137">
        <ele>434.7</ele>
        <time>2022-02-20T21:38:32Z</time>
      </trkpt>
      <trkpt lat="43.7482" lon="6.09122">
        <ele>437.1</ele>
        <time>2022-02-20T21:38:40Z</time>
      </trkpt>
      <trkpt lat="43.74839" lon="6.09116">
        <ele>440</ele>
        <time>2022-02-20T21:38:47Z</time>
      </trkpt>
      <trkpt lat="43.74875" lon="6.0911">
        <ele>446.7</ele>
        <time>2022-02-20T21:38:55Z</time>
      </trkpt>
      <trkpt lat="43.74879" lon="6.09111">
        <ele>447.3</ele>
        <time>2022-02-20T21:39:07Z</time>
      </trkpt>
      <trkpt lat="43.74886" lon="6.09127">
        <ele>446.9</ele>
        <time>2022-02-20T21:39:27Z</time>
      </trkpt>
      <trkpt lat="43.74895" lon="6.09136">
        <ele>447.4</ele>
        <time>2022-02-20T21:39:33Z</time>
      </trkpt>
      <trkpt lat="43.74903" lon="6.09135">
        <ele>448.8</ele>
        <time>2022-02-20T21:39:50Z</time>
      </trkpt>
      <trkpt lat="43.74912" lon="6.09122">
        <ele>451.7</ele>
        <time>2022-02-20T21:40:10Z</time>
      </trkpt>
      <trkpt lat="43.74918" lon="6.09085">
        <ele>457</ele>
        <time>2022-02-20T21:40:25Z</time>
      </trkpt>
      <trkpt lat="43.74927" lon="6.09068">
        <ele>459.6</ele>
        <time>2022-02-20T21:40:33Z</time>
      </trkpt>
      <trkpt lat="43.74929" lon="6.09057">
        <ele>460.6</ele>
        <time>2022-02-20T21:40:48Z</time>
      </trkpt>
      <trkpt lat="43.74927" lon="6.09044">
        <ele>461.1</ele>
        <time>2022-02-20T21:41:07Z</time>
      </trkpt>
      <trkpt lat="43.74929" lon="6.09023">
        <ele>462.7</ele>
        <time>2022-02-20T21:41:13Z</time>
      </trkpt>
      <trkpt lat="43.74938" lon="6.08989">
        <ele>466.6</ele>
        <time>2022-02-20T21:41:25Z</time>
      </trkpt>
      <trkpt lat="43.74962" lon="6.08947">
        <ele>474.6</ele>
        <time>2022-02-20T21:41:31Z</time>
      </trkpt>
      <trkpt lat="43.7497" lon="6.0893">
        <ele>477.8</ele>
        <time>2022-02-20T21:41:41Z</time>
      </trkpt>
      <trkpt lat="43.74971" lon="6.089">
        <ele>478.2</ele>
        <time>2022-02-20T21:41:52Z</time>
      </trkpt>
      <trkpt lat="43.74979" lon="6.08867">
        <ele>479.3</ele>
        <time>2022-02-20T21:42:09Z</time>
      </trkpt>
      <trkpt lat="43.74995" lon="6.08834">
        <ele>482.4</ele>
        <time>2022-02-20T21:42:21Z</time>
      </trkpt>
      <trkpt lat="43.74994" lon="6.08799">
        <ele>479</ele>
        <time>2022-02-20T21:42:23Z</time>
      </trkpt>
      <trkpt lat="43.74999" lon="6.08773">
        <ele>478</ele>
        <time>2022-02-20T21:42:39Z</time>
      </trkpt>
      <trkpt lat="43.75008" lon="6.08746">
        <ele>477</ele>
        <time>2022-02-20T21:42:56Z</time>
      </trkpt>
      <trkpt lat="43.75021" lon="6.08715">
        <ele>476.7</ele>
        <time>2022-02-20T21:43:01Z</time>
      </trkpt>
      <trkpt lat="43.75041" lon="6.08682">
        <ele>477.5</ele>
        <time>2022-02-20T21:43:04Z</time>
      </trkpt>
      <trkpt lat="43.75065" lon="6.08653">
        <ele>479.6</ele>
        <time>2022-02-20T21:43:16Z</time>
      </trkpt>
      <trkpt lat="43.75079" lon="6.08628">
        <ele>480.6</ele>
        <time>2022-02-20T21:43:33Z</time>
      </trkpt>
      <trkpt lat="43.75082" lon="6.08619">
        <ele>480.5</ele>
        <time>2022-02-20T21:43:47Z</time>
      </trkpt>
      <trkpt lat="43.75082" lon="6.08616">
        <ele>480.4</ele>
        <time>2022-02-20T21:44:07Z</time>
      </trkpt>
      <trkpt lat="43.75052" lon="6.08607">
        <ele>475.8</ele>
        <time>2022-02-20T21:44:22Z</time>
      </trkpt>
      <trkpt lat="43.75009" lon="6.08595">
        <ele>469.5</ele>
        <time>2022-02-20T21:44:37Z</time>
      </trkpt>
      <trkpt lat="43.74982" lon="6.08573">
        <ele>464.9</ele>
        <time>2022-02-20T21:44:53Z</time>
      </trkpt>
      <trkpt lat="43.74949" lon="6.0855">
        <ele>458.1</ele>
        <time>2022-02-20T21:45:00Z</time>
      </trkpt>
      <trkpt lat="43.74916" lon="6.08547">
        <ele>453.6</ele>
        <time>2022-02-20T21:45:14Z</time>
      </trkpt>
      <trkpt lat="43.74897" lon="6.08558">
        <ele>452.6</ele>
        <time>2022-02-20T21:45:19Z</time>
      </trkpt>
      <trkpt lat="43.74865" lon="6.0858">
        <ele>450.7</ele>
        <time>2022-02-20T21:45:30Z</time>
      </trkpt>
      <trkpt lat="43.74857" lon="6.08574">
        <ele>448.7</ele>
        <time>2022-02-20T21:45:45Z</time>
      </trkpt>
      <trkpt lat="43.7484" lon="6.08573">
        <ele>445.9</ele>
        <time>2022-02-20T21:45:48Z</time>
      </trkpt>
      <trkpt lat="43.7482" lon="6.0857">
        <ele>442.5</ele>
        <time>2022-02-20T21:46:08Z</time>
      </trkpt>
      <trkpt lat="43.74793" lon="6.08548">
        <ele>436.9</ele>
        <time>2022-02-20T21:46:25Z</time>
      </trkpt>
      <trkpt lat="43.74764" lon="6.0851">
        <ele>429.4</ele>
        <time>2022-02-20T21:46:45Z</time>
      </trkpt>
      <trkpt lat="43.74743" lon="6.08504">
        <ele>427.4</ele>
        <time>2022-02-20T21:46:47Z</time>
      </trkpt>
      <trkpt lat="43.74725" lon="6.08511">
        <ele>427.9</ele>
        <time>2022-02-20T21:46:49Z</time>
      </trkpt>
      <trkpt lat="43.74708" lon="6.08525">
        <ele>429.1</ele>
        <time>2022-02-20T21:47:08Z</time>
      </trkpt>
      <trkpt lat="43.74699" lon="6.08533">
        <ele>429.6</ele>
        <time>2022-02-20T21:47:21Z</time>
      </trkpt>
      <trkpt lat="43.74669" lon="6.08544">
        <ele>430.2</ele>
        <time>2022-02-20T21:47:36Z</time>
      </trkpt>
      <trkpt lat="43.7463" lon="6.08533">
        <ele>426.1</ele>
        <time>2022-02-20T21:47:50Z</time>
      </trkpt>
      <trkpt lat="43.74606" lon="6.08514">
        <ele>423.6</ele>
        <time>2022-02-20T21:48:04Z</time>
      </trkpt>
      <trkpt lat="43.74595" lon="6.08489">
        <ele>421.4</ele>
        <time>2022-02-20T21:48:24Z</time>
      </trkpt>
      <trkpt lat="43.7459" lon="6.08457">
        <ele>417.8</ele>
        <time>2022-02-20T21:48:32Z</time>
      </trkpt>
      <trkpt lat="43.74591" lon="6.08447">
        <ele>416.8</ele>
        <time>2022-02-20T21:48:49Z</time>
      </trkpt>
      <trkpt lat="43.746" lon="6.08421">
        <ele>414.6</ele>
        <time>2022-02-20T21:49:02Z</time>
      </trkpt>
      <trkpt lat="43.74623" lon="6.08397">
        <ele>416.6</ele>
        <time>2022-02-20T21:49:13Z</time>
      </trkpt>
      <trkpt lat="43.74634" lon="6.08387">
        <ele>417.9</ele>
        <time>2022-02-20T21:49:16Z</time>
      </trkpt>
      <trkpt lat="43.7464" lon="6.08388">
        <ele>418.4</ele>
        <time>2022-02-20T21:49:26Z</time>
      </trkpt>
      <trkpt lat="43.74654" lon="6.08374">
        <ele>420.4</ele>
        <time>2022-02-20T21:49:29Z</time>
      </trkpt>
      <trkpt lat="43.74663" lon="6.08352">
        <ele>422.5</ele>
        <time>2022-02-20T21:49:40Z</time>
      </trkpt>
      <trkpt lat="43.7466" lon="6.08326">
        <ele>423.4</ele>
        <time>2022-02-20T21:49:54Z</time>
      </trkpt>
      <trkpt lat="43.74648" lon="6.08312">
        <ele>422.4</ele>
        <time>2022-02-20T21:50:10Z</time>
      </trkpt>
      <trkpt lat="43.74623" lon="6.08296">
        <ele>419.9</ele>
        <time>2022-02-20T21:50:21Z</time>
      </trkpt>
      <trkpt lat="43.7461" lon="6.08281">
        <ele>418.9</ele>
        <time>2022-02-20T21:50:28Z</time>
      </trkpt>
      <trkpt lat="43.74602" lon="6.08252">
        <ele>419</ele>
        <time>2022-02-20T21:50:30Z</time>
      </trkpt>
      <trkpt lat="43.74606" lon="6.08222">
        <ele>419.9</ele>
        <time>2022-02-20T21:50:36Z</time>
      </trkpt>
      <trkpt lat="43.74632" lon="6.082">
        <ele>423.2</ele>
        <time>2022-02-20T21:50:54Z</time>
      </trkpt>
      <trkpt lat="43.74642" lon="6.0818">
        <ele>424.8</ele>
        <time>2022-02-20T21:51:05Z</time>
      </trkpt>
      <trkpt lat="43.74639" lon="6.08163">
        <ele>425.2</ele>
        <time>2022-02-20T21:51:10Z</time>
      </trkpt>
      <trkpt lat="43.74606" lon="6.08131">
        <ele>425.1</ele>
        <time>2022-02-20T21:51:19Z</time>
      </trkpt>
      <trkpt lat="43.74583" lon="6.08087">
        <ele>427.6</ele>
        <time>2022-02-20T21:51:36Z</time>
      </trkpt>
      <trkpt lat="43.74575" lon="6.08043">
        <ele>426.2</ele>
        <time>2022-02-20T21:51:45Z</time>
      </trkpt>
      <trkpt lat="43.74561" lon="6.0802">
        <ele>424.4</ele>
        <time>2022-02-20T21:51:56Z</time>
      </trkpt>
      <trkpt lat="43.7452" lon="6.08019">
        <ele>419.2</ele>
        <time>2022-02-20T21:52:16Z</time>
      </trkpt>
      <trkpt lat="43.74505" lon="6.08001">
        <ele>418.6</ele>
        <time>2022-02-20T21:52:25Z</time>
      </trkpt>
      <trkpt lat="43.74479" lon="6.07961">
        <ele>422.4</ele>
        <time>2022-02-20T21:52:42Z</time>
      </trkpt>
      <trkpt lat="43.74453" lon="6.07927">
        <ele>425.1</ele>
        <time>2022-02-20T21:52:55Z</time>
      </trkpt>
      <trkpt lat="43.74446" lon="6.07899">
        <ele>426.2</ele>
        <time>2022-02-20T21:53:15Z</time>
      </trkpt>
      <trkpt lat="43.74446" lon="6.07873">
        <ele>426.9</ele>
        <time>2022-02-20T21:53:20Z</time>
      </trkpt>
      <trkpt lat="43.74438" lon="6.07835">
        <ele>426.6</ele>
        <time>2022-02-20T21:53:38Z</time>
      </trkpt>
      <trkpt lat="43.74419" lon="6.07814">
        <ele>424.8</ele>
        <time>2022-02-20T21:53:41Z</time>
      </trkpt>
      <trkpt lat="43.74395" lon="6.07809">
        <ele>422.7</ele>
        <time>2022-02-20T21:53:57Z</time>
      </trkpt>
      <trkpt lat="43.74371" lon="6.07819">
        <ele>419.2</ele>
        <time>2022-02-20T21:54:14Z</time>
      </trkpt>
      <trkpt lat="43.7435" lon="6.07831">
        <ele>415.3</ele>
        <time>2022-02-20T21:54:30Z</time>
      </trkpt>
      <trkpt lat="43.74325" lon="6.07828">
        <ele>414</ele>
        <time>2022-02-20T21:54:41Z</time>
      </trkpt>
      <trkpt lat="43.74321" lon="6.07825">
        <ele>414.5</ele>
        <time>2022-02-20T21:54:45Z</time>
      </trkpt>
      <trkpt lat="43.74293" lon="6.07784">
        <ele>421.7</ele>
        <time>2022-02-20T21:54:49Z</time>
      </trkpt>
      <trkpt lat="43.74275" lon="6.07753">
        <ele>427</ele>
        <time>2022-02-20T21:54:57Z</time>
      </trkpt>
      <trkpt lat="43.74249" lon="6.07737">
        <ele>430.1</ele>
        <time>2022-02-20T21:55:11Z</time>
      </trkpt>
      <trkpt lat="43.74224" lon="6.07746">
        <ele>425.4</ele>
        <time>2022-02-20T21:55:25Z</time>
      </trkpt>
      <trkpt lat="43.74178" lon="6.07718">
        <ele>424.3</ele>
        <time>2022-02-20T21:55:35Z</time>
      </trkpt>
      <trkpt lat="43.74159" lon="6.07715">
        <ele>423.1</ele>
        <time>2022-02-20T21:55:51Z</time>
      </trkpt>
      <trkpt lat="43.74128" lon="6.07735">
        <ele>418.8</ele>
        <time>2022-02-20T21:55:55Z</time>
      </trkpt>
      <trkpt lat="43.74103" lon="6.07745">
        <ele>416.4</ele>
        <time>2022-02-20T21:56:09Z</time>
      </trkpt>
      <trkpt lat="43.7408" lon="6.07755">
        <ele>414.8</ele>
        <time>2022-02-20T21:56:23Z</time>
      </trkpt>
      <trkpt lat="43.74054" lon="6.07767">
        <ele>415.5</ele>
        <time>2022-02-20T21:56:26Z</time>
      </trkpt>
      <trkpt lat="43.7404" lon="6.07771">
        <ele>416.4</ele>
        <time>2022-02-20T21:56:45Z</time>
      </trkpt>
      <trkpt lat="43.74017" lon="6.0776">
        <ele>419.7</ele>
        <time>2022-02-20T21:56:50Z</time>
      </trkpt>
      <trkpt lat="43.73993" lon="6.07711">
        <ele>424.3</ele>
        <time>2022-02-20T21:57:00Z</time>
      </trkpt>
      <trkpt lat="43.73979" lon="6.07693">
        <ele>424.7</ele>
        <time>2022-02-20T21:57:05Z</time>
      </trkpt>
      <trkpt lat="43.73961" lon="6.07689">
        <ele>424</ele>
        <time>2022-02-20T21:57:10Z</time>
      </trkpt>
      <trkpt lat="43.73946" lon="6.07701">
        <ele>421.8</ele>
        <time>2022-02-20T21:57:29Z</time>
      </trkpt>
      <trkpt lat="43.73938" lon="6.0772">
        <ele>419.5</ele>
        <time>2022-02-20T21:57:48Z</time>
      </trkpt>
      <trkpt lat="43.73919" lon="6.07797">
        <ele>412.3</ele>
        <time>2022-02-20T21:57:53Z</time>
      </trkpt>
      <trkpt lat="43.73909" lon="6.07831">
        <ele>410.5</ele>
        <time>2022-02-20T21:58:12Z</time>
      </trkpt>
      <trkpt lat="43.73886" lon="6.07858">
        <ele>409.2</ele>
        <time>2022-02-20T21:58:18Z</time>
      </trkpt>
      <trkpt lat="43.73858" lon="6.07885">
        <ele>407.4</ele>
        <time>2022-02-20T21:58:25Z</time>
      </trkpt>
      <trkpt lat="43.73844" lon="6.07916">
        <ele>404.1</ele>
        <time>2022-02-20T21:58:42Z</time>
      </trkpt>
      <trkpt lat="43.73837" lon="6.0795">
        <ele>404.4</ele>
        <time>2022-02-20T21:58:53Z</time>
      </trkpt>
      <trkpt lat="43.73833" lon="6.08025">
        <ele>405.6</ele>
        <time>2022-02-20T21:59:09Z</time>
      </trkpt>
      <trkpt lat="43.73826" lon="6.08085">
        <ele>407.4</ele>
        <time>2022-02-20T21:59:22Z</time>
      </trkpt>
      <trkpt lat="43.73816" lon="6.08113">
        <ele>407</ele>
        <time>2022-02-20T21:59:33Z</time>
      </trkpt>
      <trkpt lat="43.73801" lon="6.08133">
        <ele>407.2</ele>
        <time>2022-02-20T21:59:42Z</time>
      </trkpt>
      <trkpt lat="43.73769" lon="6.08153">
        <ele>408.4</ele>
        <time>2022-02-20T22:00:01Z</time>
      </trkpt>
      <trkpt lat="43.73737" lon="6.08159">
        <ele>409.5</ele>
        <time>2022-02-20T22:00:03Z</time>
      </trkpt>
      <trkpt lat="43.73705" lon="6.08152">
        <ele>410.3</ele>
        <time>2022-02-20T22:00:20Z</time>
      </trkpt>
      <trkpt lat="43.73685" lon="6.08139">
        <ele>411.3</ele>
        <time>2022-02-20T22:00:26Z</time>
      </trkpt>
      <trkpt lat="43.73668" lon="6.08111">
        <ele>413.3</ele>
        <time>2022-02-20T22:00:32Z</time>
      </trkpt>
      <trkpt lat="43.73634" lon="6.08063">
        <ele>415.7</ele>
        <time>2022-02-20T22:00:52Z</time>
      </trkpt>
      <trkpt lat="43.73615" lon="6.08037">
        <ele>416.8</ele>
        <time>2022-02-20T22:01:03Z</time>
      </trkpt>
      <trkpt lat="43.73594" lon="6.07991">
        <ele>419</ele>
        <time>2022-02-20T22:01:21Z</time>
      </trkpt>
      <trkpt lat="43.73587" lon="6.07932">
        <ele>420.6</ele>
        <time>2022-02-20T22:01:34Z</time>
      </trkpt>
      <trkpt lat="43.7358" lon="6.07881">
        <ele>424</ele>
        <time>2022-02-20T22:01:42Z</time>
      </trkpt>
      <trkpt lat="43.73585" lon="6.07842">
        <ele>427.3</ele>
        <time>2022-02-20T22:01:50Z</time>
      </trkpt>
      <trkpt lat="43.73589" lon="6.07793">
        <ele>431.2</ele>
        <time>2022-02-20T22:01:54Z</time>
      </trkpt>
      <trkpt lat="43.73598" lon="6.07755">
        <ele>434.3</ele>
        <time>2022-02-20T22:02:10Z</time>
      </trkpt>
      <trkpt lat="43.73618" lon="6.07728">
        <ele>436.5</ele>
        <time>2022-02-20T22:02:12Z</time>
      </trkpt>
      <trkpt lat="43.73625" lon="6.07702">
        <ele>438.9</ele>
        <time>2022-02-20T22:02:21Z</time>
      </trkpt>
      <trkpt lat="43.73619" lon="6.07667">
        <ele>442.6</ele>
        <time>2022-02-20T22:02:29Z</time>
      </trkpt>
      <trkpt lat="43.73593" lon="6.07651">
        <ele>445.1</ele>
        <time>2022-02-20T22:02:35Z</time>
      </trkpt>
      <trkpt lat="43.73548" lon="6.07665">
        <ele>441.9</ele>
        <time>2022-02-20T22:02:52Z</time>
      </trkpt>
      <trkpt lat="43.73516" lon="6.07654">
        <ele>442.2</ele>
        <time>2022-02-20T22:03:04Z</time>
      </trkpt>
      <trkpt lat="43.73504" lon="6.07634">
        <ele>444.1</ele>
        <time>2022-02-20T22:03:20Z</time>
      </trkpt>
      <trkpt lat="43.73493" lon="6.07607">
        <ele>447.1</ele>
        <time>2022-02-20T22:03:33Z</time>
      </trkpt>
      <trkpt lat="43.73482" lon="6.07589">
        <ele>449.2</ele>
        <time>2022-02-20T22:03:40Z</time>
      </trkpt>
      <trkpt lat="43.73461" lon="6.07588">
        <ele>449.1</ele>
        <time>2022-02-20T22:03:50Z</time>
      </trkpt>
      <trkpt lat="43.73442" lon="6.07591">
        <ele>448.4</ele>
        <time>2022-02-20T22:03:58Z</time>
      </trkpt>
      <trkpt lat="43.73408" lon="6.07578">
        <ele>449.8</ele>
        <time>2022-02-20T22:04:02Z</time>
      </trkpt>
      <trkpt lat="43.73383" lon="6.07556">
        <ele>452.2</ele>
        <time>2022-02-20T22:04:15Z</time>
      </trkpt>
      <trkpt lat="43.73362" lon="6.07549">
        <ele>452.9</ele>
        <time>2022-02-20T22:04:23Z</time>
      </trkpt>
      <trkpt lat="43.73342" lon="6.07532">
        <ele>454.7</ele>
        <time>2022-02-20T22:04:39Z</time>
      </trkpt>
      <trkpt lat="43.7332" lon="6.07512">
        <ele>457</ele>
        <time>2022-02-20T22:04:42Z</time>
      </trkpt>
      <trkpt lat="43.73313" lon="6.07502">
        <ele>458.1</ele>
        <time>2022-02-20T22:04:57Z</time>
      </trkpt>
      <trkpt lat="43.73305" lon="6.07484">
        <ele>460.6</ele>
        <time>2022-02-20T22:05:00Z</time>
      </trkpt>
      <trkpt lat="43.73287" lon="6.07453">
        <ele>464.9</ele>
        <time>2022-02-20T22:05:10Z</time>
      </trkpt>
      <trkpt lat="43.73273" lon="6.07438">
        <ele>466.6</ele>
        <time>2022-02-20T22:05:17Z</time>
      </trkpt>
      <trkpt lat="43.73259" lon="6.0744">
        <ele>466.2</ele>
        <time>2022-02-20T22:05:34Z</time>
      </trkpt>
      <trkpt lat="43.73228" lon="6.07425">
        <ele>468.3</ele>
        <time>2022-02-20T22:05:49Z</time>
      </trkpt>
      <trkpt lat="43.73215" lon="6.07419">
        <ele>469.3</ele>
        <time>2022-02-20T22:06:08Z</time>
      </trkpt>
      <trkpt lat="43.73197" lon="6.07399">
        <ele>471.6</ele>
        <time>2022-02-20T22:06:26Z</time>
      </trkpt>
      <trkpt lat="43.73182" lon="6.07383">
        <ele>473.7</ele>
        <time>2022-02-20T22:06:37Z</time>
      </trkpt>
      <trkpt lat="43.73171" lon="6.0737">
        <ele>475.5</ele>
        <time>2022-02-20T22:06:40Z</time>
      </trkpt>
      <trkpt lat="43.73146" lon="6.07359">
        <ele>476.4</ele>
        <time>2022-02-20T22:06:53Z</time>
      </trkpt>
      <trkpt lat="43.73129" lon="6.07346">
        <ele>477.3</ele>
        <time>2022-02-20T22:07:04Z</time>
      </trkpt>
      <trkpt lat="43.731" lon="6.07319">
        <ele>478.8</ele>
        <time>2022-02-20T22:07:15Z</time>
      </trkpt>
      <trkpt lat="43.73062" lon="6.07288">
        <ele>479.3</ele>
        <time>2022-02-20T22:07:34Z</time>
      </trkpt>
      <trkpt lat="43.73036" lon="6.07259">
        <ele>479.5</ele>
        <time>2022-02-20T22:07:38Z</time>
      </trkpt>
      <trkpt lat="43.73021" lon="6.07243">
        <ele>479.2</ele>
        <time>2022-02-20T22:07:51Z</time>
      </trkpt>
      <trkpt lat="43.73004" lon="6.07223">
        <ele>478.9</ele>
        <time>2022-02-20T22:08:00Z</time>
      </trkpt>
      <trkpt lat="43.72975" lon="6.072">
        <ele>479.1</ele>
        <time>2022-02-20T22:08:14Z</time>
      </trkpt>
      <trkpt lat="43.72933" lon="6.07172">
        <ele>479.4</ele>
        <time>2022-02-20T22:08:31Z</time>
      </trkpt>
      <trkpt lat="43.72912" lon="6.07148">
        <ele>479.7</ele>
        <time>2022-02-20T22:08:51Z</time>
      </trkpt>
      <trkpt lat="43.72884" lon="6.07126">
        <ele>479.2</ele>
        <time>2022-02-20T22:08:56Z</time>
      </trkpt>
      <trkpt lat="43.72856" lon="6.0712">
        <ele>477.9</ele>
        <time>2022-02-20T22:09:10Z</time>
      </trkpt>
      <trkpt lat="43.72836" lon="6.07113">
        <ele>477.1</ele>
        <time>2022-02-20T22:09:28Z</time>
      </trkpt>
      <trkpt lat="43.72806" lon="6.07101">
        <ele>476.1</ele>
        <time>2022-02-20T22:09:42Z</time>
      </trkpt>
      <trkpt lat="43.72782" lon="6.07093">
        <ele>475.3</ele>
        <time>2022-02-20T22:09:49Z</time>
      </trkpt>
      <trkpt lat="43.72765" lon="6.07089">
        <ele>474.6</ele>
        <time>2022-02-20T22:09:54Z</time>
      </trkpt>
      <trkpt lat="43.72721" lon="6.07073">
        <ele>472.7</ele>
        <time>2022-02-20T22:10:09Z</time>
      </trkpt>
      <trkpt lat="43.72693" lon="6.07065">
        <ele>471.4</ele>
        <time>2022-02-20T22:10:25Z</time>
      </trkpt>
      <trkpt lat="43.72656" lon="6.07053">
        <ele>470.1</ele>
        <time>2022-02-20T22:10:32Z</time>
      </trkpt>
      <trkpt lat="43.72632" lon="6.07041">
        <ele>469.8</ele>
        <time>2022-02-20T22:10:48Z</time>
      </trkpt>
      <trkpt lat="43.72611" lon="6.07025">
        <ele>469.8</ele>
        <time>2022-02-20T22:11:08Z</time>
      </trkpt>
      <trkpt lat="43.72585" lon="6.06989">
        <ele>470.6</ele>
        <time>2022-02-20T22:11:12Z</time>
      </trkpt>
      <trkpt lat="43.72547" lon="6.06943">
        <ele>472</ele>
        <time>2022-02-20T22:11:18Z</time>
      </trkpt>
      <trkpt lat="43.72522" lon="6.06895">
        <ele>473.6</ele>
        <time>2022-02-20T22:11:22Z</time>
      </trkpt>
      <trkpt lat="43.72497" lon="6.06849">
        <ele>475.1</ele>
        <time>2022-02-20T22:11:26Z</time>
      </trkpt>
      <trkpt lat="43.72474" lon="6.06825">
        <ele>474.8</ele>
        <time>2022-02-20T22:11:33Z</time>
      </trkpt>
      <trkpt lat="43.72448" lon="6.06804">
        <ele>474.2</ele>
        <time>2022-02-20T22:11:36Z</time>
      </trkpt>
      <trkpt lat="43.72444" lon="6.06803">
        <ele>474</ele>
        <time>2022-02-20T22:11:51Z</time>
      </trkpt>
      <trkpt lat="43.72428" lon="6.06785">
        <ele>474</ele>
        <time>2022-02-20T22:11:53Z</time>
      </trkpt>
      <trkpt lat="43.72415" lon="6.06767">
        <ele>474.1</ele>
        <time>2022-02-20T22:12:00Z</time>
      </trkpt>
      <trkpt lat="43.72395" lon="6.06743">
        <ele>474.6</ele>
        <time>2022-02-20T22:12:07Z</time>
      </trkpt>
      <trkpt lat="43.72373" lon="6.06723">
        <ele>475.1</ele>
        <time>2022-02-20T22:12:18Z</time>
      </trkpt>
      <trkpt lat="43.72344" lon="6.067">
        <ele>475.9</ele>
        <time>2022-02-20T22:12:33Z</time>
      </trkpt>
      <trkpt lat="43.72305" lon="6.06663">
        <ele>477.2</ele>
        <time>2022-02-20T22:12:38Z</time>
      </trkpt>
      <trkpt lat="43.72268" lon="6.06615">
        <ele>478.8</ele>
        <time>2022-02-20T22:12:43Z</time>
      </trkpt>
      <trkpt lat="43.72246" lon="6.06587">
        <ele>479.4</ele>
        <time>2022-02-20T22:12:49Z</time>
      </trkpt>
      <trkpt lat="43.72223" lon="6.06535">
        <ele>479.1</ele>
        <time>2022-02-20T22:13:09Z</time>
      </trkpt>
      <trkpt lat="43.72218" lon="6.065">
        <ele>479.3</ele>
        <time>2022-02-20T22:13:15Z</time>
      </trkpt>
      <trkpt lat="43.72216" lon="6.0645">
        <ele>479</ele>
        <time>2022-02-20T22:13:17Z</time>
      </trkpt>
      <trkpt lat="43.72213" lon="6.06436">
        <ele>478.8</ele>
        <time>2022-02-20T22:13:37Z</time>
      </trkpt>
      <trkpt lat="43.72196" lon="6.06404">
        <ele>478.5</ele>
        <time>2022-02-20T22:13:44Z</time>
      </trkpt>
      <trkpt lat="43.72186" lon="6.06378">
        <ele>479.2</ele>
        <time>2022-02-20T22:13:55Z</time>
      </trkpt>
      <trkpt lat="43.72187" lon="6.06371">
        <ele>479.6</ele>
        <time>2022-02-20T22:14:07Z</time>
      </trkpt>
      <trkpt lat="43.72189" lon="6.06363">
        <ele>480.2</ele>
        <time>2022-02-20T22:14:14Z</time>
      </trkpt>
      <trkpt lat="43.72198" lon="6.06356">
        <ele>481.4</ele>
        <time>2022-02-20T22:14:17Z</time>
      </trkpt>
      <trkpt lat="43.72199" lon="6.06323">
        <ele>483.5</ele>
        <time>2022-02-20T22:14:34Z</time>
      </trkpt>
      <trkpt lat="43.72198" lon="6.0628">
        <ele>486.9</ele>
        <time>2022-02-20T22:14:36Z</time>
      </trkpt>
      <trkpt lat="43.72205" lon="6.06231">
        <ele>490.2</ele>
        <time>2022-02-20T22:14:41Z</time>
      </trkpt>
      <trkpt lat="43.72211" lon="6.06193">
        <ele>491.5</ele>
        <time>2022-02-20T22:14:56Z</time>
      </trkpt>
      <trkpt lat="43.72221" lon="6.06142">
        <ele>493.7</ele>
        <time>2022-02-20T22:15:03Z</time>
      </trkpt>
      <trkpt lat="43.72232" lon="6.06111">
        <ele>495.3</ele>
        <time>2022-02-20T22:15:18Z</time>
      </trkpt>
      <trkpt lat="43.72249" lon="6.06089">
        <ele>495.9</ele>
        <time>2022-02-20T22:15:20Z</time>
      </trkpt>
      <trkpt lat="43.72279" lon="6.0606">
        <ele>498.8</ele>
        <time>2022-02-20T22:15:34Z</time>
      </trkpt>
      <trkpt lat="43.72298" lon="6.06046">
        <ele>500.4</ele>
        <time>2022-02-20T22:15:48Z</time>
      </trkpt>
      <trkpt lat="43.72317" lon="6.06028">
        <ele>502.2</ele>
        <time>2022-02-20T22:16:00Z</time>
      </trkpt>
      <trkpt lat="43.7234" lon="6.05999">
        <ele>504.9</ele>
        <time>2022-02-20T22:16:05Z</time>
      </trkpt>
      <trkpt lat="43.72364" lon="6.0596">
        <ele>508.9</ele>
        <time>2022-02-20T22:16:07Z</time>
      </trkpt>
      <trkpt lat="43.72394" lon="6.05928">
        <ele>514.6</ele>
        <time>2022-02-20T22:16:21Z</time>
      </trkpt>
      <trkpt lat="43.72408" lon="6.05897">
        <ele>517.2</ele>
        <time>2022-02-20T22:16:24Z</time>
      </trkpt>
      <trkpt lat="43.72419" lon="6.05871">
        <ele>518.3</ele>
        <time>2022-02-20T22:16:27Z</time>
      </trkpt>
      <trkpt lat="43.72431" lon="6.0585">
        <ele>520.3</ele>
        <time>2022-02-20T22:16:34Z</time>
      </trkpt>
      <trkpt lat="43.72439" lon="6.0583">
        <ele>521.1</ele>
        <time>2022-02-20T22:16:40Z</time>
      </trkpt>
      <trkpt lat="43.72439" lon="6.05809">
        <ele>520.6</ele>
        <time>2022-02-20T22:16:47Z</time>
      </trkpt>
      <trkpt lat="43.72446" lon="6.05767">
        <ele>520.4</ele>
        <time>2022-02-20T22:17:00Z</time>
      </trkpt>
      <trkpt lat="43.72467" lon="6.05748">
        <ele>523.5</ele>
        <time>2022-02-20T22:17:17Z</time>
      </trkpt>
      <trkpt lat="43.72481" lon="6.05731">
        <ele>526.4</ele>
        <time>2022-02-20T22:17:32Z</time>
      </trkpt>
      <trkpt lat="43.72489" lon="6.05706">
        <ele>528.2</ele>
        <time>2022-02-20T22:17:34Z</time>
      </trkpt>
      <trkpt lat="43.72502" lon="6.05665">
        <ele>530.5</ele>
        <time>2022-02-20T22:17:45Z</time>
      </trkpt>
      <trkpt lat="43.72511" lon="6.05629">
        <ele>534.2</ele>
        <time>2022-02-20T22:17:52Z</time>
      </trkpt>
      <trkpt lat="43.72511" lon="6.05612">
        <ele>535</ele>
        <time>2022-02-20T22:18:05Z</time>
      </trkpt>
      <trkpt lat="43.72504" lon="6.05594">
        <ele>534.4</ele>
        <time>2022-02-20T22:18:21Z</time>
      </trkpt>
      <trkpt lat="43.72494" lon="6.05569">
        <ele>535.4</ele>
        <time>2022-02-20T22:18:30Z</time>
      </trkpt>
      <trkpt lat="43.72495" lon="6.05544">
        <ele>538.4</ele>
        <time>2022-02-20T22:18:49Z</time>
      </trkpt>
      <trkpt lat="43.72481" lon="6.05514">
        <ele>540.8</ele>
        <time>2022-02-20T22:19:00Z</time>
      </trkpt>
      <trkpt lat="43.72466" lon="6.05484">
        <ele>541.5</ele>
        <time>2022-02-20T22:19:03Z</time>
      </trkpt>
      <trkpt lat="43.72456" lon="6.05459">
        <ele>541.4</ele>
        <time>2022-02-20T22:19:23Z</time>
      </trkpt>
      <trkpt lat="43.72452" lon="6.05442">
        <ele>541.6</ele>
        <time>2022-02-20T22:19:40Z</time>
      </trkpt>
      <trkpt lat="43.72442" lon="6.0542">
        <ele>541.8</ele>
        <time>2022-02-20T22:19:47Z</time>
      </trkpt>
      <trkpt lat="43.72431" lon="6.0539">
        <ele>544.5</ele>
        <time>2022-02-20T22:19:54Z</time>
      </trkpt>
      <trkpt lat="43.72438" lon="6.05352">
        <ele>548.6</ele>
        <time>2022-02-20T22:19:59Z</time>
      </trkpt>
      <trkpt lat="43.72451" lon="6.05323">
        <ele>551</ele>
        <time>2022-02-20T22:20:02Z</time>
      </trkpt>
      <trkpt lat="43.72472" lon="6.0529">
        <ele>553.4</ele>
        <time>2022-02-20T22:20:20Z</time>
      </trkpt>
      <trkpt lat="43.72489" lon="6.05266">
        <ele>555</ele>
        <time>2022-02-20T22:20:24Z</time>
      </trkpt>
      <trkpt lat="43.72518" lon="6.05224">
        <ele>556.8</ele>
        <time>2022-02-20T22:20:41Z</time>
      </trkpt>
      <trkpt lat="43.72555" lon="6.05168">
        <ele>558</ele>
        <time>2022-02-20T22:20:52Z</time>
      </trkpt>
      <trkpt lat="43.72572" lon="6.05141">
        <ele>558</ele>
        <time>2022-02-20T22:21:12Z</time>
      </trkpt>
      <trkpt lat="43.72574" lon="6.05138">
        <ele>558</ele>
        <time>2022-02-20T22:21:16Z</time>
      </trkpt>
      <trkpt lat="43.72576" lon="6.05128">
        <ele>558</ele>
        <time>2022-02-20T22:21:22Z</time>
      </trkpt>
      <trkpt lat="43.72585" lon="6.0512">
        <ele>558</ele>
        <time>2022-02-20T22:21:29Z</time>
      </trkpt>
      <trkpt lat="43.726" lon="6.05064">
        <ele>557.4</ele>
        <time>2022-02-20T22:21:34Z</time>
      </trkpt>
      <trkpt lat="43.72617" lon="6.04996">
        <ele>556.2</ele>
        <time>2022-02-20T22:21:51Z</time>
      </trkpt>
      <trkpt lat="43.72622" lon="6.04963">
        <ele>555.9</ele>
        <time>2022-02-20T22:22:02Z</time>
      </trkpt>
      <trkpt lat="43.72618" lon="6.04906">
        <ele>555.9</ele>
        <time>2022-02-20T22:22:04Z</time>
      </trkpt>
      <trkpt lat="43.72604" lon="6.04828">
        <ele>557.5</ele>
        <time>2022-02-20T22:22:13Z</time>
      </trkpt>
      <trkpt lat="43.72589" lon="6.04772">
        <ele>558.5</ele>
        <time>2022-02-20T22:22:27Z</time>
      </trkpt>
      <trkpt lat="43.72571" lon="6.04711">
        <ele>558.9</ele>
        <time>2022-02-20T22:22:42Z</time>
      </trkpt>
      <trkpt lat="43.72556" lon="6.04645">
        <ele>558.8</ele>
        <time>2022-02-20T22:22:55Z</time>
      </trkpt>
      <trkpt lat="43.72535" lon="6.04557">
        <ele>558.6</ele>
        <time>2022-02-20T22:23:11Z</time>
      </trkpt>
      <trkpt lat="43.72517" lon="6.04463">
        <ele>558.4</ele>
        <time>2022-02-20T22:23:28Z</time>
      </trkpt>
      <trkpt lat="43.72493" lon="6.04369">
        <ele>558.7</ele>
        <time>2022-02-20T22:23:30Z</time>
      </trkpt>
      <trkpt lat="43.72468" lon="6.04277">
        <ele>559</ele>
        <time>2022-02-20T22:23:32Z</time>
      </trkpt>
      <trkpt lat="43.72447" lon="6.04195">
        <ele>559</ele>
        <time>2022-02-20T22:23:38Z</time>
      </trkpt>
      <trkpt lat="43.7242" lon="6.04103">
        <ele>557.6</ele>
        <time>2022-02-20T22:23:47Z</time>
      </trkpt>
      <trkpt lat="43.72395" lon="6.04011">
        <ele>555.5</ele>
        <time>2022-02-20T22:23:58Z</time>
      </trkpt>
      <trkpt lat="43.7238" lon="6.03926">
        <ele>553.7</ele>
        <time>2022-02-20T22:24:01Z</time>
      </trkpt>
      <trkpt lat="43.72363" lon="6.03835">
        <ele>554.3</ele>
        <time>2022-02-20T22:24:18Z</time>
      </trkpt>
      <trkpt lat="43.72345" lon="6.03757">
        <ele>555.5</ele>
        <time>2022-02-20T22:24:26Z</time>
      </trkpt>
      <trkpt lat="43.72333" lon="6.03681">
        <ele>556</ele>
        <time>2022-02-20T22:24:45Z</time>
      </trkpt>
      <trkpt lat="43.7232" lon="6.03595">
        <ele>554.8</ele>
        <time>2022-02-20T22:24:58Z</time>
      </trkpt>
      <trkpt lat="43.72298" lon="6.03505">
        <ele>553.1</ele>
        <time>2022-02-20T22:25:16Z</time>
      </trkpt>
      <trkpt lat="43.7227" lon="6.03431">
        <ele>551.7</ele>
        <time>2022-02-20T22:25:23Z</time>
      </trkpt>
      <trkpt lat="43.7224" lon="6.0336">
        <ele>551.7</ele>
        <time>2022-02-20T22:25:27Z</time>
      </trkpt>
      <trkpt lat="43.72213" lon="6.03287">
        <ele>552.3</ele>
        <time>2022-02-20T22:25:34Z</time>
      </trkpt>
      <trkpt lat="43.7219" lon="6.03216">
        <ele>552.2</ele>
        <time>2022-02-20T22:25:40Z</time>
      </trkpt>
      <trkpt lat="43.72181" lon="6.03194">
        <ele>552.1</ele>
        <time>2022-02-20T22:25:52Z</time>
      </trkpt>
      <trkpt lat="43.72181" lon="6.03191">
        <ele>552</ele>
        <time>2022-02-20T22:26:03Z</time>
      </trkpt>
      <trkpt lat="43.72177" lon="6.03188">
        <ele>552</ele>
        <time>2022-02-20T22:26:18Z</time>
      </trkpt>
      <trkpt lat="43.72177" lon="6.0319">
        <ele>552</ele>
        <time>2022-02-20T22:26:36Z</time>
      </trkpt>
      <trkpt lat="43.72166" lon="6.03232">
        <ele>552</ele>
        <time>2022-02-20T22:26:44Z</time>
      </trkpt>
      <trkpt lat="43.72151" lon="6.03271">
        <ele>551.5</ele>
        <time>2022-02-20T22:27:02Z</time>
      </trkpt>
      <trkpt lat="43.72142" lon="6.03294">
        <ele>551.3</ele>
        <time>2022-02-20T22:27:06Z</time>
      </trkpt>
      <trkpt lat="43.72124" lon="6.03344">
        <ele>550.9</ele>
        <time>2022-02-20T22:27:13Z</time>
      </trkpt>
      <trkpt lat="43.72093" lon="6.0342">
        <ele>550.1</ele>
        <time>2022-02-20T22:27:20Z</time>
      </trkpt>
      <trkpt lat="43.7207" lon="6.03476">
        <ele>550.5</ele>
        <time>2022-02-20T22:27:39Z</time>
      </trkpt>
      <trkpt lat="43.72054" lon="6.03499">
        <ele>550.3</ele>
        <time>2022-02-20T22:27:46Z</time>
      </trkpt>
      <trkpt lat="43.72026" lon="6.03523">
        <ele>549.8</ele>
        <time>2022-02-20T22:28:06Z</time>
      </trkpt>
      <trkpt lat="43.72012" lon="6.03539">
        <ele>549.4</ele>
        <time>2022-02-20T22:28:13Z</time>
      </trkpt>
      <trkpt lat="43.71985" lon="6.03579">
        <ele>548.2</ele>
        <time>2022-02-20T22:28:32Z</time>
      </trkpt>
      <trkpt lat="43.71951" lon="6.03628">
        <ele>539.8</ele>
        <time>2022-02-20T22:28:48Z</time>
      </trkpt>
      <trkpt lat="43.71923" lon="6.03669">
        <ele>531.4</ele>
        <time>2022-02-20T22:28:53Z</time>
      </trkpt>
      <trkpt lat="43.7191" lon="6.03687">
        <ele>528.6</ele>
        <time>2022-02-20T22:29:12Z</time>
      </trkpt>
      <trkpt lat="43.71877" lon="6.03716">
        <ele>527.1</ele>
        <time>2022-02-20T22:29:31Z</time>
      </trkpt>
      <trkpt lat="43.7184" lon="6.03769">
        <ele>521</ele>
        <time>2022-02-20T22:29:36Z</time>
      </trkpt>
      <trkpt lat="43.71814" lon="6.0385">
        <ele>511.2</ele>
        <time>2022-02-20T22:29:51Z</time>
      </trkpt>
      <trkpt lat="43.71795" lon="6.03915">
        <ele>508.2</ele>
        <time>2022-02-20T22:29:55Z</time>
      </trkpt>
      <trkpt lat="43.71782" lon="6.03956">
        <ele>505.9</ele>
        <time>2022-02-20T22:30:01Z</time>
      </trkpt>
      <trkpt lat="43.7177" lon="6.03975">
        <ele>503.3</ele>
        <time>2022-02-20T22:30:08Z</time>
      </trkpt>
      <trkpt lat="43.71747" lon="6.04019">
        <ele>497.4</ele>
        <time>2022-02-20T22:30:14Z</time>
      </trkpt>
      <trkpt lat="43.71732" lon="6.0404">
        <ele>496.6</ele>
        <time>2022-02-20T22:30:29Z</time>
      </trkpt>
      <trkpt lat="43.71724" lon="6.04062">
        <ele>495.5</ele>
        <time>2022-02-20T22:30:31Z</time>
      </trkpt>
      <trkpt lat="43.71721" lon="6.04066">
        <ele>495.3</ele>
        <time>2022-02-20T22:30:37Z</time>
      </trkpt>
      <trkpt lat="43.7172" lon="6.04066">
        <ele>495.3</ele>
        <time>2022-02-20T22:30:43Z</time>
      </trkpt>
      <trkpt lat="43.7172" lon="6.04063">
        <ele>495.4</ele>
        <time>2022-02-20T22:31:02Z</time>
      </trkpt>
      <trkpt lat="43.717" lon="6.04111">
        <ele>492.6</ele>
        <time>2022-02-20T22:31:15Z</time>
      </trkpt>
      <trkpt lat="43.71682" lon="6.04144">
        <ele>489.8</ele>
        <time>2022-02-20T22:31:29Z</time>
      </trkpt>
      <trkpt lat="43.71674" lon="6.0417">
        <ele>487.9</ele>
        <time>2022-02-20T22:31:40Z</time>
      </trkpt>
      <trkpt lat="43.71666" lon="6.04184">
        <ele>488.2</ele>
        <time>2022-02-20T22:31:42Z</time>
      </trkpt>
      <trkpt lat="43.71657" lon="6.04183">
        <ele>487.6</ele>
        <time>2022-02-20T22:31:45Z</time>
      </trkpt>
      <trkpt lat="43.71618" lon="6.04172">
        <ele>484.5</ele>
        <time>2022-02-20T22:31:58Z</time>
      </trkpt>
      <trkpt lat="43.71588" lon="6.04178">
        <ele>483.3</ele>
        <time>2022-02-20T22:32:12Z</time>
      </trkpt>
      <trkpt lat="43.71582" lon="6.0418">
        <ele>483.1</ele>
        <time>2022-02-20T22:32:21Z</time>
      </trkpt>
      <trkpt lat="43.71557" lon="6.04176">
        <ele>482.4</ele>
        <time>2022-02-20T22:32:34Z</time>
      </trkpt>
      <trkpt lat="43.71528" lon="6.04167">
        <ele>481.3</ele>
        <time>2022-02-20T22:32:40Z</time>
      </trkpt>
      <trkpt lat="43.71504" lon="6.04175">
        <ele>481.5</ele>
        <time>2022-02-20T22:32:47Z</time>
      </trkpt>
      <trkpt lat="43.71485" lon="6.04175">
        <ele>480.8</ele>
        <time>2022-02-20T22:32:58Z</time>
      </trkpt>
      <trkpt lat="43.71449" lon="6.04184">
        <ele>479.7</ele>
        <time>2022-02-20T22:33:12Z</time>
      </trkpt>
      <trkpt lat="43.71432" lon="6.04195">
        <ele>479.7</ele>
        <time>2022-02-20T22:33:28Z</time>
      </trkpt>
      <trkpt lat="43.7142" lon="6.04206">
        <ele>480</ele>
        <time>2022-02-20T22:33:41Z</time>
      </trkpt>
      <trkpt lat="43.71394" lon="6.04217">
        <ele>479.5</ele>
        <time>2022-02-20T22:33:58Z</time>
      </trkpt>
      <trkpt lat="43.71374" lon="6.04224">
        <ele>478.6</ele>
        <time>2022-02-20T22:34:01Z</time>
      </trkpt>
      <trkpt lat="43.71341" lon="6.04256">
        <ele>477.1</ele>
        <time>2022-02-20T22:34:07Z</time>
      </trkpt>
      <trkpt lat="43.71302" lon="6.04293">
        <ele>474.9</ele>
        <time>2022-02-20T22:34:18Z</time>
      </trkpt>
      <trkpt lat="43.7127" lon="6.04313">
        <ele>470.4</ele>
        <time>2022-02-20T22:34:35Z</time>
      </trkpt>
      <trkpt lat="43.71251" lon="6.04321">
        <ele>467.1</ele>
        <time>2022-02-20T22:34:52Z</time>
      </trkpt>
      <trkpt lat="43.71222" lon="6.04338">
        <ele>466</ele>
        <time>2022-02-20T22:35:11Z</time>
      </trkpt>
      <trkpt lat="43.71205" lon="6.04349">
        <ele>465.2</ele>
        <time>2022-02-20T22:35:17Z</time>
      </trkpt>
      <trkpt lat="43.71182" lon="6.04358">
        <ele>463.7</ele>
        <time>2022-02-20T22:35:21Z</time>
      </trkpt>
      <trkpt lat="43.71152" lon="6.04371">
        <ele>461.7</ele>
        <time>2022-02-20T22:35:23Z</time>
      </trkpt>
      <trkpt lat="43.71134" lon="6.04382">
        <ele>460.5</ele>
        <time>2022-02-20T22:35:25Z</time>
      </trkpt>
      <trkpt lat="43.7112" lon="6.04394">
        <ele>459.5</ele>
        <time>2022-02-20T22:35:43Z</time>
      </trkpt>
      <trkpt lat="43.71116" lon="6.04396">
        <ele>459.2</ele>
        <time>2022-02-20T22:35:58Z</time>
      </trkpt>
      <trkpt lat="43.71113" lon="6.04399">
        <ele>458.9</ele>
        <time>2022-02-20T22:36:05Z</time>
      </trkpt>
      <trkpt lat="43.71105" lon="6.04402">
        <ele>458.5</ele>
        <time>2022-02-20T22:36:20Z</time>
      </trkpt>
      <trkpt lat="43.71105" lon="6.044">
        <ele>458.6</ele>
        <time>2022-02-20T22:36:28Z</time>
      </trkpt>
      <trkpt lat="43.71104" lon="6.04391">
        <ele>459</ele>
        <time>2022-02-20T22:36:45Z</time>
      </trkpt>
      <trkpt lat="43.71096" lon="6.04395">
        <ele>458.5</ele>
        <time>2022-02-20T22:37:00Z</time>
      </trkpt>
      <trkpt lat="43.7109" lon="6.04405">
        <ele>457.9</ele>
        <time>2022-02-20T22:37:17Z</time>
      </trkpt>
      <trkpt lat="43.71081" lon="6.04408">
        <ele>457.1</ele>
        <time>2022-02-20T22:37:36Z</time>
      </trkpt>
      <trkpt lat="43.71075" lon="6.044">
        <ele>456.4</ele>
        <time>2022-02-20T22:37:38Z</time>
      </trkpt>
      <trkpt lat="43.71074" lon="6.04397">
        <ele>456.4</ele>
        <time>2022-02-20T22:37:40Z</time>
      </trkpt>
      <trkpt lat="43.71072" lon="6.04384">
        <ele>456.7</ele>
        <time>2022-02-20T22:37:57Z</time>
      </trkpt>
      <trkpt lat="43.71076" lon="6.04372">
        <ele>457.8</ele>
        <time>2022-02-20T22:38:03Z</time>
      </trkpt>
      <trkpt lat="43.71077" lon="6.04362">
        <ele>458.4</ele>
        <time>2022-02-20T22:38:14Z</time>
      </trkpt>
      <trkpt lat="43.71072" lon="6.04358">
        <ele>457.8</ele>
        <time>2022-02-20T22:38:16Z</time>
      </trkpt>
      <trkpt lat="43.71066" lon="6.04356">
        <ele>456.7</ele>
        <time>2022-02-20T22:38:29Z</time>
      </trkpt>
      <trkpt lat="43.71033" lon="6.04328">
        <ele>451.8</ele>
        <time>2022-02-20T22:38:44Z</time>
      </trkpt>
      <trkpt lat="43.71018" lon="6.04312">
        <ele>450.9</ele>
        <time>2022-02-20T22:38:46Z</time>
      </trkpt>
      <trkpt lat="43.71008" lon="6.04302">
        <ele>450.3</ele>
        <time>2022-02-20T22:39:05Z</time>
      </trkpt>
      <trkpt lat="43.70992" lon="6.0427">
        <ele>449.9</ele>
        <time>2022-02-20T22:39:15Z</time>
      </trkpt>
      <trkpt lat="43.70978" lon="6.04252">
        <ele>447.3</ele>
        <time>2022-02-20T22:39:25Z</time>
      </trkpt>
      <trkpt lat="43.70957" lon="6.04264">
        <ele>438.4</ele>
        <time>2022-02-20T22:39:43Z</time>
      </trkpt>
      <trkpt lat="43.70926" lon="6.04266">
        <ele>427.5</ele>
        <time>2022-02-20T22:39:51Z</time>
      </trkpt>
      <trkpt lat="43.70892" lon="6.04281">
        <ele>418.5</ele>
        <time>2022-02-20T22:40:03Z</time>
      </trkpt>
      <trkpt lat="43.70841" lon="6.0429">
        <ele>409</ele>
        <time>2022-02-20T22:40:08Z</time>
      </trkpt>
      <trkpt lat="43.7081" lon="6.0433">
        <ele>404.3</ele>
        <time>2022-02-20T22:40:10Z</time>
      </trkpt>
      <trkpt lat="43.70784" lon="6.04349">
        <ele>402.7</ele>
        <time>2022-02-20T22:40:13Z</time>
      </trkpt>
      <trkpt lat="43.7075" lon="6.04381">
        <ele>400.9</ele>
        <time>2022-02-20T22:40:29Z</time>
      </trkpt>
      <trkpt lat="43.70716" lon="6.04396">
        <ele>398.9</ele>
        <time>2022-02-20T22:40:38Z</time>
      </trkpt>
      <trkpt lat="43.70687" lon="6.0442">
        <ele>396.7</ele>
        <time>2022-02-20T22:40:57Z</time>
      </trkpt>
      <trkpt lat="43.70658" lon="6.04431">
        <ele>394.8</ele>
        <time>2022-02-20T22:41:12Z</time>
      </trkpt>
      <trkpt lat="43.70618" lon="6.04442">
        <ele>393.4</ele>
        <time>2022-02-20T22:41:23Z</time>
      </trkpt>
      <trkpt lat="43.70587" lon="6.04449">
        <ele>392.2</ele>
        <time>2022-02-20T22:41:31Z</time>
      </trkpt>
      <trkpt lat="43.70567" lon="6.04457">
        <ele>390.9</ele>
        <time>2022-02-20T22:41:37Z</time>
      </trkpt>
      <trkpt lat="43.70535" lon="6.04473">
        <ele>388.5</ele>
        <time>2022-02-20T22:41:46Z</time>
      </trkpt>
      <trkpt lat="43.70513" lon="6.04493">
        <ele>386.5</ele>
        <time>2022-02-20T22:41:54Z</time>
      </trkpt>
      <trkpt lat="43.70477" lon="6.04516">
        <ele>385.4</ele>
        <time>2022-02-20T22:42:02Z</time>
      </trkpt>
      <trkpt lat="43.70454" lon="6.04534">
        <ele>385.4</ele>
        <time>2022-02-20T22:42:07Z</time>
      </trkpt>
      <trkpt lat="43.7042" lon="6.04539">
        <ele>383.6</ele>
        <time>2022-02-20T22:42:15Z</time>
      </trkpt>
      <trkpt lat="43.70374" lon="6.0455">
        <ele>382.2</ele>
        <time>2022-02-20T22:42:30Z</time>
      </trkpt>
      <trkpt lat="43.70327" lon="6.04564">
        <ele>380.4</ele>
        <time>2022-02-20T22:42:37Z</time>
      </trkpt>
      <trkpt lat="43.70307" lon="6.04575">
        <ele>379.3</ele>
        <time>2022-02-20T22:42:40Z</time>
      </trkpt>
      <trkpt lat="43.70265" lon="6.04614">
        <ele>377.7</ele>
        <time>2022-02-20T22:42:54Z</time>
      </trkpt>
      <trkpt lat="43.7027" lon="6.04572">
        <ele>377.1</ele>
        <time>2022-02-20T22:43:03Z</time>
      </trkpt>
      <trkpt lat="43.70281" lon="6.04525">
        <ele>377.1</ele>
        <time>2022-02-20T22:43:22Z</time>
      </trkpt>
      <trkpt lat="43.70288" lon="6.04495">
        <ele>377.3</ele>
        <time>2022-02-20T22:43:36Z</time>
      </trkpt>
      <trkpt lat="43.70285" lon="6.04442">
        <ele>377.5</ele>
        <time>2022-02-20T22:43:51Z</time>
      </trkpt>
      <trkpt lat="43.70288" lon="6.04408">
        <ele>377.7</ele>
        <time>2022-02-20T22:44:07Z</time>
      </trkpt>
      <trkpt lat="43.70289" lon="6.04392">
        <ele>377.6</ele>
        <time>2022-02-20T22:44:11Z</time>
      </trkpt>
      <trkpt lat="43.70279" lon="6.0435">
        <ele>376.4</ele>
        <time>2022-02-20T22:44:20Z</time>
      </trkpt>
      <trkpt lat="43.70265" lon="6.04314">
        <ele>375.1</ele>
        <time>2022-02-20T22:44:36Z</time>
      </trkpt>
      <trkpt lat="43.70252" lon="6.04274">
        <ele>374.8</ele>
        <time>2022-02-20T22:44:42Z</time>
      </trkpt>
      <trkpt lat="43.70255" lon="6.04226">
        <ele>375.1</ele>
        <time>2022-02-20T22:44:51Z</time>
      </trkpt>
      <trkpt lat="43.70238" lon="6.04207">
        <ele>374.6</ele>
        <time>2022-02-20T22:45:09Z</time>
      </trkpt>
      <trkpt lat="43.70242" lon="6.04179">
        <ele>374.8</ele>
        <time>2022-02-20T22:45:15Z</time>
      </trkpt>
      <trkpt lat="43.70239" lon="6.04149">
        <ele>375</ele>
        <time>2022-02-20T22:45:27Z</time>
      </trkpt>
      <trkpt lat="43.70222" lon="6.04131">
        <ele>375.1</ele>
        <time>2022-02-20T22:45:32Z</time>
      </trkpt>
      <trkpt lat="43.70202" lon="6.0411">
        <ele>375.3</ele>
        <time>2022-02-20T22:45:50Z</time>
      </trkpt>
      <trkpt lat="43.70198" lon="6.04059">
        <ele>377.9</ele>
        <time>2022-02-20T22:46:00Z</time>
      </trkpt>
      <trkpt lat="43.70221" lon="6.04034">
        <ele>379.2</ele>
        <time>2022-02-20T22:46:17Z</time>
      </trkpt>
      <trkpt lat="43.70248" lon="6.04004">
        <ele>379.9</ele>
        <time>2022-02-20T22:46:26Z</time>
      </trkpt>
      <trkpt lat="43.70266" lon="6.03988">
        <ele>381.3</ele>
        <time>2022-02-20T22:46:35Z</time>
      </trkpt>
      <trkpt lat="43.70245" lon="6.03961">
        <ele>383</ele>
        <time>2022-02-20T22:46:38Z</time>
      </trkpt>
      <trkpt lat="43.7023" lon="6.03938">
        <ele>385.3</ele>
        <time>2022-02-20T22:46:51Z</time>
      </trkpt>
      <trkpt lat="43.70213" lon="6.0391">
        <ele>387.7</ele>
        <time>2022-02-20T22:47:00Z</time>
      </trkpt>
      <trkpt lat="43.70198" lon="6.03901">
        <ele>388.6</ele>
        <time>2022-02-20T22:47:04Z</time>
      </trkpt>
      <trkpt lat="43.70185" lon="6.03904">
        <ele>388.8</ele>
        <time>2022-02-20T22:47:23Z</time>
      </trkpt>
      <trkpt lat="43.70166" lon="6.03916">
        <ele>389</ele>
        <time>2022-02-20T22:47:40Z</time>
      </trkpt>
      <trkpt lat="43.70151" lon="6.03921">
        <ele>388.2</ele>
        <time>2022-02-20T22:47:47Z</time>
      </trkpt>
      <trkpt lat="43.70151" lon="6.03918">
        <ele>388.4</ele>
        <time>2022-02-20T22:47:50Z</time>
      </trkpt>
      <trkpt lat="43.70174" lon="6.03881">
        <ele>390.1</ele>
        <time>2022-02-20T22:47:57Z</time>
      </trkpt>
      <trkpt lat="43.70185" lon="6.03861">
        <ele>390.5</ele>
        <time>2022-02-20T22:48:01Z</time>
      </trkpt>
      <trkpt lat="43.70187" lon="6.03843">
        <ele>391.2</ele>
        <time>2022-02-20T22:48:10Z</time>
      </trkpt>
      <trkpt lat="43.70186" lon="6.03834">
        <ele>391.5</ele>
        <time>2022-02-20T22:48:12Z</time>
      </trkpt>
      <trkpt lat="43.70158" lon="6.03785">
        <ele>393.3</ele>
        <time>2022-02-20T22:48:22Z</time>
      </trkpt>
      <trkpt lat="43.70148" lon="6.03759">
        <ele>393.8</ele>
        <time>2022-02-20T22:48:41Z</time>
      </trkpt>
      <trkpt lat="43.7014" lon="6.03723">
        <ele>394.9</ele>
        <time>2022-02-20T22:48:54Z</time>
      </trkpt>
      <trkpt lat="43.70137" lon="6.03697">
        <ele>395.9</ele>
        <time>2022-02-20T22:49:06Z</time>
      </trkpt>
      <trkpt lat="43.70153" lon="6.03645">
        <ele>399.3</ele>
        <time>2022-02-20T22:49:18Z</time>
      </trkpt>
      <trkpt lat="43.70165" lon="6.03606">
        <ele>401.9</ele>
        <time>2022-02-20T22:49:31Z</time>
      </trkpt>
      <trkpt lat="43.70174" lon="6.03578">
        <ele>403.9</ele>
        <time>2022-02-20T22:49:34Z</time>
      </trkpt>
      <trkpt lat="43.70176" lon="6.03556">
        <ele>405.3</ele>
        <time>2022-02-20T22:49:42Z</time>
      </trkpt>
      <trkpt lat="43.70168" lon="6.03539">
        <ele>405.7</ele>
        <time>2022-02-20T22:49:46Z</time>
      </trkpt>
      <trkpt lat="43.70168" lon="6.03538">
        <ele>405.8</ele>
        <time>2022-02-20T22:50:05Z</time>
      </trkpt>
      <trkpt lat="43.70161" lon="6.03532">
        <ele>405.9</ele>
        <time>2022-02-20T22:50:22Z</time>
      </trkpt>
      <trkpt lat="43.70154" lon="6.03523">
        <ele>406.1</ele>
        <time>2022-02-20T22:50:31Z</time>
      </trkpt>
      <trkpt lat="43.70147" lon="6.03514">
        <ele>406.3</ele>
        <time>2022-02-20T22:50:41Z</time>
      </trkpt>
      <trkpt lat="43.70135" lon="6.0351">
        <ele>405.9</ele>
        <time>2022-02-20T22:51:00Z</time>
      </trkpt>
      <trkpt lat="43.701" lon="6.03485">
        <ele>405.8</ele>
        <time>2022-02-20T22:51:10Z</time>
      </trkpt>
      <trkpt lat="43.70082" lon="6.03473">
        <ele>405.6</ele>
        <time>2022-02-20T22:51:25Z</time>
      </trkpt>
      <trkpt lat="43.70053" lon="6.03451">
        <ele>406.3</ele>
        <time>2022-02-20T22:51:38Z</time>
      </trkpt>
      <trkpt lat="43.70036" lon="6.03437">
        <ele>407</ele>
        <time>2022-02-20T22:51:54Z</time>
      </trkpt>
      <trkpt lat="43.70016" lon="6.0342">
        <ele>408</ele>
        <time>2022-02-20T22:52:05Z</time>
      </trkpt>
      <trkpt lat="43.70006" lon="6.03408">
        <ele>409.7</ele>
        <time>2022-02-20T22:52:20Z</time>
      </trkpt>
      <trkpt lat="43.70006" lon="6.03398">
        <ele>411.5</ele>
        <time>2022-02-20T22:52:35Z</time>
      </trkpt>
      <trkpt lat="43.70009" lon="6.03391">
        <ele>412.6</ele>
        <time>2022-02-20T22:52:42Z</time>
      </trkpt>
      <trkpt lat="43.7004" lon="6.03363">
        <ele>416.3</ele>
        <time>2022-02-20T22:52:57Z</time>
      </trkpt>
      <trkpt lat="43.70063" lon="6.03342">
        <ele>418.1</ele>
        <time>2022-02-20T22:53:01Z</time>
      </trkpt>
      <trkpt lat="43.70088" lon="6.03322">
        <ele>420.4</ele>
        <time>2022-02-20T22:53:05Z</time>
      </trkpt>
      <trkpt lat="43.70112" lon="6.03298">
        <ele>426.4</ele>
        <time>2022-02-20T22:53:17Z</time>
      </trkpt>
      <trkpt lat="43.70139" lon="6.03267">
        <ele>433.1</ele>
        <time>2022-02-20T22:53:34Z</time>
      </trkpt>
      <trkpt lat="43.70154" lon="6.03244">
        <ele>437.3</ele>
        <time>2022-02-20T22:53:39Z</time>
      </trkpt>
      <trkpt lat="43.70163" lon="6.03228">
        <ele>439.9</ele>
        <time>2022-02-20T22:53:51Z</time>
      </trkpt>
      <trkpt lat="43.70168" lon="6.03211">
        <ele>442.4</ele>
        <time>2022-02-20T22:54:09Z</time>
      </trkpt>
      <trkpt lat="43.70189" lon="6.03182">
        <ele>448.8</ele>
        <time>2022-02-20T22:54:15Z</time>
      </trkpt>
      <trkpt lat="43.70208" lon="6.03166">
        <ele>453.4</ele>
        <time>2022-02-20T22:54:24Z</time>
      </trkpt>
      <trkpt lat="43.70216" lon="6.0316">
        <ele>455.6</ele>
        <time>2022-02-20T22:54:41Z</time>
      </trkpt>
      <trkpt lat="43.70228" lon="6.03156">
        <ele>458.2</ele>
        <time>2022-02-20T22:54:45Z</time>
      </trkpt>
      <trkpt lat="43.70235" lon="6.03153">
        <ele>459.5</ele>
        <time>2022-02-20T22:54:59Z</time>
      </trkpt>
      <trkpt lat="43.70236" lon="6.03154">
        <ele>459.2</ele>
        <time>2022-02-20T22:55:15Z</time>
      </trkpt>
      <trkpt lat="43.70245" lon="6.03149">
        <ele>461.3</ele>
        <time>2022-02-20T22:55:22Z</time>
      </trkpt>
      <trkpt lat="43.70257" lon="6.03151">
        <ele>462</ele>
        <time>2022-02-20T22:55:25Z</time>
      </trkpt>
      <trkpt lat="43.70264" lon="6.03151">
        <ele>462.7</ele>
        <time>2022-02-20T22:55:41Z</time>
      </trkpt>
      <trkpt lat="43.70266" lon="6.03151">
        <ele>463.1</ele>
        <time>2022-02-20T22:55:58Z</time>
      </trkpt>
      <trkpt lat="43.70267" lon="6.03144">
        <ele>464.6</ele>
        <time>2022-02-20T22:56:07Z</time>
      </trkpt>
      <trkpt lat="43.70265" lon="6.03137">
        <ele>465.7</ele>
        <time>2022-02-20T22:56:15Z</time>
      </trkpt>
      <trkpt lat="43.70266" lon="6.03123">
        <ele>468.8</ele>
        <time>2022-02-20T22:56:35Z</time>
      </trkpt>
      <trkpt lat="43.70265" lon="6.03118">
        <ele>469.8</ele>
        <time>2022-02-20T22:56:53Z</time>
      </trkpt>
      <trkpt lat="43.70267" lon="6.03107">
        <ele>472</ele>
        <time>2022-02-20T22:57:02Z</time>
      </trkpt>
      <trkpt lat="43.70268" lon="6.03103">
        <ele>472.9</ele>
        <time>2022-02-20T22:57:05Z</time>
      </trkpt>
      <trkpt lat="43.70267" lon="6.03099">
        <ele>473.7</ele>
        <time>2022-02-20T22:57:07Z</time>
      </trkpt>
      <trkpt lat="43.70268" lon="6.03095">
        <ele>474.5</ele>
        <time>2022-02-20T22:57:13Z</time>
      </trkpt>
      <trkpt lat="43.70267" lon="6.0309">
        <ele>475.5</ele>
        <time>2022-02-20T22:57:27Z</time>
      </trkpt>
      <trkpt lat="43.70267" lon="6.03087">
        <ele>476.3</ele>
        <time>2022-02-20T22:57:46Z</time>
      </trkpt>
      <trkpt lat="43.70265" lon="6.0308">
        <ele>478.2</ele>
        <time>2022-02-20T22:57:50Z</time>
      </trkpt>
      <trkpt lat="43.70251" lon="6.03053">
        <ele>487.5</ele>
        <time>2022-02-20T22:58:05Z</time>
      </trkpt>
      <trkpt lat="43.70248" lon="6.03048">
        <ele>488.9</ele>
        <time>2022-02-20T22:58:15Z</time>
      </trkpt>
      <trkpt lat="43.70245" lon="6.03046">
        <ele>490</ele>
        <time>2022-02-20T22:58:26Z</time>
      </trkpt>
      <trkpt lat="43.7024" lon="6.03038">
        <ele>493</ele>
        <time>2022-02-20T22:58:34Z</time>
      </trkpt>
      <trkpt lat="43.70239" lon="6.03033">
        <ele>495.1</ele>
        <time>2022-02-20T22:58:44Z</time>
      </trkpt>
      <trkpt lat="43.70236" lon="6.03031">
        <ele>496.1</ele>
        <time>2022-02-20T22:58:52Z</time>
      </trkpt>
      <trkpt lat="43.70227" lon="6.0303">
        <ele>496.1</ele>
        <time>2022-02-20T22:59:03Z</time>
      </trkpt>
      <trkpt lat="43.70218" lon="6.03034">
        <ele>495</ele>
        <time>2022-02-20T22:59:23Z</time>
      </trkpt>
      <trkpt lat="43.7021" lon="6.03029">
        <ele>496.5</ele>
        <time>2022-02-20T22:59:32Z</time>
      </trkpt>
      <trkpt lat="43.70206" lon="6.03029">
        <ele>496.5</ele>
        <time>2022-02-20T22:59:35Z</time>
      </trkpt>
      <trkpt lat="43.70192" lon="6.03038">
        <ele>493</ele>
        <time>2022-02-20T22:59:48Z</time>
      </trkpt>
      <trkpt lat="43.70181" lon="6.03035">
        <ele>493.9</ele>
        <time>2022-02-20T23:00:06Z</time>
      </trkpt>
      <trkpt lat="43.7017" lon="6.03042">
        <ele>491.5</ele>
        <time>2022-02-20T23:00:18Z</time>
      </trkpt>
      <trkpt lat="43.70166" lon="6.03043">
        <ele>491.6</ele>
        <time>2022-02-20T23:00:25Z</time>
      </trkpt>
      <trkpt lat="43.70153" lon="6.03052">
        <ele>491</ele>
        <time>2022-02-20T23:00:40Z</time>
      </trkpt>
      <trkpt lat="43.70136" lon="6.03063">
        <ele>490.7</ele>
        <time>2022-02-20T23:01:00Z</time>
      </trkpt>
      <trkpt lat="43.70133" lon="6.03063">
        <ele>491.5</ele>
        <time>2022-02-20T23:01:04Z</time>
      </trkpt>
      <trkpt lat="43.7013" lon="6.0306">
        <ele>493.3</ele>
        <time>2022-02-20T23:01:22Z</time>
      </trkpt>
      <trkpt lat="43.70129" lon="6.03031">
        <ele>503.1</ele>
        <time>2022-02-20T23:01:38Z</time>
      </trkpt>
      <trkpt lat="43.70128" lon="6.03027">
        <ele>504.5</ele>
        <time>2022-02-20T23:01:57Z</time>
      </trkpt>
      <trkpt lat="43.70128" lon="6.03024">
        <ele>505.4</ele>
        <time>2022-02-20T23:02:13Z</time>
      </trkpt>
      <trkpt lat="43.70122" lon="6.0301">
        <ele>511</ele>
        <time>2022-02-20T23:02:16Z</time>
      </trkpt>
      <trkpt lat="43.701" lon="6.02983">
        <ele>519.3</ele>
        <time>2022-02-20T23:02:34Z</time>
      </trkpt>
      <trkpt lat="43.70098" lon="6.02977">
        <ele>520.3</ele>
        <time>2022-02-20T23:02:42Z</time>
      </trkpt>
      <trkpt lat="43.70103" lon="6.02969">
        <ele>520.7</ele>
        <time>2022-02-20T23:02:52Z</time>
      </trkpt>
      <trkpt lat="43.7012" lon="6.02961">
        <ele>521</ele>
        <time>2022-02-20T23:03:11Z</time>
      </trkpt>
      <trkpt lat="43.7014" lon="6.02952">
        <ele>521.7</ele>
        <time>2022-02-20T23:03:23Z</time>
      </trkpt>
      <trkpt lat="43.70162" lon="6.02948">
        <ele>522.1</ele>
        <time>2022-02-20T23:03:34Z</time>
      </trkpt>
      <trkpt lat="43.70187" lon="6.0294">
        <ele>524.7</ele>
        <time>2022-02-20T23:03:52Z</time>
      </trkpt>
      <trkpt lat="43.70204" lon="6.02923">
        <ele>529.2</ele>
        <time>2022-02-20T23:04:07Z</time>
      </trkpt>
      <trkpt lat="43.70224" lon="6.02913">
        <ele>531.3</ele>
        <time>2022-02-20T23:04:23Z</time>
      </trkpt>
      <trkpt lat="43.70261" lon="6.02897">
        <ele>532.3</ele>
        <time>2022-02-20T23:04:36Z</time>
      </trkpt>
      <trkpt lat="43.70283" lon="6.02887">
        <ele>532.5</ele>
        <time>2022-02-20T23:04:39Z</time>
      </trkpt>
      <trkpt lat="43.70306" lon="6.02876">
        <ele>533</ele>
        <time>2022-02-20T23:04:57Z</time>
      </trkpt>
      <trkpt lat="43.70329" lon="6.02869">
        <ele>533.1</ele>
        <time>2022-02-20T23:05:10Z</time>
      </trkpt>
      <trkpt lat="43.70358" lon="6.02869">
        <ele>534.3</ele>
        <time>2022-02-20T23:05:26Z</time>
      </trkpt>
      <trkpt lat="43.7039" lon="6.02872">
        <ele>535.7</ele>
        <time>2022-02-20T23:05:39Z</time>
      </trkpt>
      <trkpt lat="43.70409" lon="6.02865">
        <ele>536.9</ele>
        <time>2022-02-20T23:05:42Z</time>
      </trkpt>
      <trkpt lat="43.70434" lon="6.02845">
        <ele>538.4</ele>
        <time>2022-02-20T23:05:53Z</time>
      </trkpt>
      <trkpt lat="43.70475" lon="6.0279">
        <ele>540.1</ele>
        <time>2022-02-20T23:06:11Z</time>
      </trkpt>
      <trkpt lat="43.70479" lon="6.02787">
        <ele>540.2</ele>
        <time>2022-02-20T23:06:27Z</time>
      </trkpt>
      <trkpt lat="43.70495" lon="6.02782">
        <ele>540.8</ele>
        <time>2022-02-20T23:06:31Z</time>
      </trkpt>
      <trkpt lat="43.7052" lon="6.02765">
        <ele>541</ele>
        <time>2022-02-20T23:06:44Z</time>
      </trkpt>
      <trkpt lat="43.70524" lon="6.02762">
        <ele>541</ele>
        <time>2022-02-20T23:06:48Z</time>
      </trkpt>
      <trkpt lat="43.70543" lon="6.02757">
        <ele>541</ele>
        <time>2022-02-20T23:06:52Z</time>
      </trkpt>
      <trkpt lat="43.70582" lon="6.02753">
        <ele>541</ele>
        <time>2022-02-20T23:07:10Z</time>
      </trkpt>
      <trkpt lat="43.70615" lon="6.02759">
        <ele>541.4</ele>
        <time>2022-02-20T23:07:24Z</time>
      </trkpt>
      <trkpt lat="43.70619" lon="6.02763">
        <ele>541.4</ele>
        <time>2022-02-20T23:07:30Z</time>
      </trkpt>
      <trkpt lat="43.70616" lon="6.02755">
        <ele>541.4</ele>
        <time>2022-02-20T23:07:44Z</time>
      </trkpt>
      <trkpt lat="43.70623" lon="6.02748">
        <ele>541.5</ele>
        <time>2022-02-20T23:08:01Z</time>
      </trkpt>
      <trkpt lat="43.70643" lon="6.02732">
        <ele>541.8</ele>
        <time>2022-02-20T23:08:18Z</time>
      </trkpt>
      <trkpt lat="43.70673" lon="6.02704">
        <ele>542</ele>
        <time>2022-02-20T23:08:26Z</time>
      </trkpt>
      <trkpt lat="43.70705" lon="6.02684">
        <ele>542.1</ele>
        <time>2022-02-20T23:08:37Z</time>
      </trkpt>
      <trkpt lat="43.70723" lon="6.02674">
        <ele>542.1</ele>
        <time>2022-02-20T23:08:39Z</time>
      </trkpt>
      <trkpt lat="43.7075" lon="6.02667">
        <ele>542</ele>
        <time>2022-02-20T23:08:45Z</time>
      </trkpt>
      <trkpt lat="43.70774" lon="6.02669">
        <ele>542</ele>
        <time>2022-02-20T23:08:50Z</time>
      </trkpt>
      <trkpt lat="43.70809" lon="6.02661">
        <ele>542.1</ele>
        <time>2022-02-20T23:08:58Z</time>
      </trkpt>
      <trkpt lat="43.70838" lon="6.02649">
        <ele>542.5</ele>
        <time>2022-02-20T23:09:09Z</time>
      </trkpt>
      <trkpt lat="43.70862" lon="6.02634">
        <ele>543.5</ele>
        <time>2022-02-20T23:09:27Z</time>
      </trkpt>
      <trkpt lat="43.70883" lon="6.02625">
        <ele>544.2</ele>
        <time>2022-02-20T23:09:47Z</time>
      </trkpt>
      <trkpt lat="43.70904" lon="6.02614">
        <ele>545</ele>
        <time>2022-02-20T23:10:01Z</time>
      </trkpt>
      <trkpt lat="43.70924" lon="6.02604">
        <ele>545.4</ele>
        <time>2022-02-20T23:10:06Z</time>
      </trkpt>
      <trkpt lat="43.70977" lon="6.0257">
        <ele>545.1</ele>
        <time>2022-02-20T23:10:18Z</time>
      </trkpt>
      <trkpt lat="43.7102" lon="6.02542">
        <ele>544.6</ele>
        <time>2022-02-20T23:10:28Z</time>
      </trkpt>
      <trkpt lat="43.71057" lon="6.02514">
        <ele>544.2</ele>
        <time>2022-02-20T23:10:44Z</time>
      </trkpt>
      <trkpt lat="43.711" lon="6.02485">
        <ele>544.1</ele>
        <time>2022-02-20T23:11:02Z</time>
      </trkpt>
      <trkpt lat="43.71127" lon="6.02451">
        <ele>544.1</ele>
        <time>2022-02-20T23:11:08Z</time>
      </trkpt>
      <trkpt lat="43.7115" lon="6.02413">
        <ele>543.8</ele>
        <time>2022-02-20T23:11:17Z</time>
      </trkpt>
      <trkpt lat="43.71185" lon="6.02373">
        <ele>543.1</ele>
        <time>2022-02-20T23:11:37Z</time>
      </trkpt>
      <trkpt lat="43.71223" lon="6.02332">
        <ele>542.7</ele>
        <time>2022-02-20T23:11:48Z</time>
      </trkpt>
      <trkpt lat="43.71246" lon="6.0231">
        <ele>542.6</ele>
        <time>2022-02-20T23:12:05Z</time>
      </trkpt>
      <trkpt lat="43.71307" lon="6.02261">
        <ele>542</ele>
        <time>2022-02-20T23:12:07Z</time>
      </trkpt>
      <trkpt lat="43.71363" lon="6.0222">
        <ele>542.2</ele>
        <time>2022-02-20T23:12:16Z</time>
      </trkpt>
      <trkpt lat="43.71422" lon="6.02174">
        <ele>543.1</ele>
        <time>2022-02-20T23:12:21Z</time>
      </trkpt>
      <trkpt lat="43.71438" lon="6.02162">
        <ele>543.6</ele>
        <time>2022-02-20T23:12:24Z</time>
      </trkpt>
      <trkpt lat="43.71455" lon="6.02137">
        <ele>544.5</ele>
        <time>2022-02-20T23:12:31Z</time>
      </trkpt>
      <trkpt lat="43.71488" lon="6.02068">
        <ele>545.9</ele>
        <time>2022-02-20T23:12:33Z</time>
      </trkpt>
      <trkpt lat="43.71518" lon="6.0201">
        <ele>545.6</ele>
        <time>2022-02-20T23:12:52Z</time>
      </trkpt>
      <trkpt lat="43.71549" lon="6.01966">
        <ele>544.6</ele>
        <time>2022-02-20T23:13:07Z</time>
      </trkpt>
      <trkpt lat="43.7159" lon="6.01922">
        <ele>543.9</ele>
        <time>2022-02-20T23:13:22Z</time>
      </trkpt>
      <trkpt lat="43.71641" lon="6.01871">
        <ele>543</ele>
        <time>2022-02-20T23:13:24Z</time>
      </trkpt>
      <trkpt lat="43.71698" lon="6.01815">
        <ele>541.6</ele>
        <time>2022-02-20T23:13:44Z</time>
      </trkpt>
      <trkpt lat="43.71764" lon="6.0175">
        <ele>539</ele>
        <time>2022-02-20T23:14:04Z</time>
      </trkpt>
      <trkpt lat="43.71792" lon="6.0172">
        <ele>539.5</ele>
        <time>2022-02-20T23:14:20Z</time>
      </trkpt>
      <trkpt lat="43.71824" lon="6.01679">
        <ele>540</ele>
        <time>2022-02-20T23:14:24Z</time>
      </trkpt>
      <trkpt lat="43.71832" lon="6.01662">
        <ele>540.1</ele>
        <time>2022-02-20T23:14:43Z</time>
      </trkpt>
      <trkpt lat="43.71829" lon="6.0164">
        <ele>540.7</ele>
        <time>2022-02-20T23:15:02Z</time>
      </trkpt>
      <trkpt lat="43.71839" lon="6.0163">
        <ele>540.7</ele>
        <time>2022-02-20T23:15:05Z</time>
      </trkpt>
      <trkpt lat="43.71854" lon="6.01602">
        <ele>540.5</ele>
        <time>2022-02-20T23:15:23Z</time>
      </trkpt>
      <trkpt lat="43.71879" lon="6.01568">
        <ele>539.2</ele>
        <time>2022-02-20T23:15:42Z</time>
      </trkpt>
      <trkpt lat="43.71896" lon="6.01532">
        <ele>538.1</ele>
        <time>2022-02-20T23:15:52Z</time>
      </trkpt>
      <trkpt lat="43.71916" lon="6.01489">
        <ele>537.2</ele>
        <time>2022-02-20T23:16:09Z</time>
      </trkpt>
      <trkpt lat="43.71927" lon="6.01467">
        <ele>537.7</ele>
        <time>2022-02-20T23:16:29Z</time>
      </trkpt>
      <trkpt lat="43.71954" lon="6.0142">
        <ele>538.9</ele>
        <time>2022-02-20T23:16:36Z</time>
      </trkpt>
      <trkpt lat="43.71971" lon="6.01392">
        <ele>539.5</ele>
        <time>2022-02-20T23:16:53Z</time>
      </trkpt>
      <trkpt lat="43.71996" lon="6.01347">
        <ele>540</ele>
        <time>2022-02-20T23:17:07Z</time>
      </trkpt>
      <trkpt lat="43.72021" lon="6.013">
        <ele>540.5</ele>
        <time>2022-02-20T23:17:15Z</time>
      </trkpt>
      <trkpt lat="43.72045" lon="6.01267">
        <ele>541.2</ele>
        <time>2022-02-20T23:17:21Z</time>
      </trkpt>
      <trkpt lat="43.72105" lon="6.01196">
        <ele>542.7</ele>
        <time>2022-02-20T23:17:29Z</time>
      </trkpt>
      <trkpt lat="43.72129" lon="6.01166">
        <ele>543.6</ele>
        <time>2022-02-20T23:17:41Z</time>
      </trkpt>
      <trkpt lat="43.72165" lon="6.01125">
        <ele>543.4</ele>
        <time>2022-02-20T23:17:52Z</time>
      </trkpt>
      <trkpt lat="43.72215" lon="6.01062">
        <ele>541.8</ele>
        <time>2022-02-20T23:17:54Z</time>
      </trkpt>
      <trkpt lat="43.72237" lon="6.0102">
        <ele>543</ele>
        <time>2022-02-20T23:18:14Z</time>
      </trkpt>
      <trkpt lat="43.72256" lon="6.00984">
        <ele>543.6</ele>
        <time>2022-02-20T23:18:24Z</time>
      </trkpt>
      <trkpt lat="43.72293" lon="6.00923">
        <ele>542.6</ele>
        <time>2022-02-20T23:18:44Z</time>
      </trkpt>
      <trkpt lat="43.72331" lon="6.00871">
        <ele>543.5</ele>
        <time>2022-02-20T23:18:52Z</time>
      </trkpt>
      <trkpt lat="43.72362" lon="6.00821">
        <ele>544.2</ele>
        <time>2022-02-20T23:19:01Z</time>
      </trkpt>
      <trkpt lat="43.72393" lon="6.00764">
        <ele>544.5</ele>
        <time>2022-02-20T23:19:14Z</time>
      </trkpt>
      <trkpt lat="43.72425" lon="6.00705">
        <ele>543.2</ele>
        <time>2022-02-20T23:19:34Z</time>
      </trkpt>
      <trkpt lat="43.72462" lon="6.00652">
        <ele>540.8</ele>
        <time>2022-02-20T23:19:37Z</time>
      </trkpt>
      <trkpt lat="43.72495" lon="6.00591">
        <ele>540.1</ele>
        <time>2022-02-20T23:19:44Z</time>
      </trkpt>
      <trkpt lat="43.72531" lon="6.00542">
        <ele>540.2</ele>
        <time>2022-02-20T23:19:58Z</time>
      </trkpt>
      <trkpt lat="43.72558" lon="6.00472">
        <ele>540.2</ele>
        <time>2022-02-20T23:20:07Z</time>
      </trkpt>
      <trkpt lat="43.726" lon="6.00357">
        <ele>540</ele>
        <time>2022-02-20T23:20:15Z</time>
      </trkpt>
      <trkpt lat="43.72627" lon="6.00279">
        <ele>539.6</ele>
        <time>2022-02-20T23:20:27Z</time>
      </trkpt>
      <trkpt lat="43.72666" lon="6.00171">
        <ele>540.9</ele>
        <time>2022-02-20T23:20:39Z</time>
      </trkpt>
      <trkpt lat="43.7269" lon="6.00145">
        <ele>540.4</ele>
        <time>2022-02-20T23:20:58Z</time>
      </trkpt>
      <trkpt lat="43.7267" lon="6.00109">
        <ele>539.6</ele>
        <time>2022-02-20T23:21:10Z</time>
      </trkpt>
      <trkpt lat="43.72651" lon="6.00067">
        <ele>538.6</ele>
        <time>2022-02-20T23:21:29Z</time>
      </trkpt>
      <trkpt lat="43.72671" lon="6.00033">
        <ele>537.8</ele>
        <time>2022-02-20T23:21:40Z</time>
      </trkpt>
      <trkpt lat="43.72651" lon="6.00012">
        <ele>537.1</ele>
        <time>2022-02-20T23:21:55Z</time>
      </trkpt>
      <trkpt lat="43.72621" lon="5.99981">
        <ele>536.3</ele>
        <time>2022-02-20T23:21:58Z</time>
      </trkpt>
      <trkpt lat="43.72595" lon="5.99961">
        <ele>536.1</ele>
        <time>2022-02-20T23:22:13Z</time>
      </trkpt>
      <trkpt lat="43.72607" lon="5.99925">
        <ele>536</ele>
        <time>2022-02-20T23:22:20Z</time>
      </trkpt>
      <trkpt lat="43.72623" lon="5.9989">
        <ele>535</ele>
        <time>2022-02-20T23:22:30Z</time>
      </trkpt>
      <trkpt lat="43.7264" lon="5.99838">
        <ele>533.5</ele>
        <time>2022-02-20T23:22:47Z</time>
      </trkpt>
      <trkpt lat="43.72663" lon="5.99794">
        <ele>533</ele>
        <time>2022-02-20T23:22:57Z</time>
      </trkpt>
      <trkpt lat="43.72664" lon="5.99768">
        <ele>532.4</ele>
        <time>2022-02-20T23:23:15Z</time>
      </trkpt>
      <trkpt lat="43.72673" lon="5.99737">
        <ele>531.9</ele>
        <time>2022-02-20T23:23:26Z</time>
      </trkpt>
      <trkpt lat="43.72701" lon="5.99732">
        <ele>531.9</ele>
        <time>2022-02-20T23:23:28Z</time>
      </trkpt>
      <trkpt lat="43.72721" lon="5.9971">
        <ele>531.8</ele>
        <time>2022-02-20T23:23:34Z</time>
      </trkpt>
      <trkpt lat="43.72749" lon="5.99676">
        <ele>532</ele>
        <time>2022-02-20T23:23:51Z</time>
      </trkpt>
      <trkpt lat="43.7278" lon="5.99674">
        <ele>533.1</ele>
        <time>2022-02-20T23:24:07Z</time>
      </trkpt>
      <trkpt lat="43.72808" lon="5.99654">
        <ele>534.1</ele>
        <time>2022-02-20T23:24:27Z</time>
      </trkpt>
      <trkpt lat="43.72841" lon="5.99674">
        <ele>534.9</ele>
        <time>2022-02-20T23:24:34Z</time>
      </trkpt>
      <trkpt lat="43.72877" lon="5.99688">
        <ele>535.1</ele>
        <time>2022-02-20T23:24:53Z</time>
      </trkpt>
      <trkpt lat="43.72914" lon="5.99711">
        <ele>536</ele>
        <time>2022-02-20T23:25:04Z</time>
      </trkpt>
      <trkpt lat="43.72933" lon="5.99667">
        <ele>535</ele>
        <time>2022-02-20T23:25:21Z</time>
      </trkpt>
      <trkpt lat="43.72953" lon="5.99581">
        <ele>535.1</ele>
        <time>2022-02-20T23:25:41Z</time>
      </trkpt>
      <trkpt lat="43.72981" lon="5.99518">
        <ele>534.3</ele>
        <time>2022-02-20T23:25:57Z</time>
      </trkpt>
      <trkpt lat="43.73" lon="5.99462">
        <ele>534.4</ele>
        <time>2022-02-20T23:26:17Z</time>
      </trkpt>
      <trkpt lat="43.73011" lon="5.99411">
        <ele>534.2</ele>
        <time>2022-02-20T23:26:34Z</time>
      </trkpt>
      <trkpt lat="43.73036" lon="5.99344">
        <ele>533.8</ele>
        <time>2022-02-20T23:26:41Z</time>
      </trkpt>
      <trkpt lat="43.73046" lon="5.99304">
        <ele>534.4</ele>
        <time>2022-02-20T23:27:00Z</time>
      </trkpt>
      <trkpt lat="43.73061" lon="5.99259">
        <ele>535.3</ele>
        <time>2022-02-20T23:27:03Z</time>
      </trkpt>
      <trkpt lat="43.73078" lon="5.99225">
        <ele>534.7</ele>
        <time>2022-02-20T23:27:10Z</time>
      </trkpt>
      <trkpt lat="43.73087" lon="5.99192">
        <ele>533</ele>
        <time>2022-02-20T23:27:13Z</time>
      </trkpt>
      <trkpt lat="43.73099" lon="5.99171">
        <ele>531.6</ele>
        <time>2022-02-20T23:27:28Z</time>
      </trkpt>
      <trkpt lat="43.73115" lon="5.99121">
        <ele>528.1</ele>
        <time>2022-02-20T23:27:34Z</time>
      </trkpt>
      <trkpt lat="43.73117" lon="5.99093">
        <ele>526.1</ele>
        <time>2022-02-20T23:27:47Z</time>
      </trkpt>
      <trkpt lat="43.73128" lon="5.99047">
        <ele>523.9</ele>
        <time>2022-02-20T23:28:00Z</time>
      </trkpt>
      <trkpt lat="43.73163" lon="5.98983">
        <ele>520.4</ele>
        <time>2022-02-20T23:28:11Z</time>
      </trkpt>
      <trkpt lat="43.73176" lon="5.98968">
        <ele>518.8</ele>
        <time>2022-02-20T23:28:29Z</time>
      </trkpt>
      <trkpt lat="43.73179" lon="5.98968">
        <ele>518.3</ele>
        <time>2022-02-20T23:28:46Z</time>
      </trkpt>
      <trkpt lat="43.73178" lon="5.98969">
        <ele>518.4</ele>
        <time>2022-02-20T23:28:59Z</time>
      </trkpt>
      <trkpt lat="43.73187" lon="5.98974">
        <ele>516.3</ele>
        <time>2022-02-20T23:29:05Z</time>
      </trkpt>
      <trkpt lat="43.7322" lon="5.98971">
        <ele>509.4</ele>
        <time>2022-02-20T23:29:25Z</time>
      </trkpt>
      <trkpt lat="43.73253" lon="5.9896">
        <ele>502</ele>
        <time>2022-02-20T23:29:27Z</time>
      </trkpt>
      <trkpt lat="43.73271" lon="5.98947">
        <ele>496.6</ele>
        <time>2022-02-20T23:29:38Z</time>
      </trkpt>
      <trkpt lat="43.73302" lon="5.98903">
        <ele>489</ele>
        <time>2022-02-20T23:29:42Z</time>
      </trkpt>
      <trkpt lat="43.73321" lon="5.98876">
        <ele>486.1</ele>
        <time>2022-02-20T23:29:59Z</time>
      </trkpt>
      <trkpt lat="43.73347" lon="5.98838">
        <ele>483.2</ele>
        <time>2022-02-20T23:30:19Z</time>
      </trkpt>
      <trkpt lat="43.73379" lon="5.9881">
        <ele>477.6</ele>
        <time>2022-02-20T23:30:38Z</time>
      </trkpt>
      <trkpt lat="43.73416" lon="5.98786">
        <ele>471.9</ele>
        <time>2022-02-20T23:30:54Z</time>
      </trkpt>
      <trkpt lat="43.73453" lon="5.98766">
        <ele>465.7</ele>
        <time>2022-02-20T23:31:06Z</time>
      </trkpt>
      <trkpt lat="43.73474" lon="5.98761">
        <ele>461.4</ele>
        <time>2022-02-20T23:31:10Z</time>
      </trkpt>
      <trkpt lat="43.73519" lon="5.98736">
        <ele>453.4</ele>
        <time>2022-02-20T23:31:15Z</time>
      </trkpt>
      <trkpt lat="43.73555" lon="5.98715">
        <ele>450.1</ele>
        <time>2022-02-20T23:31:27Z</time>
      </trkpt>
      <trkpt lat="43.73588" lon="5.98688">
        <ele>450.1</ele>
        <time>2022-02-20T23:31:37Z</time>
      </trkpt>
      <trkpt lat="43.73611" lon="5.98674">
        <ele>451.4</ele>
        <time>2022-02-20T23:31:43Z</time>
      </trkpt>
      <trkpt lat="43.73646" lon="5.98628">
        <ele>454.1</ele>
        <time>2022-02-20T23:31:59Z</time>
      </trkpt>
      <trkpt lat="43.73655" lon="5.9861">
        <ele>455.8</ele>
        <time>2022-02-20T23:32:12Z</time>
      </trkpt>
      <trkpt lat="43.73668" lon="5.98595">
        <ele>457.9</ele>
        <time>2022-02-20T23:32:22Z</time>
      </trkpt>
      <trkpt lat="43.73677" lon="5.98604">
        <ele>456.8</ele>
        <time>2022-02-20T23:32:40Z</time>
      </trkpt>
      <trkpt lat="43.73695" lon="5.98641">
        <ele>451.8</ele>
        <time>2022-02-20T23:33:00Z</time>
      </trkpt>
      <trkpt lat="43.73715" lon="5.98659">
        <ele>448</ele>
        <time>2022-02-20T23:33:13Z</time>
      </trkpt>
      <trkpt lat="43.73769" lon="5.98691">
        <ele>438.9</ele>
        <time>2022-02-20T23:33:33Z</time>
      </trkpt>
      <trkpt lat="43.73823" lon="5.98716">
        <ele>431.5</ele>
        <time>2022-02-20T23:33:36Z</time>
      </trkpt>
      <trkpt lat="43.73873" lon="5.98732">
        <ele>425.1</ele>
        <time>2022-02-20T23:33:38Z</time>
      </trkpt>
      <trkpt lat="43.73889" lon="5.98737">
        <ele>423.3</ele>
        <time>2022-02-20T23:33:42Z</time>
      </trkpt>
      <trkpt lat="43.73905" lon="5.98752">
        <ele>420.8</ele>
        <time>2022-02-20T23:33:45Z</time>
      </trkpt>
      <trkpt lat="43.73932" lon="5.98795">
        <ele>420.7</ele>
        <time>2022-02-20T23:34:02Z</time>
      </trkpt>
      <trkpt lat="43.73963" lon="5.98822">
        <ele>422.6</ele>
        <time>2022-02-20T23:34:17Z</time>
      </trkpt>
      <trkpt lat="43.73976" lon="5.98841">
        <ele>424.7</ele>
        <time>2022-02-20T23:34:28Z</time>
      </trkpt>
      <trkpt lat="43.73986" lon="5.98857">
        <ele>427</ele>
        <time>2022-02-20T23:34:32Z</time>
      </trkpt>
      <trkpt lat="43.73996" lon="5.9885">
        <ele>426.7</ele>
        <time>2022-02-20T23:34:35Z</time>
      </trkpt>
      <trkpt lat="43.74007" lon="5.98835">
        <ele>423.7</ele>
        <time>2022-02-20T23:34:37Z</time>
      </trkpt>
      <trkpt lat="43.74045" lon="5.98805">
        <ele>414.5</ele>
        <time>2022-02-20T23:34:42Z</time>
      </trkpt>
      <trkpt lat="43.74082" lon="5.98775">
        <ele>408.1</ele>
        <time>2022-02-20T23:34:44Z</time>
      </trkpt>
      <trkpt lat="43.74104" lon="5.98756">
        <ele>406.8</ele>
        <time>2022-02-20T23:34:49Z</time>
      </trkpt>
      <trkpt lat="43.74113" lon="5.9869">
        <ele>406.2</ele>
        <time>2022-02-20T23:34:54Z</time>
      </trkpt>
      <trkpt lat="43.74126" lon="5.98606">
        <ele>404.4</ele>
        <time>2022-02-20T23:35:10Z</time>
      </trkpt>
      <trkpt lat="43.74129" lon="5.9858">
        <ele>403.8</ele>
        <time>2022-02-20T23:35:15Z</time>
      </trkpt>
      <trkpt lat="43.74125" lon="5.98469">
        <ele>400.8</ele>
        <time>2022-02-20T23:35:24Z</time>
      </trkpt>
      <trkpt lat="43.74125" lon="5.9843">
        <ele>400.6</ele>
        <time>2022-02-20T23:35:40Z</time>
      </trkpt>
      <trkpt lat="43.74116" lon="5.98387">
        <ele>400.7</ele>
        <time>2022-02-20T23:35:59Z</time>
      </trkpt>
      <trkpt lat="43.7409" lon="5.98317">
        <ele>398.9</ele>
        <time>2022-02-20T23:36:11Z</time>
      </trkpt>
      <trkpt lat="43.74078" lon="5.98287">
        <ele>398.4</ele>
        <time>2022-02-20T23:36:19Z</time>
      </trkpt>
      <trkpt lat="43.74073" lon="5.98252">
        <ele>398.5</ele>
        <time>2022-02-20T23:36:32Z</time>
      </trkpt>
      <trkpt lat="43.74075" lon="5.98181">
        <ele>397.2</ele>
        <time>2022-02-20T23:36:35Z</time>
      </trkpt>
      <trkpt lat="43.74068" lon="5.98126">
        <ele>395.2</ele>
        <time>2022-02-20T23:36:37Z</time>
      </trkpt>
      <trkpt lat="43.74061" lon="5.98103">
        <ele>394.1</ele>
        <time>2022-02-20T23:36:43Z</time>
      </trkpt>
      <trkpt lat="43.74053" lon="5.9808">
        <ele>393.4</ele>
        <time>2022-02-20T23:36:50Z</time>
      </trkpt>
      <trkpt lat="43.7405" lon="5.98068">
        <ele>393.4</ele>
        <time>2022-02-20T23:36:59Z</time>
      </trkpt>
      <trkpt lat="43.74045" lon="5.9803">
        <ele>393.2</ele>
        <time>2022-02-20T23:37:08Z</time>
      </trkpt>
      <trkpt lat="43.74048" lon="5.98018">
        <ele>393.2</ele>
        <time>2022-02-20T23:37:16Z</time>
      </trkpt>
      <trkpt lat="43.74048" lon="5.97968">
        <ele>392.7</ele>
        <time>2022-02-20T23:37:20Z</time>
      </trkpt>
      <trkpt lat="43.73999" lon="5.97907">
        <ele>391.6</ele>
        <time>2022-02-20T23:37:27Z</time>
      </trkpt>
      <trkpt lat="43.73982" lon="5.97883">
        <ele>392.2</ele>
        <time>2022-02-20T23:37:45Z</time>
      </trkpt>
      <trkpt lat="43.73969" lon="5.97847">
        <ele>391.7</ele>
        <time>2022-02-20T23:37:53Z</time>
      </trkpt>
      <trkpt lat="43.7395" lon="5.97814">
        <ele>391.1</ele>
        <time>2022-02-20T23:38:08Z</time>
      </trkpt>
      <trkpt lat="43.73946" lon="5.97809">
        <ele>390.9</ele>
        <time>2022-02-20T23:38:11Z</time>
      </trkpt>
      <trkpt lat="43.73924" lon="5.978">
        <ele>391.5</ele>
        <time>2022-02-20T23:38:17Z</time>
      </trkpt>
      <trkpt lat="43.73864" lon="5.97821">
        <ele>402.6</ele>
        <time>2022-02-20T23:38:34Z</time>
      </trkpt>
      <trkpt lat="43.73854" lon="5.97825">
        <ele>405</ele>
        <time>2022-02-20T23:38:47Z</time>
      </trkpt>
      <trkpt lat="43.73842" lon="5.97816">
        <ele>404.9</ele>
        <time>2022-02-20T23:38:57Z</time>
      </trkpt>
      <trkpt lat="43.73844" lon="5.97799">
        <ele>401.3</ele>
        <time>2022-02-20T23:39:06Z</time>
      </trkpt>
      <trkpt lat="43.73865" lon="5.97739">
        <ele>389.3</ele>
        <time>2022-02-20T23:39:11Z</time>
      </trkpt>
      <trkpt lat="43.73879" lon="5.97689">
        <ele>385.7</ele>
        <time>2022-02-20T23:39:22Z</time>
      </trkpt>
      <trkpt lat="43.7389" lon="5.97652">
        <ele>383.2</ele>
        <time>2022-02-20T23:39:40Z</time>
      </trkpt>
      <trkpt lat="43.73891" lon="5.9765">
        <ele>383</ele>
        <time>2022-02-20T23:39:53Z</time>
      </trkpt>
      <trkpt lat="43.73888" lon="5.97649">
        <ele>383.3</ele>
        <time>2022-02-20T23:40:13Z</time>
      </trkpt>
      <trkpt lat="43.73893" lon="5.97631">
        <ele>382.7</ele>
        <time>2022-02-20T23:40:17Z</time>
      </trkpt>
      <trkpt lat="43.73896" lon="5.97622">
        <ele>382.2</ele>
        <time>2022-02-20T23:40:35Z</time>
      </trkpt>
      <trkpt lat="43.73909" lon="5.97604">
        <ele>380.3</ele>
        <time>2022-02-20T23:40:53Z</time>
      </trkpt>
      <trkpt lat="43.7393" lon="5.97594">
        <ele>382.3</ele>
        <time>2022-02-20T23:41:09Z</time>
      </trkpt>
      <trkpt lat="43.73957" lon="5.97577">
        <ele>389.6</ele>
        <time>2022-02-20T23:41:21Z</time>
      </trkpt>
      <trkpt lat="43.73972" lon="5.97551">
        <ele>395.6</ele>
        <time>2022-02-20T23:41:40Z</time>
      </trkpt>
      <trkpt lat="43.73989" lon="5.97485">
        <ele>404.6</ele>
        <time>2022-02-20T23:41:47Z</time>
      </trkpt>
      <trkpt lat="43.73989" lon="5.97443">
        <ele>404.1</ele>
        <time>2022-02-20T23:41:50Z</time>
      </trkpt>
      <trkpt lat="43.73975" lon="5.97427">
        <ele>401.4</ele>
        <time>2022-02-20T23:41:52Z</time>
      </trkpt>
      <trkpt lat="43.73956" lon="5.97428">
        <ele>397.6</ele>
        <time>2022-02-20T23:42:01Z</time>
      </trkpt>
      <trkpt lat="43.73941" lon="5.97442">
        <ele>393.9</ele>
        <time>2022-02-20T23:42:17Z</time>
      </trkpt>
      <trkpt lat="43.73923" lon="5.97445">
        <ele>389.5</ele>
        <time>2022-02-20T23:42:21Z</time>
      </trkpt>
      <trkpt lat="43.73905" lon="5.97431">
        <ele>388.9</ele>
        <time>2022-02-20T23:42:28Z</time>
      </trkpt>
      <trkpt lat="43.73878" lon="5.97404">
        <ele>389.4</ele>
        <time>2022-02-20T23:42:39Z</time>
      </trkpt>
      <trkpt lat="43.73869" lon="5.97379">
        <ele>390.5</ele>
        <time>2022-02-20T23:42:57Z</time>
      </trkpt>
      <trkpt lat="43.73874" lon="5.97361">
        <ele>392.6</ele>
        <time>2022-02-20T23:43:13Z</time>
      </trkpt>
      <trkpt lat="43.73886" lon="5.97345">
        <ele>395.9</ele>
        <time>2022-02-20T23:43:20Z</time>
      </trkpt>
      <trkpt lat="43.73899" lon="5.97316">
        <ele>401.2</ele>
        <time>2022-02-20T23:43:39Z</time>
      </trkpt>
      <trkpt lat="43.73894" lon="5.97269">
        <ele>405.2</ele>
        <time>2022-02-20T23:43:45Z</time>
      </trkpt>
      <trkpt lat="43.73887" lon="5.97227">
        <ele>406.1</ele>
        <time>2022-02-20T23:44:02Z</time>
      </trkpt>
      <trkpt lat="43.73869" lon="5.9719">
        <ele>402.6</ele>
        <time>2022-02-20T23:44:10Z</time>
      </trkpt>
      <trkpt lat="43.73837" lon="5.97162">
        <ele>394.6</ele>
        <time>2022-02-20T23:44:26Z</time>
      </trkpt>
      <trkpt lat="43.73813" lon="5.97143">
        <ele>392.8</ele>
        <time>2022-02-20T23:44:32Z</time>
      </trkpt>
      <trkpt lat="43.73796" lon="5.97133">
        <ele>391.4</ele>
        <time>2022-02-20T23:44:37Z</time>
      </trkpt>
      <trkpt lat="43.73791" lon="5.97118">
        <ele>392.6</ele>
        <time>2022-02-20T23:44:43Z</time>
      </trkpt>
      <trkpt lat="43.73799" lon="5.97118">
        <ele>393.8</ele>
        <time>2022-02-20T23:44:56Z</time>
      </trkpt>
      <trkpt lat="43.73813" lon="5.97135">
        <ele>393.9</ele>
        <time>2022-02-20T23:44:59Z</time>
      </trkpt>
      <trkpt lat="43.73836" lon="5.97147">
        <ele>396.3</ele>
        <time>2022-02-20T23:45:19Z</time>
      </trkpt>
      <trkpt lat="43.73862" lon="5.97145">
        <ele>404</ele>
        <time>2022-02-20T23:45:22Z</time>
      </trkpt>
      <trkpt lat="43.73891" lon="5.97151">
        <ele>411.5</ele>
        <time>2022-02-20T23:45:36Z</time>
      </trkpt>
      <trkpt lat="43.73911" lon="5.97165">
        <ele>416.6</ele>
        <time>2022-02-20T23:45:53Z</time>
      </trkpt>
      <trkpt lat="43.73924" lon="5.97178">
        <ele>419.2</ele>
        <time>2022-02-20T23:46:12Z</time>
      </trkpt>
      <trkpt lat="43.73926" lon="5.97184">
        <ele>419.4</ele>
        <time>2022-02-20T23:46:16Z</time>
      </trkpt>
      <trkpt lat="43.73923" lon="5.97207">
        <ele>417.6</ele>
        <time>2022-02-20T23:46:26Z</time>
      </trkpt>
      <trkpt lat="43.73924" lon="5.97235">
        <ele>416.3</ele>
        <time>2022-02-20T23:46:36Z</time>
      </trkpt>
      <trkpt lat="43.7392" lon="5.97277">
        <ele>410.6</ele>
        <time>2022-02-20T23:46:41Z</time>
      </trkpt>
      <trkpt lat="43.73927" lon="5.97309">
        <ele>407</ele>
        <time>2022-02-20T23:46:51Z</time>
      </trkpt>
      <trkpt lat="43.73947" lon="5.9735">
        <ele>404</ele>
        <time>2022-02-20T23:46:57Z</time>
      </trkpt>
      <trkpt lat="43.73952" lon="5.97357">
        <ele>403.8</ele>
        <time>2022-02-20T23:47:10Z</time>
      </trkpt>
      <trkpt lat="43.73968" lon="5.97369">
        <ele>404.9</ele>
        <time>2022-02-20T23:47:28Z</time>
      </trkpt>
      <trkpt lat="43.73991" lon="5.97374">
        <ele>407.8</ele>
        <time>2022-02-20T23:47:40Z</time>
      </trkpt>
      <trkpt lat="43.74014" lon="5.97377">
        <ele>410.9</ele>
        <time>2022-02-20T23:47:49Z</time>
      </trkpt>
      <trkpt lat="43.74044" lon="5.97384">
        <ele>415</ele>
        <time>2022-02-20T23:48:04Z</time>
      </trkpt>
      <trkpt lat="43.74063" lon="5.97384">
        <ele>417.9</ele>
        <time>2022-02-20T23:48:08Z</time>
      </trkpt>
      <trkpt lat="43.74066" lon="5.97385">
        <ele>418.3</ele>
        <time>2022-02-20T23:48:18Z</time>
      </trkpt>
      <trkpt lat="43.74064" lon="5.97389">
        <ele>418</ele>
        <time>2022-02-20T23:48:29Z</time>
      </trkpt>
      <trkpt lat="43.74078" lon="5.97389">
        <ele>420.1</ele>
        <time>2022-02-20T23:48:47Z</time>
      </trkpt>
      <trkpt lat="43.74105" lon="5.97387">
        <ele>422.5</ele>
        <time>2022-02-20T23:49:02Z</time>
      </trkpt>
      <trkpt lat="43.74127" lon="5.97385">
        <ele>423.8</ele>
        <time>2022-02-20T23:49:13Z</time>
      </trkpt>
      <trkpt lat="43.74131" lon="5.97384">
        <ele>424.1</ele>
        <time>2022-02-20T23:49:15Z</time>
      </trkpt>
      <trkpt lat="43.74144" lon="5.97369">
        <ele>424.4</ele>
        <time>2022-02-20T23:49:21Z</time>
      </trkpt>
      <trkpt lat="43.74176" lon="5.97378">
        <ele>427.7</ele>
        <time>2022-02-20T23:49:25Z</time>
      </trkpt>
      <trkpt lat="43.74205" lon="5.97379">
        <ele>432.2</ele>
        <time>2022-02-20T23:49:40Z</time>
      </trkpt>
      <trkpt lat="43.7424" lon="5.97377">
        <ele>437.6</ele>
        <time>2022-02-20T23:49:56Z</time>
      </trkpt>
      <trkpt lat="43.74272" lon="5.97364">
        <ele>443.2</ele>
        <time>2022-02-20T23:50:04Z</time>
      </trkpt>
      <trkpt lat="43.74298" lon="5.97336">
        <ele>446</ele>
        <time>2022-02-20T23:50:17Z</time>
      </trkpt>
      <trkpt lat="43.74323" lon="5.97307">
        <ele>448.1</ele>
        <time>2022-02-20T23:50:31Z</time>
      </trkpt>
      <trkpt lat="43.74349" lon="5.97279">
        <ele>448.2</ele>
        <time>2022-02-20T23:50:50Z</time>
      </trkpt>
      <trkpt lat="43.74367" lon="5.97259">
        <ele>447.8</ele>
        <time>2022-02-20T23:50:59Z</time>
      </trkpt>
      <trkpt lat="43.74369" lon="5.97258">
        <ele>447.9</ele>
        <time>2022-02-20T23:51:05Z</time>
      </trkpt>
      <trkpt lat="43.74373" lon="5.97268">
        <ele>449.5</ele>
        <time>2022-02-20T23:51:18Z</time>
      </trkpt>
      <trkpt lat="43.74353" lon="5.97299">
        <ele>451.1</ele>
        <time>2022-02-20T23:51:21Z</time>
      </trkpt>
      <trkpt lat="43.74335" lon="5.97328">
        <ele>452.4</ele>
        <time>2022-02-20T23:51:37Z</time>
      </trkpt>
      <trkpt lat="43.74328" lon="5.97352">
        <ele>454.5</ele>
        <time>2022-02-20T23:51:43Z</time>
      </trkpt>
      <trkpt lat="43.74327" lon="5.97382">
        <ele>458.3</ele>
        <time>2022-02-20T23:51:54Z</time>
      </trkpt>
      <trkpt lat="43.74332" lon="5.97404">
        <ele>462.9</ele>
        <time>2022-02-20T23:52:06Z</time>
      </trkpt>
      <trkpt lat="43.74345" lon="5.97422">
        <ele>467.2</ele>
        <time>2022-02-20T23:52:14Z</time>
      </trkpt>
      <trkpt lat="43.74352" lon="5.97435">
        <ele>469</ele>
        <time>2022-02-20T23:52:17Z</time>
      </trkpt>
      <trkpt lat="43.74345" lon="5.9745">
        <ele>468.4</ele>
        <time>2022-02-20T23:52:21Z</time>
      </trkpt>
      <trkpt lat="43.74326" lon="5.97476">
        <ele>465.2</ele>
        <time>2022-02-20T23:52:33Z</time>
      </trkpt>
      <trkpt lat="43.74324" lon="5.97498">
        <ele>465.6</ele>
        <time>2022-02-20T23:52:47Z</time>
      </trkpt>
      <trkpt lat="43.74335" lon="5.97516">
        <ele>468.2</ele>
        <time>2022-02-20T23:53:03Z</time>
      </trkpt>
      <trkpt lat="43.74354" lon="5.97529">
        <ele>472.3</ele>
        <time>2022-02-20T23:53:23Z</time>
      </trkpt>
      <trkpt lat="43.74372" lon="5.97549">
        <ele>476.3</ele>
        <time>2022-02-20T23:53:32Z</time>
      </trkpt>
      <trkpt lat="43.74373" lon="5.97567">
        <ele>476.5</ele>
        <time>2022-02-20T23:53:48Z</time>
      </trkpt>
      <trkpt lat="43.74355" lon="5.97578">
        <ele>472.3</ele>
        <time>2022-02-20T23:53:58Z</time>
      </trkpt>
      <trkpt lat="43.74332" lon="5.97591">
        <ele>466.7</ele>
        <time>2022-02-20T23:54:10Z</time>
      </trkpt>
      <trkpt lat="43.74337" lon="5.97612">
        <ele>467</ele>
        <time>2022-02-20T23:54:16Z</time>
      </trkpt>
      <trkpt lat="43.74358" lon="5.97609">
        <ele>471.9</ele>
        <time>2022-02-20T23:54:32Z</time>
      </trkpt>
      <trkpt lat="43.74385" lon="5.97623">
        <ele>476.8</ele>
        <time>2022-02-20T23:54:42Z</time>
      </trkpt>
      <trkpt lat="43.74408" lon="5.97633">
        <ele>480.5</ele>
        <time>2022-02-20T23:54:44Z</time>
      </trkpt>
      <trkpt lat="43.74432" lon="5.97635">
        <ele>482.7</ele>
        <time>2022-02-20T23:54:59Z</time>
      </trkpt>
      <trkpt lat="43.74453" lon="5.97637">
        <ele>483.7</ele>
        <time>2022-02-20T23:55:15Z</time>
      </trkpt>
      <trkpt lat="43.74476" lon="5.97645">
        <ele>484</ele>
        <time>2022-02-20T23:55:18Z</time>
      </trkpt>
      <trkpt lat="43.74502" lon="5.97654">
        <ele>484.1</ele>
        <time>2022-02-20T23:55:35Z</time>
      </trkpt>
      <trkpt lat="43.74529" lon="5.97685">
        <ele>477.2</ele>
        <time>2022-02-20T23:55:53Z</time>
      </trkpt>
      <trkpt lat="43.74546" lon="5.97708">
        <ele>471.7</ele>
        <time>2022-02-20T23:56:13Z</time>
      </trkpt>
      <trkpt lat="43.74558" lon="5.97736">
        <ele>466.2</ele>
        <time>2022-02-20T23:56:30Z</time>
      </trkpt>
      <trkpt lat="43.74574" lon="5.97747">
        <ele>462.5</ele>
        <time>2022-02-20T23:56:33Z</time>
      </trkpt>
      <trkpt lat="43.74573" lon="5.9776">
        <ele>462.3</ele>
        <time>2022-02-20T23:56:53Z</time>
      </trkpt>
      <trkpt lat="43.74575" lon="5.97786">
        <ele>462.5</ele>
        <time>2022-02-20T23:56:57Z</time>
      </trkpt>
      <trkpt lat="43.74588" lon="5.97792">
        <ele>461</ele>
        <time>2022-02-20T23:57:03Z</time>
      </trkpt>
      <trkpt lat="43.74594" lon="5.97791">
        <ele>460.4</ele>
        <time>2022-02-20T23:57:16Z</time>
      </trkpt>
      <trkpt lat="43.74622" lon="5.97778">
        <ele>458.1</ele>
        <time>2022-02-20T23:57:32Z</time>
      </trkpt>
      <trkpt lat="43.74644" lon="5.97775">
        <ele>456.3</ele>
        <time>2022-02-20T23:57:45Z</time>
      </trkpt>
      <trkpt lat="43.74697" lon="5.97787">
        <ele>451.8</ele>
        <time>2022-02-20T23:57:52Z</time>
      </trkpt>
      <trkpt lat="43.74719" lon="5.97804">
        <ele>449.4</ele>
        <time>2022-02-20T23:58:02Z</time>
      </trkpt>
      <trkpt lat="43.74761" lon="5.97825">
        <ele>445.3</ele>
        <time>2022-02-20T23:58:21Z</time>
      </trkpt>
      <trkpt lat="43.74782" lon="5.97815">
        <ele>443.5</ele>
        <time>2022-02-20T23:58:32Z</time>
      </trkpt>
      <trkpt lat="43.74821" lon="5.97799">
        <ele>439.4</ele>
        <time>2022-02-20T23:58:52Z</time>
      </trkpt>
      <trkpt lat="43.749" lon="5.97818">
        <ele>428</ele>
        <time>2022-02-20T23:59:05Z</time>
      </trkpt>
      <trkpt lat="43.74949" lon="5.97821">
        <ele>422.1</ele>
        <time>2022-02-20T23:59:21Z</time>
      </trkpt>
      <trkpt lat="43.74974" lon="5.97824">
        <ele>419.5</ele>
        <time>2022-02-20T23:59:29Z</time>
      </trkpt>
      <trkpt lat="43.74989" lon="5.9783">
        <ele>418.1</ele>
        <time>2022-02-20T23:59:48Z</time>
      </trkpt>
      <trkpt lat="43.75005" lon="5.97825">
        <ele>417.2</ele>
        <time>2022-02-21T00:00:06Z</time>
      </trkpt>
      <trkpt lat="43.75009" lon="5.97813">
        <ele>417.2</ele>
        <time>2022-02-21T00:00:23Z</time>
      </trkpt>
      <trkpt lat="43.75007" lon="5.97791">
        <ele>416.5</ele>
        <time>2022-02-21T00:00:43Z</time>
      </trkpt>
      <trkpt lat="43.75022" lon="5.97775">
        <ele>417.3</ele>
        <time>2022-02-21T00:01:01Z</time>
      </trkpt>
      <trkpt lat="43.75024" lon="5.97775">
        <ele>417.4</ele>
        <time>2022-02-21T00:01:06Z</time>
      </trkpt>
      <trkpt lat="43.75018" lon="5.97748">
        <ele>416.2</ele>
        <time>2022-02-21T00:01:21Z</time>
      </trkpt>
      <trkpt lat="43.75005" lon="5.9771">
        <ele>413.9</ele>
        <time>2022-02-21T00:01:39Z</time>
      </trkpt>
      <trkpt lat="43.74998" lon="5.97679">
        <ele>412.6</ele>
        <time>2022-02-21T00:01:50Z</time>
      </trkpt>
      <trkpt lat="43.74993" lon="5.97648">
        <ele>412.4</ele>
        <time>2022-02-21T00:02:01Z</time>
      </trkpt>
      <trkpt lat="43.74983" lon="5.97602">
        <ele>412.9</ele>
        <time>2022-02-21T00:02:08Z</time>
      </trkpt>
      <trkpt lat="43.74979" lon="5.97574">
        <ele>412.8</ele>
        <time>2022-02-21T00:02:14Z</time>
      </trkpt>
      <trkpt lat="43.74978" lon="5.97541">
        <ele>412.1</ele>
        <time>2022-02-21T00:02:21Z</time>
      </trkpt>
      <trkpt lat="43.74977" lon="5.97503">
        <ele>411.3</ele>
        <time>2022-02-21T00:02:35Z</time>
      </trkpt>
      <trkpt lat="43.74979" lon="5.97475">
        <ele>410.4</ele>
        <time>2022-02-21T00:02:54Z</time>
      </trkpt>
      <trkpt lat="43.74984" lon="5.97439">
        <ele>409</ele>
        <time>2022-02-21T00:03:09Z</time>
      </trkpt>
      <trkpt lat="43.74984" lon="5.97413">
        <ele>408.6</ele>
        <time>2022-02-21T00:03:20Z</time>
      </trkpt>
      <trkpt lat="43.74983" lon="5.97406">
        <ele>408.8</ele>
        <time>2022-02-21T00:03:38Z</time>
      </trkpt>
      <trkpt lat="43.74974" lon="5.97368">
        <ele>410.3</ele>
        <time>2022-02-21T00:03:42Z</time>
      </trkpt>
      <trkpt lat="43.74972" lon="5.97363">
        <ele>410.6</ele>
        <time>2022-02-21T00:03:58Z</time>
      </trkpt>
      <trkpt lat="43.74969" lon="5.97346">
        <ele>411.1</ele>
        <time>2022-02-21T00:04:13Z</time>
      </trkpt>
      <trkpt lat="43.74971" lon="5.9732">
        <ele>410.9</ele>
        <time>2022-02-21T00:04:18Z</time>
      </trkpt>
      <trkpt lat="43.7497" lon="5.97261">
        <ele>410</ele>
        <time>2022-02-21T00:04:30Z</time>
      </trkpt>
      <trkpt lat="43.7497" lon="5.97211">
        <ele>408.8</ele>
        <time>2022-02-21T00:04:49Z</time>
      </trkpt>
      <trkpt lat="43.74977" lon="5.97142">
        <ele>406.2</ele>
        <time>2022-02-21T00:05:08Z</time>
      </trkpt>
      <trkpt lat="43.74986" lon="5.97086">
        <ele>403.9</ele>
        <time>2022-02-21T00:05:18Z</time>
      </trkpt>
      <trkpt lat="43.7499" lon="5.97061">
        <ele>402.5</ele>
        <time>2022-02-21T00:05:26Z</time>
      </trkpt>
      <trkpt lat="43.74983" lon="5.97019">
        <ele>401.6</ele>
        <time>2022-02-21T00:05:34Z</time>
      </trkpt>
      <trkpt lat="43.74978" lon="5.97003">
        <ele>401.5</ele>
        <time>2022-02-21T00:05:39Z</time>
      </trkpt>
      <trkpt lat="43.74978" lon="5.96979">
        <ele>401.4</ele>
        <time>2022-02-21T00:05:54Z</time>
      </trkpt>
      <trkpt lat="43.74986" lon="5.96951">
        <ele>400.6</ele>
        <time>2022-02-21T00:06:13Z</time>
      </trkpt>
      <trkpt lat="43.75012" lon="5.96952">
        <ele>399.9</ele>
        <time>2022-02-21T00:06:30Z</time>
      </trkpt>
      <trkpt lat="43.75045" lon="5.96945">
        <ele>402.1</ele>
        <time>2022-02-21T00:06:49Z</time>
      </trkpt>
      <trkpt lat="43.7508" lon="5.96948">
        <ele>404.6</ele>
        <time>2022-02-21T00:06:53Z</time>
      </trkpt>
      <trkpt lat="43.75117" lon="5.96937">
        <ele>409</ele>
        <time>2022-02-21T00:07:12Z</time>
      </trkpt>
      <trkpt lat="43.75123" lon="5.96932">
        <ele>409.8</ele>
        <time>2022-02-21T00:07:23Z</time>
      </trkpt>
      <trkpt lat="43.75129" lon="5.96922">
        <ele>410.7</ele>
        <time>2022-02-21T00:07:29Z</time>
      </trkpt>
      <trkpt lat="43.75128" lon="5.96922">
        <ele>410.4</ele>
        <time>2022-02-21T00:07:44Z</time>
      </trkpt>
      <trkpt lat="43.75131" lon="5.96919">
        <ele>411.1</ele>
        <time>2022-02-21T00:07:50Z</time>
      </trkpt>
      <trkpt lat="43.75133" lon="5.96915">
        <ele>411.3</ele>
        <time>2022-02-21T00:08:02Z</time>
      </trkpt>
      <trkpt lat="43.75136" lon="5.96914">
        <ele>411.7</ele>
        <time>2022-02-21T00:08:21Z</time>
      </trkpt>
      <trkpt lat="43.75137" lon="5.96922">
        <ele>412</ele>
        <time>2022-02-21T00:08:26Z</time>
      </trkpt>
      <trkpt lat="43.75133" lon="5.96953">
        <ele>411.2</ele>
        <time>2022-02-21T00:08:43Z</time>
      </trkpt>
      <trkpt lat="43.75159" lon="5.9697">
        <ele>413.7</ele>
        <time>2022-02-21T00:09:01Z</time>
      </trkpt>
      <trkpt lat="43.75193" lon="5.9698">
        <ele>417.2</ele>
        <time>2022-02-21T00:09:21Z</time>
      </trkpt>
      <trkpt lat="43.75205" lon="5.96978">
        <ele>418.9</ele>
        <time>2022-02-21T00:09:40Z</time>
      </trkpt>
      <trkpt lat="43.75215" lon="5.96967">
        <ele>420.9</ele>
        <time>2022-02-21T00:09:56Z</time>
      </trkpt>
      <trkpt lat="43.75226" lon="5.96961">
        <ele>422.9</ele>
        <time>2022-02-21T00:10:00Z</time>
      </trkpt>
      <trkpt lat="43.75234" lon="5.96962">
        <ele>424</ele>
        <time>2022-02-21T00:10:07Z</time>
      </trkpt>
      <trkpt lat="43.75238" lon="5.96959">
        <ele>424.8</ele>
        <time>2022-02-21T00:10:21Z</time>
      </trkpt>
      <trkpt lat="43.75274" lon="5.96959">
        <ele>427.9</ele>
        <time>2022-02-21T00:10:38Z</time>
      </trkpt>
      <trkpt lat="43.75294" lon="5.96958">
        <ele>429.2</ele>
        <time>2022-02-21T00:10:57Z</time>
      </trkpt>
      <trkpt lat="43.75294" lon="5.96952">
        <ele>429.8</ele>
        <time>2022-02-21T00:11:14Z</time>
      </trkpt>
      <trkpt lat="43.75271" lon="5.96944">
        <ele>429.2</ele>
        <time>2022-02-21T00:11:28Z</time>
      </trkpt>
      <trkpt lat="43.75262" lon="5.96936">
        <ele>429.6</ele>
        <time>2022-02-21T00:11:43Z</time>
      </trkpt>
      <trkpt lat="43.75257" lon="5.96918">
        <ele>431.2</ele>
        <time>2022-02-21T00:11:51Z</time>
      </trkpt>
      <trkpt lat="43.7526" lon="5.96885">
        <ele>432.3</ele>
        <time>2022-02-21T00:12:09Z</time>
      </trkpt>
      <trkpt lat="43.75277" lon="5.96822">
        <ele>435.6</ele>
        <time>2022-02-21T00:12:20Z</time>
      </trkpt>
      <trkpt lat="43.75297" lon="5.96776">
        <ele>437.9</ele>
        <time>2022-02-21T00:12:22Z</time>
      </trkpt>
      <trkpt lat="43.75301" lon="5.96768">
        <ele>438.7</ele>
        <time>2022-02-21T00:12:36Z</time>
      </trkpt>
      <trkpt lat="43.75306" lon="5.96743">
        <ele>440.1</ele>
        <time>2022-02-21T00:12:39Z</time>
      </trkpt>
      <trkpt lat="43.75278" lon="5.96674">
        <ele>437.7</ele>
        <time>2022-02-21T00:12:52Z</time>
      </trkpt>
      <trkpt lat="43.75273" lon="5.96655">
        <ele>436.1</ele>
        <time>2022-02-21T00:13:03Z</time>
      </trkpt>
      <trkpt lat="43.75273" lon="5.96634">
        <ele>434.6</ele>
        <time>2022-02-21T00:13:10Z</time>
      </trkpt>
      <trkpt lat="43.75277" lon="5.96591">
        <ele>432.3</ele>
        <time>2022-02-21T00:13:22Z</time>
      </trkpt>
      <trkpt lat="43.75294" lon="5.96548">
        <ele>432</ele>
        <time>2022-02-21T00:13:34Z</time>
      </trkpt>
      <trkpt lat="43.75306" lon="5.96518">
        <ele>432.5</ele>
        <time>2022-02-21T00:13:54Z</time>
      </trkpt>
      <trkpt lat="43.75304" lon="5.96487">
        <ele>430.5</ele>
        <time>2022-02-21T00:14:01Z</time>
      </trkpt>
      <trkpt lat="43.75304" lon="5.96458">
        <ele>431.3</ele>
        <time>2022-02-21T00:14:21Z</time>
      </trkpt>
      <trkpt lat="43.75315" lon="5.96397">
        <ele>436.1</ele>
        <time>2022-02-21T00:14:23Z</time>
      </trkpt>
      <trkpt lat="43.7531" lon="5.96352">
        <ele>434.9</ele>
        <time>2022-02-21T00:14:38Z</time>
      </trkpt>
      <trkpt lat="43.75287" lon="5.96274">
        <ele>431.4</ele>
        <time>2022-02-21T00:14:47Z</time>
      </trkpt>
      <trkpt lat="43.75268" lon="5.96228">
        <ele>427.2</ele>
        <time>2022-02-21T00:14:58Z</time>
      </trkpt>
      <trkpt lat="43.75248" lon="5.96195">
        <ele>423.2</ele>
        <time>2022-02-21T00:15:05Z</time>
      </trkpt>
      <trkpt lat="43.75242" lon="5.96172">
        <ele>422.8</ele>
        <time>2022-02-21T00:15:23Z</time>
      </trkpt>
      <trkpt lat="43.75243" lon="5.96157">
        <ele>423.5</ele>
        <time>2022-02-21T00:15:37Z</time>
      </trkpt>
      <trkpt lat="43.7525" lon="5.96124">
        <ele>426.5</ele>
        <time>2022-02-21T00:15:39Z</time>
      </trkpt>
      <trkpt lat="43.75266" lon="5.96092">
        <ele>431.1</ele>
        <time>2022-02-21T00:15:47Z</time>
      </trkpt>
      <trkpt lat="43.75269" lon="5.96036">
        <ele>432.9</ele>
        <time>2022-02-21T00:16:05Z</time>
      </trkpt>
      <trkpt lat="43.75278" lon="5.95994">
        <ele>434.9</ele>
        <time>2022-02-21T00:16:25Z</time>
      </trkpt>
      <trkpt lat="43.75289" lon="5.95959">
        <ele>435.5</ele>
        <time>2022-02-21T00:16:30Z</time>
      </trkpt>
      <trkpt lat="43.75291" lon="5.95953">
        <ele>435.7</ele>
        <time>2022-02-21T00:16:49Z</time>
      </trkpt>
      <trkpt lat="43.75291" lon="5.95928">
        <ele>434.8</ele>
        <time>2022-02-21T00:17:02Z</time>
      </trkpt>
      <trkpt lat="43.75271" lon="5.95908">
        <ele>432.1</ele>
        <time>2022-02-21T00:17:06Z</time>
      </trkpt>
      <trkpt lat="43.75258" lon="5.95884">
        <ele>432.7</ele>
        <time>2022-02-21T00:17:18Z</time>
      </trkpt>
      <trkpt lat="43.75252" lon="5.95835">
        <ele>437.3</ele>
        <time>2022-02-21T00:17:30Z</time>
      </trkpt>
      <trkpt lat="43.7523" lon="5.95777">
        <ele>436.4</ele>
        <time>2022-02-21T00:17:35Z</time>
      </trkpt>
      <trkpt lat="43.75224" lon="5.95753">
        <ele>436.8</ele>
        <time>2022-02-21T00:17:52Z</time>
      </trkpt>
      <trkpt lat="43.75221" lon="5.95716">
        <ele>438.7</ele>
        <time>2022-02-21T00:18:04Z</time>
      </trkpt>
      <trkpt lat="43.75224" lon="5.95668">
        <ele>443.9</ele>
        <time>2022-02-21T00:18:21Z</time>
      </trkpt>
      <trkpt lat="43.7523" lon="5.95642">
        <ele>445.5</ele>
        <time>2022-02-21T00:18:41Z</time>
      </trkpt>
      <trkpt lat="43.75226" lon="5.95608">
        <ele>444.1</ele>
        <time>2022-02-21T00:18:43Z</time>
      </trkpt>
      <trkpt lat="43.75213" lon="5.95556">
        <ele>439.2</ele>
        <time>2022-02-21T00:18:52Z</time>
      </trkpt>
      <trkpt lat="43.7521" lon="5.95531">
        <ele>437.2</ele>
        <time>2022-02-21T00:19:05Z</time>
      </trkpt>
      <trkpt lat="43.75213" lon="5.955">
        <ele>436.3</ele>
        <time>2022-02-21T00:19:22Z</time>
      </trkpt>
      <trkpt lat="43.75225" lon="5.95459">
        <ele>436.9</ele>
        <time>2022-02-21T00:19:27Z</time>
      </trkpt>
      <trkpt lat="43.75234" lon="5.95431">
        <ele>438</ele>
        <time>2022-02-21T00:19:30Z</time>
      </trkpt>
      <trkpt lat="43.75266" lon="5.95408">
        <ele>445.5</ele>
        <time>2022-02-21T00:19:33Z</time>
      </trkpt>
      <trkpt lat="43.75267" lon="5.95379">
        <ele>444.4</ele>
        <time>2022-02-21T00:19:53Z</time>
      </trkpt>
      <trkpt lat="43.75269" lon="5.95318">
        <ele>442.2</ele>
        <time>2022-02-21T00:20:06Z</time>
      </trkpt>
      <trkpt lat="43.75269" lon="5.95291">
        <ele>441</ele>
        <time>2022-02-21T00:20:15Z</time>
      </trkpt>
      <trkpt lat="43.75279" lon="5.95265">
        <ele>441.9</ele>
        <time>2022-02-21T00:20:28Z</time>
      </trkpt>
      <trkpt lat="43.75291" lon="5.9524">
        <ele>444.6</ele>
        <time>2022-02-21T00:20:41Z</time>
      </trkpt>
      <trkpt lat="43.75269" lon="5.95205">
        <ele>442.2</ele>
        <time>2022-02-21T00:20:53Z</time>
      </trkpt>
      <trkpt lat="43.75248" lon="5.95175">
        <ele>440</ele>
        <time>2022-02-21T00:21:05Z</time>
      </trkpt>
      <trkpt lat="43.75238" lon="5.95151">
        <ele>437.1</ele>
        <time>2022-02-21T00:21:17Z</time>
      </trkpt>
      <trkpt lat="43.75229" lon="5.95127">
        <ele>434</ele>
        <time>2022-02-21T00:21:30Z</time>
      </trkpt>
      <trkpt lat="43.7523" lon="5.95109">
        <ele>433.4</ele>
        <time>2022-02-21T00:21:37Z</time>
      </trkpt>
      <trkpt lat="43.75237" lon="5.95109">
        <ele>434.5</ele>
        <time>2022-02-21T00:21:54Z</time>
      </trkpt>
      <trkpt lat="43.75239" lon="5.95119">
        <ele>435.5</ele>
        <time>2022-02-21T00:21:57Z</time>
      </trkpt>
      <trkpt lat="43.75249" lon="5.95136">
        <ele>438.5</ele>
        <time>2022-02-21T00:22:05Z</time>
      </trkpt>
      <trkpt lat="43.75268" lon="5.95157">
        <ele>443.6</ele>
        <time>2022-02-21T00:22:13Z</time>
      </trkpt>
      <trkpt lat="43.75297" lon="5.95177">
        <ele>449.5</ele>
        <time>2022-02-21T00:22:18Z</time>
      </trkpt>
      <trkpt lat="43.75317" lon="5.95189">
        <ele>452.8</ele>
        <time>2022-02-21T00:22:28Z</time>
      </trkpt>
      <trkpt lat="43.75335" lon="5.95199">
        <ele>455.6</ele>
        <time>2022-02-21T00:22:40Z</time>
      </trkpt>
      <trkpt lat="43.7537" lon="5.95222">
        <ele>461</ele>
        <time>2022-02-21T00:22:45Z</time>
      </trkpt>
      <trkpt lat="43.75387" lon="5.95232">
        <ele>463.9</ele>
        <time>2022-02-21T00:22:50Z</time>
      </trkpt>
      <trkpt lat="43.75416" lon="5.9525">
        <ele>469.9</ele>
        <time>2022-02-21T00:23:07Z</time>
      </trkpt>
      <trkpt lat="43.75429" lon="5.95259">
        <ele>470.8</ele>
        <time>2022-02-21T00:23:18Z</time>
      </trkpt>
      <trkpt lat="43.7543" lon="5.95262">
        <ele>471.1</ele>
        <time>2022-02-21T00:23:32Z</time>
      </trkpt>
      <trkpt lat="43.75428" lon="5.95283">
        <ele>473.4</ele>
        <time>2022-02-21T00:23:37Z</time>
      </trkpt>
      <trkpt lat="43.75422" lon="5.95304">
        <ele>475.7</ele>
        <time>2022-02-21T00:23:52Z</time>
      </trkpt>
      <trkpt lat="43.7541" lon="5.95317">
        <ele>475.5</ele>
        <time>2022-02-21T00:23:58Z</time>
      </trkpt>
      <trkpt lat="43.75388" lon="5.95334">
        <ele>471.2</ele>
        <time>2022-02-21T00:24:04Z</time>
      </trkpt>
      <trkpt lat="43.75371" lon="5.95351">
        <ele>468</ele>
        <time>2022-02-21T00:24:19Z</time>
      </trkpt>
      <trkpt lat="43.75365" lon="5.95369">
        <ele>468</ele>
        <time>2022-02-21T00:24:29Z</time>
      </trkpt>
      <trkpt lat="43.75366" lon="5.95386">
        <ele>469.8</ele>
        <time>2022-02-21T00:24:37Z</time>
      </trkpt>
      <trkpt lat="43.75373" lon="5.95396">
        <ele>473</ele>
        <time>2022-02-21T00:24:39Z</time>
      </trkpt>
      <trkpt lat="43.75386" lon="5.95397">
        <ele>476.9</ele>
        <time>2022-02-21T00:24:42Z</time>
      </trkpt>
      <trkpt lat="43.75406" lon="5.95362">
        <ele>479.3</ele>
        <time>2022-02-21T00:24:49Z</time>
      </trkpt>
      <trkpt lat="43.75442" lon="5.95343">
        <ele>480</ele>
        <time>2022-02-21T00:24:57Z</time>
      </trkpt>
      <trkpt lat="43.75468" lon="5.95313">
        <ele>476.1</ele>
        <time>2022-02-21T00:25:14Z</time>
      </trkpt>
      <trkpt lat="43.75483" lon="5.95286">
        <ele>473.1</ele>
        <time>2022-02-21T00:25:29Z</time>
      </trkpt>
      <trkpt lat="43.75494" lon="5.95265">
        <ele>470.6</ele>
        <time>2022-02-21T00:25:44Z</time>
      </trkpt>
      <trkpt lat="43.75506" lon="5.95239">
        <ele>467.4</ele>
        <time>2022-02-21T00:25:54Z</time>
      </trkpt>
      <trkpt lat="43.7551" lon="5.95236">
        <ele>466.6</ele>
        <time>2022-02-21T00:26:09Z</time>
      </trkpt>
      <trkpt lat="43.75526" lon="5.95233">
        <ele>464.8</ele>
        <time>2022-02-21T00:26:16Z</time>
      </trkpt>
      <trkpt lat="43.75553" lon="5.95232">
        <ele>462.1</ele>
        <time>2022-02-21T00:26:23Z</time>
      </trkpt>
      <trkpt lat="43.75577" lon="5.95238">
        <ele>460.4</ele>
        <time>2022-02-21T00:26:43Z</time>
      </trkpt>
      <trkpt lat="43.75602" lon="5.9523">
        <ele>455.9</ele>
        <time>2022-02-21T00:26:51Z</time>
      </trkpt>
      <trkpt lat="43.75628" lon="5.95211">
        <ele>449.7</ele>
        <time>2022-02-21T00:26:58Z</time>
      </trkpt>
      <trkpt lat="43.75663" lon="5.95189">
        <ele>442.1</ele>
        <time>2022-02-21T00:27:12Z</time>
      </trkpt>
      <trkpt lat="43.75674" lon="5.95172">
        <ele>438.7</ele>
        <time>2022-02-21T00:27:24Z</time>
      </trkpt>
      <trkpt lat="43.75684" lon="5.95139">
        <ele>432.5</ele>
        <time>2022-02-21T00:27:43Z</time>
      </trkpt>
      <trkpt lat="43.75693" lon="5.95092">
        <ele>424.4</ele>
        <time>2022-02-21T00:27:47Z</time>
      </trkpt>
      <trkpt lat="43.75686" lon="5.95066">
        <ele>422.6</ele>
        <time>2022-02-21T00:27:54Z</time>
      </trkpt>
      <trkpt lat="43.75661" lon="5.95058">
        <ele>427</ele>
        <time>2022-02-21T00:28:03Z</time>
      </trkpt>
      <trkpt lat="43.75653" lon="5.95047">
        <ele>427</ele>
        <time>2022-02-21T00:28:06Z</time>
      </trkpt>
      <trkpt lat="43.75688" lon="5.95018">
        <ele>414.7</ele>
        <time>2022-02-21T00:28:14Z</time>
      </trkpt>
      <trkpt lat="43.75717" lon="5.95018">
        <ele>407.2</ele>
        <time>2022-02-21T00:28:22Z</time>
      </trkpt>
      <trkpt lat="43.75728" lon="5.95022">
        <ele>405.1</ele>
        <time>2022-02-21T00:28:24Z</time>
      </trkpt>
      <trkpt lat="43.75738" lon="5.95032">
        <ele>404</ele>
        <time>2022-02-21T00:28:37Z</time>
      </trkpt>
      <trkpt lat="43.75752" lon="5.95057">
        <ele>404.9</ele>
        <time>2022-02-21T00:28:50Z</time>
      </trkpt>
      <trkpt lat="43.75764" lon="5.95078">
        <ele>407.3</ele>
        <time>2022-02-21T00:29:07Z</time>
      </trkpt>
      <trkpt lat="43.75782" lon="5.95095">
        <ele>407.3</ele>
        <time>2022-02-21T00:29:25Z</time>
      </trkpt>
      <trkpt lat="43.758" lon="5.95117">
        <ele>406.9</ele>
        <time>2022-02-21T00:29:29Z</time>
      </trkpt>
      <trkpt lat="43.75824" lon="5.95151">
        <ele>404.6</ele>
        <time>2022-02-21T00:29:34Z</time>
      </trkpt>
      <trkpt lat="43.75846" lon="5.95173">
        <ele>405.7</ele>
        <time>2022-02-21T00:29:38Z</time>
      </trkpt>
      <trkpt lat="43.75858" lon="5.95192">
        <ele>408.5</ele>
        <time>2022-02-21T00:29:52Z</time>
      </trkpt>
      <trkpt lat="43.75887" lon="5.95241">
        <ele>412.3</ele>
        <time>2022-02-21T00:30:09Z</time>
      </trkpt>
      <trkpt lat="43.75897" lon="5.9526">
        <ele>412.6</ele>
        <time>2022-02-21T00:30:26Z</time>
      </trkpt>
      <trkpt lat="43.75901" lon="5.95252">
        <ele>412.6</ele>
        <time>2022-02-21T00:30:32Z</time>
      </trkpt>
      <trkpt lat="43.75903" lon="5.95208">
        <ele>413.7</ele>
        <time>2022-02-21T00:30:39Z</time>
      </trkpt>
      <trkpt lat="43.75901" lon="5.95164">
        <ele>414.7</ele>
        <time>2022-02-21T00:30:59Z</time>
      </trkpt>
      <trkpt lat="43.75881" lon="5.95128">
        <ele>412.4</ele>
        <time>2022-02-21T00:31:01Z</time>
      </trkpt>
      <trkpt lat="43.75857" lon="5.95089">
        <ele>408</ele>
        <time>2022-02-21T00:31:08Z</time>
      </trkpt>
      <trkpt lat="43.75849" lon="5.95033">
        <ele>412.2</ele>
        <time>2022-02-21T00:31:15Z</time>
      </trkpt>
      <trkpt lat="43.7585" lon="5.95015">
        <ele>414.8</ele>
        <time>2022-02-21T00:31:20Z</time>
      </trkpt>
      <trkpt lat="43.75854" lon="5.95006">
        <ele>417.3</ele>
        <time>2022-02-21T00:31:30Z</time>
      </trkpt>
      <trkpt lat="43.75863" lon="5.94982">
        <ele>422.7</ele>
        <time>2022-02-21T00:31:47Z</time>
      </trkpt>
      <trkpt lat="43.75859" lon="5.9495">
        <ele>424.5</ele>
        <time>2022-02-21T00:31:54Z</time>
      </trkpt>
      <trkpt lat="43.75853" lon="5.94924">
        <ele>425.1</ele>
        <time>2022-02-21T00:32:03Z</time>
      </trkpt>
      <trkpt lat="43.75853" lon="5.94919">
        <ele>425.5</ele>
        <time>2022-02-21T00:32:06Z</time>
      </trkpt>
      <trkpt lat="43.75846" lon="5.94906">
        <ele>424.5</ele>
        <time>2022-02-21T00:32:19Z</time>
      </trkpt>
      <trkpt lat="43.75839" lon="5.94897">
        <ele>423</ele>
        <time>2022-02-21T00:32:32Z</time>
      </trkpt>
      <trkpt lat="43.75828" lon="5.94892">
        <ele>420.5</ele>
        <time>2022-02-21T00:32:52Z</time>
      </trkpt>
      <trkpt lat="43.7582" lon="5.94884">
        <ele>419.5</ele>
        <time>2022-02-21T00:32:55Z</time>
      </trkpt>
      <trkpt lat="43.7582" lon="5.9488">
        <ele>419.7</ele>
        <time>2022-02-21T00:33:01Z</time>
      </trkpt>
      <trkpt lat="43.7582" lon="5.94879">
        <ele>419.9</ele>
        <time>2022-02-21T00:33:15Z</time>
      </trkpt>
      <trkpt lat="43.75822" lon="5.94877">
        <ele>420.6</ele>
        <time>2022-02-21T00:33:18Z</time>
      </trkpt>
      <trkpt lat="43.75824" lon="5.9487">
        <ele>421.5</ele>
        <time>2022-02-21T00:33:29Z</time>
      </trkpt>
      <trkpt lat="43.75816" lon="5.94863">
        <ele>420.6</ele>
        <time>2022-02-21T00:33:40Z</time>
      </trkpt>
      <trkpt lat="43.75802" lon="5.9485">
        <ele>419.7</ele>
        <time>2022-02-21T00:33:54Z</time>
      </trkpt>
      <trkpt lat="43.75794" lon="5.94827">
        <ele>421.7</ele>
        <time>2022-02-21T00:34:13Z</time>
      </trkpt>
      <trkpt lat="43.75784" lon="5.94791">
        <ele>426.5</ele>
        <time>2022-02-21T00:34:19Z</time>
      </trkpt>
      <trkpt lat="43.75776" lon="5.9476">
        <ele>431.1</ele>
        <time>2022-02-21T00:34:22Z</time>
      </trkpt>
      <trkpt lat="43.75764" lon="5.94717">
        <ele>433.2</ele>
        <time>2022-02-21T00:34:37Z</time>
      </trkpt>
      <trkpt lat="43.7576" lon="5.94687">
        <ele>433.9</ele>
        <time>2022-02-21T00:34:53Z</time>
      </trkpt>
      <trkpt lat="43.75778" lon="5.94637">
        <ele>438.3</ele>
        <time>2022-02-21T00:34:55Z</time>
      </trkpt>
      <trkpt lat="43.75779" lon="5.94612">
        <ele>438.5</ele>
        <time>2022-02-21T00:35:01Z</time>
      </trkpt>
      <trkpt lat="43.75771" lon="5.94596">
        <ele>437.1</ele>
        <time>2022-02-21T00:35:05Z</time>
      </trkpt>
      <trkpt lat="43.75759" lon="5.94587">
        <ele>434.8</ele>
        <time>2022-02-21T00:35:17Z</time>
      </trkpt>
      <trkpt lat="43.75743" lon="5.94579">
        <ele>432.6</ele>
        <time>2022-02-21T00:35:37Z</time>
      </trkpt>
      <trkpt lat="43.75725" lon="5.94563">
        <ele>432.6</ele>
        <time>2022-02-21T00:35:48Z</time>
      </trkpt>
      <trkpt lat="43.75714" lon="5.94532">
        <ele>436.1</ele>
        <time>2022-02-21T00:35:54Z</time>
      </trkpt>
      <trkpt lat="43.75708" lon="5.94491">
        <ele>440.2</ele>
        <time>2022-02-21T00:35:56Z</time>
      </trkpt>
      <trkpt lat="43.75715" lon="5.94468">
        <ele>442.2</ele>
        <time>2022-02-21T00:36:01Z</time>
      </trkpt>
      <trkpt lat="43.7573" lon="5.94444">
        <ele>446.2</ele>
        <time>2022-02-21T00:36:04Z</time>
      </trkpt>
      <trkpt lat="43.75748" lon="5.94421">
        <ele>450.5</ele>
        <time>2022-02-21T00:36:14Z</time>
      </trkpt>
      <trkpt lat="43.75746" lon="5.94409">
        <ele>450.4</ele>
        <time>2022-02-21T00:36:17Z</time>
      </trkpt>
      <trkpt lat="43.75756" lon="5.9439">
        <ele>453.6</ele>
        <time>2022-02-21T00:36:22Z</time>
      </trkpt>
      <trkpt lat="43.75778" lon="5.94388">
        <ele>459.3</ele>
        <time>2022-02-21T00:36:24Z</time>
      </trkpt>
      <trkpt lat="43.75773" lon="5.94415">
        <ele>457</ele>
        <time>2022-02-21T00:36:36Z</time>
      </trkpt>
      <trkpt lat="43.75766" lon="5.94462">
        <ele>453</ele>
        <time>2022-02-21T00:36:42Z</time>
      </trkpt>
      <trkpt lat="43.75768" lon="5.94491">
        <ele>451.8</ele>
        <time>2022-02-21T00:36:53Z</time>
      </trkpt>
      <trkpt lat="43.7579" lon="5.94493">
        <ele>453.6</ele>
        <time>2022-02-21T00:37:06Z</time>
      </trkpt>
      <trkpt lat="43.7583" lon="5.94481">
        <ele>459.3</ele>
        <time>2022-02-21T00:37:26Z</time>
      </trkpt>
      <trkpt lat="43.75854" lon="5.94477">
        <ele>465.6</ele>
        <time>2022-02-21T00:37:39Z</time>
      </trkpt>
      <trkpt lat="43.7588" lon="5.94455">
        <ele>475.8</ele>
        <time>2022-02-21T00:37:55Z</time>
      </trkpt>
      <trkpt lat="43.75908" lon="5.9444">
        <ele>484.9</ele>
        <time>2022-02-21T00:38:14Z</time>
      </trkpt>
      <trkpt lat="43.75926" lon="5.94406">
        <ele>489.1</ele>
        <time>2022-02-21T00:38:31Z</time>
      </trkpt>
      <trkpt lat="43.75938" lon="5.94353">
        <ele>486.9</ele>
        <time>2022-02-21T00:38:36Z</time>
      </trkpt>
      <trkpt lat="43.75943" lon="5.94314">
        <ele>482.7</ele>
        <time>2022-02-21T00:38:49Z</time>
      </trkpt>
      <trkpt lat="43.7595" lon="5.94283">
        <ele>477</ele>
        <time>2022-02-21T00:39:03Z</time>
      </trkpt>
      <trkpt lat="43.75927" lon="5.94248">
        <ele>472.1</ele>
        <time>2022-02-21T00:39:08Z</time>
      </trkpt>
      <trkpt lat="43.75892" lon="5.94197">
        <ele>470.7</ele>
        <time>2022-02-21T00:39:20Z</time>
      </trkpt>
      <trkpt lat="43.75863" lon="5.9413">
        <ele>474.9</ele>
        <time>2022-02-21T00:39:32Z</time>
      </trkpt>
      <trkpt lat="43.75852" lon="5.94062">
        <ele>477.6</ele>
        <time>2022-02-21T00:39:46Z</time>
      </trkpt>
      <trkpt lat="43.75834" lon="5.93995">
        <ele>485.8</ele>
        <time>2022-02-21T00:39:56Z</time>
      </trkpt>
      <trkpt lat="43.75811" lon="5.93934">
        <ele>491.7</ele>
        <time>2022-02-21T00:39:59Z</time>
      </trkpt>
      <trkpt lat="43.75782" lon="5.93875">
        <ele>494.2</ele>
        <time>2022-02-21T00:40:04Z</time>
      </trkpt>
      <trkpt lat="43.75775" lon="5.93809">
        <ele>490.6</ele>
        <time>2022-02-21T00:40:08Z</time>
      </trkpt>
      <trkpt lat="43.75778" lon="5.93737">
        <ele>483.5</ele>
        <time>2022-02-21T00:40:13Z</time>
      </trkpt>
      <trkpt lat="43.75778" lon="5.93689">
        <ele>478.3</ele>
        <time>2022-02-21T00:40:15Z</time>
      </trkpt>
      <trkpt lat="43.75773" lon="5.93645">
        <ele>476</ele>
        <time>2022-02-21T00:40:18Z</time>
      </trkpt>
      <trkpt lat="43.75759" lon="5.93615">
        <ele>478.9</ele>
        <time>2022-02-21T00:40:26Z</time>
      </trkpt>
      <trkpt lat="43.75732" lon="5.93608">
        <ele>483.5</ele>
        <time>2022-02-21T00:40:44Z</time>
      </trkpt>
      <trkpt lat="43.75708" lon="5.93594">
        <ele>485.5</ele>
        <time>2022-02-21T00:41:01Z</time>
      </trkpt>
      <trkpt lat="43.75684" lon="5.9356">
        <ele>484.7</ele>
        <time>2022-02-21T00:41:03Z</time>
      </trkpt>
      <trkpt lat="43.75663" lon="5.93518">
        <ele>480.8</ele>
        <time>2022-02-21T00:41:18Z</time>
      </trkpt>
      <trkpt lat="43.7564" lon="5.93483">
        <ele>477.7</ele>
        <time>2022-02-21T00:41:29Z</time>
      </trkpt>
      <trkpt lat="43.7563" lon="5.93432">
        <ele>472.2</ele>
        <time>2022-02-21T00:41:47Z</time>
      </trkpt>
      <trkpt lat="43.75622" lon="5.93376">
        <ele>466.9</ele>
        <time>2022-02-21T00:41:55Z</time>
      </trkpt>
      <trkpt lat="43.75612" lon="5.93309">
        <ele>462.1</ele>
        <time>2022-02-21T00:42:03Z</time>
      </trkpt>
      <trkpt lat="43.7561" lon="5.93267">
        <ele>459</ele>
        <time>2022-02-21T00:42:14Z</time>
      </trkpt>
      <trkpt lat="43.75582" lon="5.93259">
        <ele>465.6</ele>
        <time>2022-02-21T00:42:31Z</time>
      </trkpt>
      <trkpt lat="43.75538" lon="5.93248">
        <ele>468.1</ele>
        <time>2022-02-21T00:42:43Z</time>
      </trkpt>
      <trkpt lat="43.75502" lon="5.93229">
        <ele>469.1</ele>
        <time>2022-02-21T00:42:57Z</time>
      </trkpt>
      <trkpt lat="43.75475" lon="5.93211">
        <ele>463.2</ele>
        <time>2022-02-21T00:42:59Z</time>
      </trkpt>
      <trkpt lat="43.7545" lon="5.93197">
        <ele>457.7</ele>
        <time>2022-02-21T00:43:05Z</time>
      </trkpt>
      <trkpt lat="43.75438" lon="5.93171">
        <ele>453.9</ele>
        <time>2022-02-21T00:43:10Z</time>
      </trkpt>
      <trkpt lat="43.75443" lon="5.93166">
        <ele>454.2</ele>
        <time>2022-02-21T00:43:26Z</time>
      </trkpt>
      <trkpt lat="43.75444" lon="5.93166">
        <ele>454.4</ele>
        <time>2022-02-21T00:43:28Z</time>
      </trkpt>
      <trkpt lat="43.75443" lon="5.93166">
        <ele>454.2</ele>
        <time>2022-02-21T00:43:32Z</time>
      </trkpt>
      <trkpt lat="43.75463" lon="5.93151">
        <ele>456.2</ele>
        <time>2022-02-21T00:43:52Z</time>
      </trkpt>
      <trkpt lat="43.75498" lon="5.93123">
        <ele>460</ele>
        <time>2022-02-21T00:44:00Z</time>
      </trkpt>
      <trkpt lat="43.7551" lon="5.9311">
        <ele>458.7</ele>
        <time>2022-02-21T00:44:03Z</time>
      </trkpt>
      <trkpt lat="43.75525" lon="5.93077">
        <ele>454.4</ele>
        <time>2022-02-21T00:44:21Z</time>
      </trkpt>
      <trkpt lat="43.7556" lon="5.93019">
        <ele>440.1</ele>
        <time>2022-02-21T00:44:25Z</time>
      </trkpt>
      <trkpt lat="43.75584" lon="5.92987">
        <ele>429.7</ele>
        <time>2022-02-21T00:44:30Z</time>
      </trkpt>
      <trkpt lat="43.75605" lon="5.92981">
        <ele>428</ele>
        <time>2022-02-21T00:44:41Z</time>
      </trkpt>
      <trkpt lat="43.75626" lon="5.92998">
        <ele>431.9</ele>
        <time>2022-02-21T00:44:55Z</time>
      </trkpt>
      <trkpt lat="43.75646" lon="5.9302">
        <ele>434.4</ele>
        <time>2022-02-21T00:45:01Z</time>
      </trkpt>
      <trkpt lat="43.75666" lon="5.93034">
        <ele>434.4</ele>
        <time>2022-02-21T00:45:06Z</time>
      </trkpt>
      <trkpt lat="43.75697" lon="5.9304">
        <ele>431.1</ele>
        <time>2022-02-21T00:45:09Z</time>
      </trkpt>
      <trkpt lat="43.75721" lon="5.93038">
        <ele>428.2</ele>
        <time>2022-02-21T00:45:26Z</time>
      </trkpt>
      <trkpt lat="43.75741" lon="5.93025">
        <ele>426.5</ele>
        <time>2022-02-21T00:45:30Z</time>
      </trkpt>
      <trkpt lat="43.75748" lon="5.93001">
        <ele>427.1</ele>
        <time>2022-02-21T00:45:40Z</time>
      </trkpt>
      <trkpt lat="43.75762" lon="5.92979">
        <ele>423.9</ele>
        <time>2022-02-21T00:45:55Z</time>
      </trkpt>
      <trkpt lat="43.75779" lon="5.92964">
        <ele>420.8</ele>
        <time>2022-02-21T00:46:03Z</time>
      </trkpt>
      <trkpt lat="43.75819" lon="5.92932">
        <ele>416.4</ele>
        <time>2022-02-21T00:46:05Z</time>
      </trkpt>
      <trkpt lat="43.75825" lon="5.92927">
        <ele>416.1</ele>
        <time>2022-02-21T00:46:23Z</time>
      </trkpt>
      <trkpt lat="43.7584" lon="5.92906">
        <ele>415</ele>
        <time>2022-02-21T00:46:43Z</time>
      </trkpt>
      <trkpt lat="43.75844" lon="5.92871">
        <ele>415.3</ele>
        <time>2022-02-21T00:46:55Z</time>
      </trkpt>
      <trkpt lat="43.75844" lon="5.92846">
        <ele>416.3</ele>
        <time>2022-02-21T00:47:07Z</time>
      </trkpt>
      <trkpt lat="43.75842" lon="5.9282">
        <ele>416</ele>
        <time>2022-02-21T00:47:17Z</time>
      </trkpt>
      <trkpt lat="43.75849" lon="5.92792">
        <ele>410.2</ele>
        <time>2022-02-21T00:47:21Z</time>
      </trkpt>
      <trkpt lat="43.75864" lon="5.92755">
        <ele>398.5</ele>
        <time>2022-02-21T00:47:24Z</time>
      </trkpt>
      <trkpt lat="43.75874" lon="5.92715">
        <ele>384.9</ele>
        <time>2022-02-21T00:47:43Z</time>
      </trkpt>
      <trkpt lat="43.75872" lon="5.92679">
        <ele>378.8</ele>
        <time>2022-02-21T00:47:50Z</time>
      </trkpt>
      <trkpt lat="43.7587" lon="5.9266">
        <ele>376.6</ele>
        <time>2022-02-21T00:47:59Z</time>
      </trkpt>
      <trkpt lat="43.75872" lon="5.92641">
        <ele>371</ele>
        <time>2022-02-21T00:48:16Z</time>
      </trkpt>
      <trkpt lat="43.75881" lon="5.92641">
        <ele>365.5</ele>
        <time>2022-02-21T00:48:33Z</time>
      </trkpt>
      <trkpt lat="43.75897" lon="5.92658">
        <ele>358.4</ele>
        <time>2022-02-21T00:48:39Z</time>
      </trkpt>
      <trkpt lat="43.75926" lon="5.92696">
        <ele>351.9</ele>
        <time>2022-02-21T00:48:52Z</time>
      </trkpt>
      <trkpt lat="43.75931" lon="5.92703">
        <ele>352.2</ele>
        <time>2022-02-21T00:48:57Z</time>
      </trkpt>
      <trkpt lat="43.75946" lon="5.92736">
        <ele>353.5</ele>
        <time>2022-02-21T00:49:08Z</time>
      </trkpt>
      <trkpt lat="43.75947" lon="5.92782">
        <ele>364.4</ele>
        <time>2022-02-21T00:49:18Z</time>
      </trkpt>
      <trkpt lat="43.7595" lon="5.92809">
        <ele>370.1</ele>
        <time>2022-02-21T00:49:35Z</time>
      </trkpt>
      <trkpt lat="43.75957" lon="5.92871">
        <ele>377.6</ele>
        <time>2022-02-21T00:49:50Z</time>
      </trkpt>
      <trkpt lat="43.7596" lon="5.92888">
        <ele>378</ele>
        <time>2022-02-21T00:50:03Z</time>
      </trkpt>
      <trkpt lat="43.75956" lon="5.92912">
        <ele>382.4</ele>
        <time>2022-02-21T00:50:12Z</time>
      </trkpt>
      <trkpt lat="43.75922" lon="5.92945">
        <ele>392.9</ele>
        <time>2022-02-21T00:50:15Z</time>
      </trkpt>
      <trkpt lat="43.75905" lon="5.92962">
        <ele>396</ele>
        <time>2022-02-21T00:50:28Z</time>
      </trkpt>
      <trkpt lat="43.75895" lon="5.9298">
        <ele>396.9</ele>
        <time>2022-02-21T00:50:44Z</time>
      </trkpt>
      <trkpt lat="43.75889" lon="5.93">
        <ele>396.7</ele>
        <time>2022-02-21T00:50:50Z</time>
      </trkpt>
      <trkpt lat="43.75895" lon="5.93025">
        <ele>396.8</ele>
        <time>2022-02-21T00:50:56Z</time>
      </trkpt>
      <trkpt lat="43.75914" lon="5.93027">
        <ele>392.2</ele>
        <time>2022-02-21T00:50:59Z</time>
      </trkpt>
      <trkpt lat="43.75932" lon="5.93038">
        <ele>388.9</ele>
        <time>2022-02-21T00:51:10Z</time>
      </trkpt>
      <trkpt lat="43.75951" lon="5.9307">
        <ele>387.8</ele>
        <time>2022-02-21T00:51:30Z</time>
      </trkpt>
      <trkpt lat="43.75949" lon="5.93115">
        <ele>395.2</ele>
        <time>2022-02-21T00:51:35Z</time>
      </trkpt>
      <trkpt lat="43.7595" lon="5.93164">
        <ele>404.2</ele>
        <time>2022-02-21T00:51:51Z</time>
      </trkpt>
      <trkpt lat="43.7595" lon="5.93172">
        <ele>405.3</ele>
        <time>2022-02-21T00:52:09Z</time>
      </trkpt>
      <trkpt lat="43.75964" lon="5.93194">
        <ele>407.8</ele>
        <time>2022-02-21T00:52:23Z</time>
      </trkpt>
      <trkpt lat="43.75982" lon="5.93177">
        <ele>404.1</ele>
        <time>2022-02-21T00:52:37Z</time>
      </trkpt>
      <trkpt lat="43.76" lon="5.93155">
        <ele>398.2</ele>
        <time>2022-02-21T00:52:40Z</time>
      </trkpt>
      <trkpt lat="43.76032" lon="5.93138">
        <ele>390.9</ele>
        <time>2022-02-21T00:53:00Z</time>
      </trkpt>
      <trkpt lat="43.76059" lon="5.93136">
        <ele>388.3</ele>
        <time>2022-02-21T00:53:20Z</time>
      </trkpt>
      <trkpt lat="43.76095" lon="5.93151">
        <ele>386.3</ele>
        <time>2022-02-21T00:53:27Z</time>
      </trkpt>
      <trkpt lat="43.76121" lon="5.93169">
        <ele>384.8</ele>
        <time>2022-02-21T00:53:29Z</time>
      </trkpt>
      <trkpt lat="43.76143" lon="5.93202">
        <ele>382.3</ele>
        <time>2022-02-21T00:53:34Z</time>
      </trkpt>
      <trkpt lat="43.76161" lon="5.9323">
        <ele>379.6</ele>
        <time>2022-02-21T00:53:52Z</time>
      </trkpt>
      <trkpt lat="43.76174" lon="5.93264">
        <ele>376.7</ele>
        <time>2022-02-21T00:53:59Z</time>
      </trkpt>
      <trkpt lat="43.76183" lon="5.93338">
        <ele>376.2</ele>
        <time>2022-02-21T00:54:09Z</time>
      </trkpt>
      <trkpt lat="43.76191" lon="5.93386">
        <ele>374.5</ele>
        <time>2022-02-21T00:54:15Z</time>
      </trkpt>
      <trkpt lat="43.76191" lon="5.93418">
        <ele>375.3</ele>
        <time>2022-02-21T00:54:19Z</time>
      </trkpt>
      <trkpt lat="43.76194" lon="5.93488">
        <ele>375</ele>
        <time>2022-02-21T00:54:31Z</time>
      </trkpt>
      <trkpt lat="43.762" lon="5.93516">
        <ele>374.3</ele>
        <time>2022-02-21T00:54:48Z</time>
      </trkpt>
      <trkpt lat="43.76234" lon="5.93546">
        <ele>368</ele>
        <time>2022-02-21T00:55:01Z</time>
      </trkpt>
      <trkpt lat="43.7622" lon="5.93598">
        <ele>374.2</ele>
        <time>2022-02-21T00:55:15Z</time>
      </trkpt>
      <trkpt lat="43.76229" lon="5.9362">
        <ele>373.1</ele>
        <time>2022-02-21T00:55:29Z</time>
      </trkpt>
      <trkpt lat="43.76234" lon="5.93642">
        <ele>373.3</ele>
        <time>2022-02-21T00:55:34Z</time>
      </trkpt>
      <trkpt lat="43.76233" lon="5.9367">
        <ele>374.8</ele>
        <time>2022-02-21T00:55:54Z</time>
      </trkpt>
      <trkpt lat="43.7624" lon="5.93716">
        <ele>374.1</ele>
        <time>2022-02-21T00:56:10Z</time>
      </trkpt>
      <trkpt lat="43.76253" lon="5.93737">
        <ele>372.6</ele>
        <time>2022-02-21T00:56:30Z</time>
      </trkpt>
      <trkpt lat="43.76258" lon="5.93758">
        <ele>373.8</ele>
        <time>2022-02-21T00:56:32Z</time>
      </trkpt>
      <trkpt lat="43.7625" lon="5.93773">
        <ele>376.1</ele>
        <time>2022-02-21T00:56:50Z</time>
      </trkpt>
      <trkpt lat="43.76229" lon="5.93801">
        <ele>382.2</ele>
        <time>2022-02-21T00:57:06Z</time>
      </trkpt>
      <trkpt lat="43.76225" lon="5.93831">
        <ele>385.9</ele>
        <time>2022-02-21T00:57:15Z</time>
      </trkpt>
      <trkpt lat="43.76233" lon="5.93833">
        <ele>385.3</ele>
        <time>2022-02-21T00:57:35Z</time>
      </trkpt>
      <trkpt lat="43.76251" lon="5.93829">
        <ele>383.2</ele>
        <time>2022-02-21T00:57:52Z</time>
      </trkpt>
      <trkpt lat="43.76278" lon="5.93833">
        <ele>382</ele>
        <time>2022-02-21T00:57:59Z</time>
      </trkpt>
      <trkpt lat="43.76313" lon="5.93847">
        <ele>380.7</ele>
        <time>2022-02-21T00:58:07Z</time>
      </trkpt>
      <trkpt lat="43.76327" lon="5.93864">
        <ele>381</ele>
        <time>2022-02-21T00:58:25Z</time>
      </trkpt>
      <trkpt lat="43.76336" lon="5.93898">
        <ele>382.9</ele>
        <time>2022-02-21T00:58:32Z</time>
      </trkpt>
      <trkpt lat="43.76354" lon="5.93942">
        <ele>382.7</ele>
        <time>2022-02-21T00:58:51Z</time>
      </trkpt>
      <trkpt lat="43.76362" lon="5.93962">
        <ele>382.3</ele>
        <time>2022-02-21T00:59:00Z</time>
      </trkpt>
      <trkpt lat="43.7638" lon="5.93979">
        <ele>379.9</ele>
        <time>2022-02-21T00:59:10Z</time>
      </trkpt>
      <trkpt lat="43.76396" lon="5.93994">
        <ele>377.6</ele>
        <time>2022-02-21T00:59:23Z</time>
      </trkpt>
      <trkpt lat="43.7642" lon="5.9404">
        <ele>375.1</ele>
        <time>2022-02-21T00:59:37Z</time>
      </trkpt>
      <trkpt lat="43.76434" lon="5.9407">
        <ele>374.3</ele>
        <time>2022-02-21T00:59:45Z</time>
      </trkpt>
      <trkpt lat="43.76445" lon="5.94115">
        <ele>376.6</ele>
        <time>2022-02-21T00:59:54Z</time>
      </trkpt>
      <trkpt lat="43.76448" lon="5.94126">
        <ele>377.3</ele>
        <time>2022-02-21T01:00:13Z</time>
      </trkpt>
      <trkpt lat="43.76471" lon="5.94162">
        <ele>378.8</ele>
        <time>2022-02-21T01:00:25Z</time>
      </trkpt>
      <trkpt lat="43.76492" lon="5.94196">
        <ele>378.8</ele>
        <time>2022-02-21T01:00:41Z</time>
      </trkpt>
      <trkpt lat="43.76507" lon="5.94212">
        <ele>377.3</ele>
        <time>2022-02-21T01:00:54Z</time>
      </trkpt>
      <trkpt lat="43.76543" lon="5.94257">
        <ele>373.7</ele>
        <time>2022-02-21T01:01:03Z</time>
      </trkpt>
      <trkpt lat="43.76555" lon="5.9427">
        <ele>373</ele>
        <time>2022-02-21T01:01:06Z</time>
      </trkpt>
      <trkpt lat="43.76562" lon="5.94295">
        <ele>374.3</ele>
        <time>2022-02-21T01:01:21Z</time>
      </trkpt>
      <trkpt lat="43.76548" lon="5.94328">
        <ele>377.8</ele>
        <time>2022-02-21T01:01:33Z</time>
      </trkpt>
      <trkpt lat="43.76531" lon="5.9437">
        <ele>379.9</ele>
        <time>2022-02-21T01:01:37Z</time>
      </trkpt>
      <trkpt lat="43.76528" lon="5.94405">
        <ele>380.7</ele>
        <time>2022-02-21T01:01:39Z</time>
      </trkpt>
      <trkpt lat="43.76551" lon="5.94445">
        <ele>382.2</ele>
        <time>2022-02-21T01:01:59Z</time>
      </trkpt>
      <trkpt lat="43.76547" lon="5.94534">
        <ele>386.5</ele>
        <time>2022-02-21T01:02:08Z</time>
      </trkpt>
      <trkpt lat="43.76539" lon="5.94586">
        <ele>391.5</ele>
        <time>2022-02-21T01:02:15Z</time>
      </trkpt>
      <trkpt lat="43.76545" lon="5.94608">
        <ele>395.8</ele>
        <time>2022-02-21T01:02:29Z</time>
      </trkpt>
      <trkpt lat="43.7656" lon="5.94607">
        <ele>397.1</ele>
        <time>2022-02-21T01:02:46Z</time>
      </trkpt>
      <trkpt lat="43.76591" lon="5.94587">
        <ele>395.5</ele>
        <time>2022-02-21T01:02:49Z</time>
      </trkpt>
      <trkpt lat="43.76621" lon="5.94567">
        <ele>392.5</ele>
        <time>2022-02-21T01:03:01Z</time>
      </trkpt>
      <trkpt lat="43.76663" lon="5.94556">
        <ele>391.3</ele>
        <time>2022-02-21T01:03:13Z</time>
      </trkpt>
      <trkpt lat="43.76685" lon="5.94538">
        <ele>384.8</ele>
        <time>2022-02-21T01:03:21Z</time>
      </trkpt>
      <trkpt lat="43.76697" lon="5.94526">
        <ele>381</ele>
        <time>2022-02-21T01:03:40Z</time>
      </trkpt>
      <trkpt lat="43.76708" lon="5.9453">
        <ele>378.1</ele>
        <time>2022-02-21T01:03:46Z</time>
      </trkpt>
      <trkpt lat="43.76726" lon="5.94578">
        <ele>376.3</ele>
        <time>2022-02-21T01:03:59Z</time>
      </trkpt>
      <trkpt lat="43.76749" lon="5.94611">
        <ele>371.9</ele>
        <time>2022-02-21T01:04:11Z</time>
      </trkpt>
      <trkpt lat="43.76772" lon="5.9467">
        <ele>370.9</ele>
        <time>2022-02-21T01:04:31Z</time>
      </trkpt>
      <trkpt lat="43.76798" lon="5.94712">
        <ele>367.4</ele>
        <time>2022-02-21T01:04:48Z</time>
      </trkpt>
      <trkpt lat="43.76806" lon="5.94725">
        <ele>365.8</ele>
        <time>2022-02-21T01:04:50Z</time>
      </trkpt>
      <trkpt lat="43.76817" lon="5.94765">
        <ele>364.4</ele>
        <time>2022-02-21T01:05:01Z</time>
      </trkpt>
      <trkpt lat="43.76817" lon="5.94792">
        <ele>365.9</ele>
        <time>2022-02-21T01:05:21Z</time>
      </trkpt>
      <trkpt lat="43.76827" lon="5.94828">
        <ele>364.6</ele>
        <time>2022-02-21T01:05:26Z</time>
      </trkpt>
      <trkpt lat="43.7685" lon="5.94855">
        <ele>363.8</ele>
        <time>2022-02-21T01:05:41Z</time>
      </trkpt>
      <trkpt lat="43.76873" lon="5.94901">
        <ele>363.6</ele>
        <time>2022-02-21T01:05:48Z</time>
      </trkpt>
      <trkpt lat="43.76891" lon="5.94966">
        <ele>362.3</ele>
        <time>2022-02-21T01:06:00Z</time>
      </trkpt>
      <trkpt lat="43.76914" lon="5.95058">
        <ele>360.7</ele>
        <time>2022-02-21T01:06:13Z</time>
      </trkpt>
      <trkpt lat="43.76923" lon="5.95107">
        <ele>362</ele>
        <time>2022-02-21T01:06:31Z</time>
      </trkpt>
      <trkpt lat="43.76925" lon="5.95117">
        <ele>362.4</ele>
        <time>2022-02-21T01:06:38Z</time>
      </trkpt>
      <trkpt lat="43.76935" lon="5.95145">
        <ele>363.1</ele>
        <time>2022-02-21T01:06:53Z</time>
      </trkpt>
      <trkpt lat="43.76945" lon="5.95145">
        <ele>362.7</ele>
        <time>2022-02-21T01:07:01Z</time>
      </trkpt>
      <trkpt lat="43.76949" lon="5.95139">
        <ele>362.4</ele>
        <time>2022-02-21T01:07:07Z</time>
      </trkpt>
      <trkpt lat="43.76951" lon="5.95124">
        <ele>361.9</ele>
        <time>2022-02-21T01:07:23Z</time>
      </trkpt>
      <trkpt lat="43.76944" lon="5.951">
        <ele>361.4</ele>
        <time>2022-02-21T01:07:37Z</time>
      </trkpt>
      <trkpt lat="43.76927" lon="5.95047">
        <ele>359.8</ele>
        <time>2022-02-21T01:07:50Z</time>
      </trkpt>
      <trkpt lat="43.76923" lon="5.9503">
        <ele>359.2</ele>
        <time>2022-02-21T01:07:54Z</time>
      </trkpt>
      <trkpt lat="43.76919" lon="5.94978">
        <ele>358.4</ele>
        <time>2022-02-21T01:07:59Z</time>
      </trkpt>
      <trkpt lat="43.76921" lon="5.94917">
        <ele>359.4</ele>
        <time>2022-02-21T01:08:17Z</time>
      </trkpt>
      <trkpt lat="43.76918" lon="5.9485">
        <ele>362.3</ele>
        <time>2022-02-21T01:08:23Z</time>
      </trkpt>
      <trkpt lat="43.76911" lon="5.94803">
        <ele>364.9</ele>
        <time>2022-02-21T01:08:25Z</time>
      </trkpt>
      <trkpt lat="43.76918" lon="5.94775">
        <ele>367.4</ele>
        <time>2022-02-21T01:08:40Z</time>
      </trkpt>
      <trkpt lat="43.76946" lon="5.94751">
        <ele>372.9</ele>
        <time>2022-02-21T01:08:50Z</time>
      </trkpt>
      <trkpt lat="43.76943" lon="5.94731">
        <ele>372.7</ele>
        <time>2022-02-21T01:09:04Z</time>
      </trkpt>
      <trkpt lat="43.76931" lon="5.94707">
        <ele>371.6</ele>
        <time>2022-02-21T01:09:23Z</time>
      </trkpt>
      <trkpt lat="43.76928" lon="5.94666">
        <ele>371.6</ele>
        <time>2022-02-21T01:09:27Z</time>
      </trkpt>
      <trkpt lat="43.76935" lon="5.94637">
        <ele>372</ele>
        <time>2022-02-21T01:09:33Z</time>
      </trkpt>
      <trkpt lat="43.76934" lon="5.94615">
        <ele>371.1</ele>
        <time>2022-02-21T01:09:52Z</time>
      </trkpt>
      <trkpt lat="43.7694" lon="5.94591">
        <ele>371.6</ele>
        <time>2022-02-21T01:10:10Z</time>
      </trkpt>
      <trkpt lat="43.76947" lon="5.94565">
        <ele>372.3</ele>
        <time>2022-02-21T01:10:16Z</time>
      </trkpt>
      <trkpt lat="43.76958" lon="5.9454">
        <ele>373.1</ele>
        <time>2022-02-21T01:10:24Z</time>
      </trkpt>
      <trkpt lat="43.76969" lon="5.94499">
        <ele>372.7</ele>
        <time>2022-02-21T01:10:27Z</time>
      </trkpt>
      <trkpt lat="43.76974" lon="5.94492">
        <ele>372.4</ele>
        <time>2022-02-21T01:10:34Z</time>
      </trkpt>
      <trkpt lat="43.76979" lon="5.94492">
        <ele>373.2</ele>
        <time>2022-02-21T01:10:43Z</time>
      </trkpt>
      <trkpt lat="43.7698" lon="5.94494">
        <ele>373.5</ele>
        <time>2022-02-21T01:10:52Z</time>
      </trkpt>
      <trkpt lat="43.76981" lon="5.94499">
        <ele>374.4</ele>
        <time>2022-02-21T01:10:54Z</time>
      </trkpt>
      <trkpt lat="43.76992" lon="5.94478">
        <ele>372.9</ele>
        <time>2022-02-21T01:11:05Z</time>
      </trkpt>
      <trkpt lat="43.77003" lon="5.94451">
        <ele>369.8</ele>
        <time>2022-02-21T01:11:18Z</time>
      </trkpt>
      <trkpt lat="43.77016" lon="5.94425">
        <ele>365.9</ele>
        <time>2022-02-21T01:11:31Z</time>
      </trkpt>
      <trkpt lat="43.77031" lon="5.94414">
        <ele>364.5</ele>
        <time>2022-02-21T01:11:39Z</time>
      </trkpt>
      <trkpt lat="43.77031" lon="5.94403">
        <ele>363.8</ele>
        <time>2022-02-21T01:11:52Z</time>
      </trkpt>
      <trkpt lat="43.77023" lon="5.94389">
        <ele>362.9</ele>
        <time>2022-02-20T06:23:30Z</time>
      </trkpt>
      <trkpt lat="43.76984" lon="5.94368">
        <ele>360.5</ele>
        <time>2021-10-19T03:11:52Z</time>
      </trkpt>
      <trkpt lat="43.76968" lon="5.94315">
        <ele>357.6</ele>
      </trkpt>
      <trkpt lat="43.76952" lon="5.9415">
        <ele>366.9</ele>
      </trkpt>
      <trkpt lat="43.76953" lon="5.94015">
        <ele>377</ele>
      </trkpt>
      <trkpt lat="43.76923" lon="5.94006">
        <ele>379.3</ele>
      </trkpt>
      <trkpt lat="43.76912" lon="5.93952">
        <ele>382.8</ele>
        <time>2022-02-21T01:19:18Z</time>
      </trkpt>
      <trkpt lat="43.76908" lon="5.93921">
        <ele>384.4</ele>
        <time>2022-02-21T01:19:23Z</time>
      </trkpt>
      <trkpt lat="43.76901" lon="5.93884">
        <ele>386.8</ele>
        <time>2022-02-21T01:19:34Z</time>
      </trkpt>
      <trkpt lat="43.76889" lon="5.93885">
        <ele>386</ele>
        <time>2022-02-21T01:19:48Z</time>
      </trkpt>
      <trkpt lat="43.76866" lon="5.9391">
        <ele>383.1</ele>
        <time>2022-02-21T01:20:03Z</time>
      </trkpt>
      <trkpt lat="43.76862" lon="5.93914">
        <ele>382.5</ele>
        <time>2022-02-21T01:20:13Z</time>
      </trkpt>
      <trkpt lat="43.76839" lon="5.93892">
        <ele>382.6</ele>
        <time>2022-02-21T01:20:33Z</time>
      </trkpt>
      <trkpt lat="43.76823" lon="5.93869">
        <ele>382.5</ele>
        <time>2022-02-21T01:20:47Z</time>
      </trkpt>
      <trkpt lat="43.76814" lon="5.93848">
        <ele>382.8</ele>
        <time>2022-02-21T01:20:52Z</time>
      </trkpt>
      <trkpt lat="43.76812" lon="5.93815">
        <ele>385.2</ele>
        <time>2022-02-21T01:21:01Z</time>
      </trkpt>
      <trkpt lat="43.76815" lon="5.93789">
        <ele>388.3</ele>
        <time>2022-02-21T01:21:17Z</time>
      </trkpt>
      <trkpt lat="43.76817" lon="5.93775">
        <ele>389.9</ele>
        <time>2022-02-21T01:21:37Z</time>
      </trkpt>
      <trkpt lat="43.76822" lon="5.93763">
        <ele>391.9</ele>
        <time>2022-02-21T01:21:54Z</time>
      </trkpt>
      <trkpt lat="43.76824" lon="5.93719">
        <ele>398.6</ele>
        <time>2022-02-21T01:22:09Z</time>
      </trkpt>
      <trkpt lat="43.76816" lon="5.93693">
        <ele>400.9</ele>
        <time>2022-02-21T01:22:11Z</time>
      </trkpt>
      <trkpt lat="43.76803" lon="5.93651">
        <ele>402.2</ele>
        <time>2022-02-21T01:22:26Z</time>
      </trkpt>
      <trkpt lat="43.76806" lon="5.93622">
        <ele>404</ele>
        <time>2022-02-21T01:22:39Z</time>
      </trkpt>
      <trkpt lat="43.76808" lon="5.93605">
        <ele>405.1</ele>
        <time>2022-02-21T01:22:47Z</time>
      </trkpt>
      <trkpt lat="43.768" lon="5.93569">
        <ele>402.8</ele>
        <time>2022-02-21T01:22:51Z</time>
      </trkpt>
      <trkpt lat="43.76758" lon="5.93531">
        <ele>390.4</ele>
        <time>2022-02-21T01:23:08Z</time>
      </trkpt>
      <trkpt lat="43.76749" lon="5.93526">
        <ele>388.2</ele>
        <time>2022-02-21T01:23:18Z</time>
      </trkpt>
      <trkpt lat="43.76751" lon="5.93528">
        <ele>388.7</ele>
        <time>2022-02-21T01:23:35Z</time>
      </trkpt>
      <trkpt lat="43.76748" lon="5.93527">
        <ele>388</ele>
        <time>2022-02-21T01:23:44Z</time>
      </trkpt>
      <trkpt lat="43.76748" lon="5.93526">
        <ele>388</ele>
        <time>2022-02-21T01:23:51Z</time>
      </trkpt>
      <trkpt lat="43.76725" lon="5.93501">
        <ele>385.4</ele>
        <time>2022-02-21T01:23:53Z</time>
      </trkpt>
      <trkpt lat="43.76713" lon="5.93479">
        <ele>386.8</ele>
        <time>2022-02-21T01:23:56Z</time>
      </trkpt>
      <trkpt lat="43.76706" lon="5.93446">
        <ele>390.3</ele>
        <time>2022-02-21T01:24:01Z</time>
      </trkpt>
      <trkpt lat="43.76707" lon="5.93413">
        <ele>394.9</ele>
        <time>2022-02-21T01:24:18Z</time>
      </trkpt>
      <trkpt lat="43.76708" lon="5.93392">
        <ele>396.6</ele>
        <time>2022-02-21T01:24:30Z</time>
      </trkpt>
      <trkpt lat="43.76704" lon="5.93359">
        <ele>397.4</ele>
        <time>2022-02-21T01:24:41Z</time>
      </trkpt>
      <trkpt lat="43.76694" lon="5.9335">
        <ele>395.2</ele>
        <time>2022-02-21T01:24:47Z</time>
      </trkpt>
      <trkpt lat="43.76673" lon="5.93348">
        <ele>389.9</ele>
        <time>2022-02-21T01:25:01Z</time>
      </trkpt>
      <trkpt lat="43.76644" lon="5.93343">
        <ele>386.1</ele>
        <time>2022-02-21T01:25:03Z</time>
      </trkpt>
      <trkpt lat="43.76611" lon="5.93338">
        <ele>383.2</ele>
        <time>2022-02-21T01:25:11Z</time>
      </trkpt>
      <trkpt lat="43.76604" lon="5.93335">
        <ele>382.8</ele>
        <time>2022-02-21T01:25:18Z</time>
      </trkpt>
      <trkpt lat="43.76594" lon="5.9332">
        <ele>383.5</ele>
        <time>2022-02-21T01:25:34Z</time>
      </trkpt>
      <trkpt lat="43.76587" lon="5.93297">
        <ele>385.4</ele>
        <time>2022-02-21T01:25:46Z</time>
      </trkpt>
      <trkpt lat="43.7659" lon="5.93273">
        <ele>388</ele>
        <time>2022-02-21T01:25:59Z</time>
      </trkpt>
      <trkpt lat="43.76605" lon="5.93238">
        <ele>391.9</ele>
        <time>2022-02-21T01:26:13Z</time>
      </trkpt>
      <trkpt lat="43.76613" lon="5.93214">
        <ele>393.3</ele>
        <time>2022-02-21T01:26:23Z</time>
      </trkpt>
      <trkpt lat="43.76588" lon="5.93164">
        <ele>392</ele>
        <time>2022-02-21T01:26:35Z</time>
      </trkpt>
      <trkpt lat="43.76574" lon="5.93134">
        <ele>395.6</ele>
        <time>2022-02-21T01:26:55Z</time>
      </trkpt>
      <trkpt lat="43.76554" lon="5.93111">
        <ele>396.4</ele>
        <time>2022-02-21T01:27:01Z</time>
      </trkpt>
      <trkpt lat="43.76524" lon="5.93081">
        <ele>395.6</ele>
        <time>2022-02-21T01:27:08Z</time>
      </trkpt>
      <trkpt lat="43.7652" lon="5.93076">
        <ele>395.4</ele>
        <time>2022-02-21T01:27:19Z</time>
      </trkpt>
      <trkpt lat="43.7651" lon="5.93042">
        <ele>397.2</ele>
        <time>2022-02-21T01:27:39Z</time>
      </trkpt>
      <trkpt lat="43.76517" lon="5.92983">
        <ele>404.1</ele>
        <time>2022-02-21T01:27:58Z</time>
      </trkpt>
      <trkpt lat="43.76508" lon="5.92955">
        <ele>403.8</ele>
        <time>2022-02-21T01:28:05Z</time>
      </trkpt>
      <trkpt lat="43.76469" lon="5.92917">
        <ele>396.5</ele>
        <time>2022-02-21T01:28:13Z</time>
      </trkpt>
      <trkpt lat="43.76453" lon="5.92882">
        <ele>395.8</ele>
        <time>2022-02-21T01:28:32Z</time>
      </trkpt>
      <trkpt lat="43.76448" lon="5.92847">
        <ele>397.6</ele>
        <time>2022-02-21T01:28:44Z</time>
      </trkpt>
      <trkpt lat="43.76455" lon="5.92782">
        <ele>401.8</ele>
        <time>2022-02-21T01:29:04Z</time>
      </trkpt>
      <trkpt lat="43.76447" lon="5.92762">
        <ele>400.6</ele>
        <time>2022-02-21T01:29:13Z</time>
      </trkpt>
      <trkpt lat="43.76422" lon="5.92773">
        <ele>394.6</ele>
        <time>2022-02-21T01:29:21Z</time>
      </trkpt>
      <trkpt lat="43.76397" lon="5.92779">
        <ele>390.4</ele>
        <time>2022-02-21T01:29:32Z</time>
      </trkpt>
      <trkpt lat="43.76377" lon="5.92781">
        <ele>387.1</ele>
        <time>2022-02-21T01:29:49Z</time>
      </trkpt>
      <trkpt lat="43.76361" lon="5.9278">
        <ele>384.7</ele>
        <time>2022-02-21T01:30:07Z</time>
      </trkpt>
      <trkpt lat="43.76344" lon="5.92768">
        <ele>384.5</ele>
        <time>2022-02-21T01:30:21Z</time>
      </trkpt>
      <trkpt lat="43.7633" lon="5.92733">
        <ele>390.7</ele>
        <time>2022-02-21T01:30:30Z</time>
      </trkpt>
      <trkpt lat="43.76301" lon="5.92686">
        <ele>396.5</ele>
        <time>2022-02-21T01:30:38Z</time>
      </trkpt>
      <trkpt lat="43.7629" lon="5.92651">
        <ele>400.6</ele>
        <time>2022-02-21T01:30:44Z</time>
      </trkpt>
      <trkpt lat="43.76283" lon="5.92599">
        <ele>405.7</ele>
        <time>2022-02-21T01:31:03Z</time>
      </trkpt>
      <trkpt lat="43.76278" lon="5.92575">
        <ele>406.7</ele>
        <time>2022-02-21T01:31:10Z</time>
      </trkpt>
      <trkpt lat="43.76276" lon="5.92573">
        <ele>406.4</ele>
        <time>2022-02-21T01:31:24Z</time>
      </trkpt>
      <trkpt lat="43.76276" lon="5.92578">
        <ele>406.1</ele>
        <time>2022-02-21T01:31:41Z</time>
      </trkpt>
      <trkpt lat="43.7627" lon="5.92571">
        <ele>404.8</ele>
        <time>2022-02-21T01:31:59Z</time>
      </trkpt>
      <trkpt lat="43.76257" lon="5.92562">
        <ele>402</ele>
        <time>2022-02-21T01:32:08Z</time>
      </trkpt>
      <trkpt lat="43.76256" lon="5.92549">
        <ele>402.2</ele>
        <time>2022-02-21T01:32:26Z</time>
      </trkpt>
      <trkpt lat="43.76261" lon="5.9254">
        <ele>404</ele>
        <time>2022-02-21T01:32:44Z</time>
      </trkpt>
      <trkpt lat="43.76267" lon="5.92535">
        <ele>405.7</ele>
        <time>2022-02-21T01:32:57Z</time>
      </trkpt>
      <trkpt lat="43.76277" lon="5.92518">
        <ele>409.1</ele>
        <time>2022-02-21T01:33:12Z</time>
      </trkpt>
      <trkpt lat="43.76278" lon="5.92509">
        <ele>409.7</ele>
        <time>2022-02-21T01:33:20Z</time>
      </trkpt>
      <trkpt lat="43.76275" lon="5.92495">
        <ele>409.7</ele>
        <time>2022-02-21T01:33:26Z</time>
      </trkpt>
      <trkpt lat="43.76278" lon="5.9248">
        <ele>411.3</ele>
        <time>2022-02-21T01:33:28Z</time>
      </trkpt>
      <trkpt lat="43.76278" lon="5.92478">
        <ele>411.6</ele>
        <time>2022-02-21T01:33:37Z</time>
      </trkpt>
      <trkpt lat="43.76275" lon="5.92438">
        <ele>413.4</ele>
        <time>2022-02-21T01:33:43Z</time>
      </trkpt>
      <trkpt lat="43.76269" lon="5.92413">
        <ele>414.1</ele>
        <time>2022-02-21T01:33:51Z</time>
      </trkpt>
      <trkpt lat="43.76257" lon="5.92403">
        <ele>412.7</ele>
        <time>2022-02-21T01:33:56Z</time>
      </trkpt>
      <trkpt lat="43.7624" lon="5.924">
        <ele>410.2</ele>
        <time>2022-02-21T01:33:58Z</time>
      </trkpt>
      <trkpt lat="43.7623" lon="5.9239">
        <ele>409.5</ele>
        <time>2022-02-21T01:34:09Z</time>
      </trkpt>
      <trkpt lat="43.76224" lon="5.92374">
        <ele>410.1</ele>
        <time>2022-02-21T01:34:18Z</time>
      </trkpt>
      <trkpt lat="43.76224" lon="5.92334">
        <ele>413.9</ele>
        <time>2022-02-21T01:34:31Z</time>
      </trkpt>
      <trkpt lat="43.7622" lon="5.92286">
        <ele>417.6</ele>
        <time>2022-02-21T01:34:33Z</time>
      </trkpt>
      <trkpt lat="43.76228" lon="5.92236">
        <ele>424.1</ele>
        <time>2022-02-21T01:34:43Z</time>
      </trkpt>
      <trkpt lat="43.76231" lon="5.92222">
        <ele>426.5</ele>
        <time>2022-02-21T01:34:46Z</time>
      </trkpt>
      <trkpt lat="43.76225" lon="5.9221">
        <ele>427.2</ele>
        <time>2022-02-21T01:34:59Z</time>
      </trkpt>
      <trkpt lat="43.762" lon="5.92204">
        <ele>423.9</ele>
        <time>2022-02-21T01:35:10Z</time>
      </trkpt>
      <trkpt lat="43.76184" lon="5.92189">
        <ele>423.3</ele>
        <time>2022-02-21T01:35:22Z</time>
      </trkpt>
      <trkpt lat="43.76172" lon="5.92167">
        <ele>424.8</ele>
        <time>2022-02-21T01:35:28Z</time>
      </trkpt>
      <trkpt lat="43.76159" lon="5.92121">
        <ele>429.9</ele>
        <time>2022-02-21T01:35:35Z</time>
      </trkpt>
      <trkpt lat="43.76147" lon="5.92062">
        <ele>429.3</ele>
        <time>2022-02-21T01:35:46Z</time>
      </trkpt>
      <trkpt lat="43.76144" lon="5.92034">
        <ele>424.9</ele>
        <time>2022-02-21T01:35:49Z</time>
      </trkpt>
      <trkpt lat="43.76137" lon="5.92016">
        <ele>421.1</ele>
        <time>2022-02-21T01:35:55Z</time>
      </trkpt>
      <trkpt lat="43.76128" lon="5.92003">
        <ele>417.7</ele>
        <time>2022-02-21T01:36:01Z</time>
      </trkpt>
      <trkpt lat="43.76103" lon="5.91989">
        <ele>410</ele>
        <time>2022-02-21T01:36:15Z</time>
      </trkpt>
      <trkpt lat="43.76101" lon="5.91987">
        <ele>409.1</ele>
        <time>2022-02-21T01:36:21Z</time>
      </trkpt>
      <trkpt lat="43.76096" lon="5.91983">
        <ele>407.6</ele>
        <time>2022-02-21T01:36:32Z</time>
      </trkpt>
      <trkpt lat="43.76088" lon="5.91981">
        <ele>405.7</ele>
        <time>2022-02-21T01:36:51Z</time>
      </trkpt>
      <trkpt lat="43.76089" lon="5.91981">
        <ele>405.8</ele>
        <time>2022-02-21T01:37:00Z</time>
      </trkpt>
      <trkpt lat="43.76084" lon="5.91977">
        <ele>404</ele>
        <time>2022-02-21T01:37:09Z</time>
      </trkpt>
      <trkpt lat="43.76058" lon="5.91972">
        <ele>400.7</ele>
        <time>2022-02-21T01:37:11Z</time>
      </trkpt>
      <trkpt lat="43.76057" lon="5.91973">
        <ele>401</ele>
        <time>2022-02-21T01:37:20Z</time>
      </trkpt>
      <trkpt lat="43.76033" lon="5.91958">
        <ele>396.6</ele>
        <time>2022-02-21T01:37:22Z</time>
      </trkpt>
      <trkpt lat="43.76002" lon="5.91955">
        <ele>394.5</ele>
        <time>2022-02-21T01:37:37Z</time>
      </trkpt>
      <trkpt lat="43.75972" lon="5.91951">
        <ele>388.2</ele>
        <time>2022-02-21T01:37:43Z</time>
      </trkpt>
      <trkpt lat="43.75925" lon="5.91941">
        <ele>378.3</ele>
        <time>2022-02-21T01:38:02Z</time>
      </trkpt>
      <trkpt lat="43.75909" lon="5.91935">
        <ele>375.4</ele>
        <time>2022-02-21T01:38:14Z</time>
      </trkpt>
      <trkpt lat="43.75895" lon="5.9192">
        <ele>373.9</ele>
        <time>2022-02-21T01:38:20Z</time>
      </trkpt>
      <trkpt lat="43.7586" lon="5.91927">
        <ele>369.8</ele>
        <time>2022-02-21T01:38:26Z</time>
      </trkpt>
      <trkpt lat="43.75851" lon="5.91934">
        <ele>368.2</ele>
        <time>2022-02-21T01:38:28Z</time>
      </trkpt>
      <trkpt lat="43.75837" lon="5.91936">
        <ele>366.3</ele>
        <time>2022-02-21T01:38:32Z</time>
      </trkpt>
      <trkpt lat="43.75818" lon="5.91943">
        <ele>363</ele>
        <time>2022-02-21T01:38:35Z</time>
      </trkpt>
      <trkpt lat="43.75804" lon="5.91935">
        <ele>362.2</ele>
        <time>2022-02-21T01:38:42Z</time>
      </trkpt>
      <trkpt lat="43.75792" lon="5.9192">
        <ele>362.7</ele>
        <time>2022-02-21T01:38:52Z</time>
      </trkpt>
      <trkpt lat="43.7577" lon="5.91912">
        <ele>359.9</ele>
        <time>2022-02-21T01:39:01Z</time>
      </trkpt>
      <trkpt lat="43.75759" lon="5.91917">
        <ele>359</ele>
        <time>2022-02-21T01:39:08Z</time>
      </trkpt>
      <trkpt lat="43.75755" lon="5.91929">
        <ele>357.1</ele>
        <time>2022-02-21T01:39:24Z</time>
      </trkpt>
      <trkpt lat="43.75747" lon="5.91942">
        <ele>354.1</ele>
        <time>2022-02-21T01:39:36Z</time>
      </trkpt>
      <trkpt lat="43.75732" lon="5.91941">
        <ele>351.2</ele>
        <time>2022-02-21T01:39:56Z</time>
      </trkpt>
      <trkpt lat="43.75726" lon="5.91923">
        <ele>351.8</ele>
        <time>2022-02-21T01:40:06Z</time>
      </trkpt>
      <trkpt lat="43.75732" lon="5.91894">
        <ele>351.8</ele>
        <time>2022-02-21T01:40:15Z</time>
      </trkpt>
      <trkpt lat="43.75731" lon="5.91871">
        <ele>349.7</ele>
        <time>2022-02-21T01:40:27Z</time>
      </trkpt>
      <trkpt lat="43.75718" lon="5.91852">
        <ele>346.4</ele>
        <time>2022-02-21T01:40:32Z</time>
      </trkpt>
      <trkpt lat="43.75713" lon="5.9185">
        <ele>345.6</ele>
        <time>2022-02-21T01:40:45Z</time>
      </trkpt>
      <trkpt lat="43.75698" lon="5.91857">
        <ele>343.7</ele>
        <time>2022-02-21T01:41:04Z</time>
      </trkpt>
      <trkpt lat="43.75677" lon="5.91867">
        <ele>340.7</ele>
        <time>2022-02-21T01:41:06Z</time>
      </trkpt>
      <trkpt lat="43.75637" lon="5.91813">
        <ele>339.4</ele>
        <time>2022-02-21T01:41:25Z</time>
      </trkpt>
      <trkpt lat="43.75624" lon="5.91786">
        <ele>341.8</ele>
        <time>2022-02-21T01:41:43Z</time>
      </trkpt>
      <trkpt lat="43.75616" lon="5.91743">
        <ele>345.4</ele>
        <time>2022-02-21T01:41:55Z</time>
      </trkpt>
      <trkpt lat="43.75619" lon="5.91699">
        <ele>347.6</ele>
        <time>2022-02-21T01:42:02Z</time>
      </trkpt>
      <trkpt lat="43.75639" lon="5.91614">
        <ele>347.7</ele>
        <time>2022-02-21T01:42:08Z</time>
      </trkpt>
      <trkpt lat="43.75657" lon="5.91541">
        <ele>343.4</ele>
        <time>2022-02-21T01:42:13Z</time>
      </trkpt>
      <trkpt lat="43.75669" lon="5.91484">
        <ele>340</ele>
        <time>2022-02-21T01:42:20Z</time>
      </trkpt>
      <trkpt lat="43.75677" lon="5.91452">
        <ele>338.3</ele>
        <time>2022-02-21T01:42:32Z</time>
      </trkpt>
      <trkpt lat="43.75668" lon="5.91432">
        <ele>335.5</ele>
        <time>2022-02-21T01:42:36Z</time>
      </trkpt>
      <trkpt lat="43.75657" lon="5.91433">
        <ele>333.8</ele>
        <time>2022-02-21T01:42:48Z</time>
      </trkpt>
      <trkpt lat="43.75626" lon="5.91448">
        <ele>329.8</ele>
        <time>2022-02-21T01:42:59Z</time>
      </trkpt>
      <trkpt lat="43.75599" lon="5.91514">
        <ele>329</ele>
        <time>2022-02-21T01:43:02Z</time>
      </trkpt>
      <trkpt lat="43.75577" lon="5.91528">
        <ele>325.9</ele>
        <time>2022-02-21T01:43:08Z</time>
      </trkpt>
      <trkpt lat="43.75548" lon="5.91532">
        <ele>322.8</ele>
        <time>2022-02-21T01:43:19Z</time>
      </trkpt>
      <trkpt lat="43.75514" lon="5.91537">
        <ele>319.1</ele>
        <time>2022-02-21T01:43:34Z</time>
      </trkpt>
      <trkpt lat="43.75449" lon="5.91551">
        <ele>313.9</ele>
        <time>2022-02-21T01:43:41Z</time>
      </trkpt>
      <trkpt lat="43.75426" lon="5.91557">
        <ele>312.4</ele>
        <time>2022-02-21T01:43:55Z</time>
      </trkpt>
      <trkpt lat="43.75413" lon="5.9155">
        <ele>311.5</ele>
        <time>2022-02-21T01:44:09Z</time>
      </trkpt>
      <trkpt lat="43.75406" lon="5.9153">
        <ele>311</ele>
        <time>2022-02-21T01:44:24Z</time>
      </trkpt>
      <trkpt lat="43.7539" lon="5.91488">
        <ele>310.1</ele>
        <time>2022-02-21T01:44:40Z</time>
      </trkpt>
      <trkpt lat="43.75377" lon="5.91437">
        <ele>311</ele>
        <time>2022-02-21T01:44:44Z</time>
      </trkpt>
      <trkpt lat="43.75368" lon="5.91392">
        <ele>310.9</ele>
        <time>2022-02-21T01:44:56Z</time>
      </trkpt>
      <trkpt lat="43.75363" lon="5.9136">
        <ele>310.3</ele>
        <time>2022-02-21T01:45:09Z</time>
      </trkpt>
      <trkpt lat="43.75357" lon="5.91323">
        <ele>309.9</ele>
        <time>2022-02-21T01:45:27Z</time>
      </trkpt>
      <trkpt lat="43.75353" lon="5.91276">
        <ele>310.2</ele>
        <time>2022-02-21T01:45:44Z</time>
      </trkpt>
      <trkpt lat="43.75357" lon="5.91239">
        <ele>310.3</ele>
        <time>2022-02-21T01:45:58Z</time>
      </trkpt>
      <trkpt lat="43.75356" lon="5.91176">
        <ele>309</ele>
        <time>2022-02-21T01:46:01Z</time>
      </trkpt>
      <trkpt lat="43.75358" lon="5.91132">
        <ele>308.9</ele>
        <time>2022-02-21T01:46:11Z</time>
      </trkpt>
      <trkpt lat="43.75362" lon="5.91067">
        <ele>308.9</ele>
        <time>2022-02-21T01:46:31Z</time>
      </trkpt>
      <trkpt lat="43.75368" lon="5.90992">
        <ele>308.5</ele>
        <time>2022-02-21T01:46:47Z</time>
      </trkpt>
      <trkpt lat="43.75378" lon="5.90942">
        <ele>307.8</ele>
        <time>2022-02-21T01:47:01Z</time>
      </trkpt>
      <trkpt lat="43.75395" lon="5.90888">
        <ele>307.4</ele>
        <time>2022-02-21T01:47:11Z</time>
      </trkpt>
      <trkpt lat="43.75409" lon="5.90851">
        <ele>307.7</ele>
        <time>2022-02-21T01:47:30Z</time>
      </trkpt>
      <trkpt lat="43.7542" lon="5.90814">
        <ele>308.2</ele>
        <time>2022-02-21T01:47:36Z</time>
      </trkpt>
      <trkpt lat="43.7543" lon="5.90768">
        <ele>308.7</ele>
        <time>2022-02-21T01:47:48Z</time>
      </trkpt>
      <trkpt lat="43.75434" lon="5.90738">
        <ele>308.7</ele>
        <time>2022-02-21T01:48:00Z</time>
      </trkpt>
      <trkpt lat="43.75434" lon="5.90678">
        <ele>308</ele>
        <time>2022-02-21T01:48:20Z</time>
      </trkpt>
      <trkpt lat="43.75434" lon="5.90643">
        <ele>307.8</ele>
        <time>2022-02-21T01:48:36Z</time>
      </trkpt>
      <trkpt lat="43.75439" lon="5.90584">
        <ele>308.1</ele>
        <time>2022-02-21T01:48:39Z</time>
      </trkpt>
      <trkpt lat="43.75445" lon="5.90558">
        <ele>309.2</ele>
        <time>2022-02-21T01:48:47Z</time>
      </trkpt>
      <trkpt lat="43.75451" lon="5.90517">
        <ele>310.7</ele>
        <time>2022-02-21T01:48:55Z</time>
      </trkpt>
      <trkpt lat="43.75448" lon="5.90464">
        <ele>311.3</ele>
        <time>2022-02-21T01:49:04Z</time>
      </trkpt>
      <trkpt lat="43.75441" lon="5.90417">
        <ele>311.2</ele>
        <time>2022-02-21T01:49:19Z</time>
      </trkpt>
      <trkpt lat="43.7544" lon="5.90371">
        <ele>310.7</ele>
        <time>2022-02-21T01:49:23Z</time>
      </trkpt>
      <trkpt lat="43.75436" lon="5.90322">
        <ele>310.5</ele>
        <time>2022-02-21T01:49:36Z</time>
      </trkpt>
      <trkpt lat="43.75431" lon="5.90263">
        <ele>312.3</ele>
        <time>2022-02-21T01:49:39Z</time>
      </trkpt>
      <trkpt lat="43.75425" lon="5.90235">
        <ele>312.7</ele>
        <time>2022-02-21T01:49:43Z</time>
      </trkpt>
      <trkpt lat="43.75406" lon="5.9018">
        <ele>313.8</ele>
        <time>2022-02-21T01:49:57Z</time>
      </trkpt>
      <trkpt lat="43.754" lon="5.90139">
        <ele>315.2</ele>
        <time>2022-02-21T01:50:09Z</time>
      </trkpt>
      <trkpt lat="43.75396" lon="5.90078">
        <ele>317</ele>
        <time>2022-02-21T01:50:28Z</time>
      </trkpt>
      <trkpt lat="43.75391" lon="5.90052">
        <ele>317</ele>
        <time>2022-02-21T01:50:42Z</time>
      </trkpt>
      <trkpt lat="43.75375" lon="5.90002">
        <ele>315.4</ele>
        <time>2022-02-21T01:50:50Z</time>
      </trkpt>
      <trkpt lat="43.75371" lon="5.89991">
        <ele>315.1</ele>
        <time>2022-02-21T01:51:04Z</time>
      </trkpt>
      <trkpt lat="43.75365" lon="5.8995">
        <ele>315.3</ele>
        <time>2022-02-21T01:51:17Z</time>
      </trkpt>
      <trkpt lat="43.75362" lon="5.89904">
        <ele>315.5</ele>
        <time>2022-02-21T01:51:33Z</time>
      </trkpt>
      <trkpt lat="43.75359" lon="5.8985">
        <ele>314.4</ele>
        <time>2022-02-21T01:51:37Z</time>
      </trkpt>
      <trkpt lat="43.75361" lon="5.89774">
        <ele>313.2</ele>
        <time>2022-02-21T01:51:45Z</time>
      </trkpt>
      <trkpt lat="43.75367" lon="5.89698">
        <ele>312.5</ele>
        <time>2022-02-21T01:51:59Z</time>
      </trkpt>
      <trkpt lat="43.75373" lon="5.89611">
        <ele>312.8</ele>
        <time>2022-02-21T01:52:18Z</time>
      </trkpt>
      <trkpt lat="43.75377" lon="5.89549">
        <ele>311.8</ele>
        <time>2022-02-21T01:52:23Z</time>
      </trkpt>
      <trkpt lat="43.75382" lon="5.89496">
        <ele>310.4</ele>
        <time>2022-02-21T01:52:33Z</time>
      </trkpt>
      <trkpt lat="43.75388" lon="5.89447">
        <ele>309.1</ele>
        <time>2022-02-21T01:52:50Z</time>
      </trkpt>
      <trkpt lat="43.7539" lon="5.89397">
        <ele>308.2</ele>
        <time>2022-02-21T01:52:57Z</time>
      </trkpt>
      <trkpt lat="43.75396" lon="5.89338">
        <ele>309.2</ele>
        <time>2022-02-21T01:53:10Z</time>
      </trkpt>
      <trkpt lat="43.75394" lon="5.89257">
        <ele>311.1</ele>
        <time>2022-02-21T01:53:17Z</time>
      </trkpt>
      <trkpt lat="43.75395" lon="5.89229">
        <ele>311.5</ele>
        <time>2022-02-21T01:53:37Z</time>
      </trkpt>
      <trkpt lat="43.75418" lon="5.89212">
        <ele>314</ele>
        <time>2022-02-21T01:53:57Z</time>
      </trkpt>
      <trkpt lat="43.7544" lon="5.89187">
        <ele>312.9</ele>
        <time>2022-02-21T01:54:11Z</time>
      </trkpt>
      <trkpt lat="43.7547" lon="5.89169">
        <ele>311.4</ele>
        <time>2022-02-21T01:54:13Z</time>
      </trkpt>
      <trkpt lat="43.75531" lon="5.89145">
        <ele>311.3</ele>
        <time>2022-02-21T01:54:26Z</time>
      </trkpt>
      <trkpt lat="43.75549" lon="5.8914">
        <ele>311.7</ele>
        <time>2022-02-21T01:54:29Z</time>
      </trkpt>
      <trkpt lat="43.75568" lon="5.89133">
        <ele>312.1</ele>
        <time>2022-02-21T01:54:35Z</time>
      </trkpt>
      <trkpt lat="43.75586" lon="5.8912">
        <ele>312.9</ele>
        <time>2022-02-21T01:54:38Z</time>
      </trkpt>
      <trkpt lat="43.75617" lon="5.89088">
        <ele>316.7</ele>
        <time>2022-02-21T01:54:45Z</time>
      </trkpt>
      <trkpt lat="43.75636" lon="5.89063">
        <ele>319.6</ele>
        <time>2022-02-21T01:54:56Z</time>
      </trkpt>
      <trkpt lat="43.75668" lon="5.89013">
        <ele>322.8</ele>
        <time>2022-02-21T01:55:00Z</time>
      </trkpt>
      <trkpt lat="43.75677" lon="5.88986">
        <ele>324.1</ele>
        <time>2022-02-21T01:55:06Z</time>
      </trkpt>
      <trkpt lat="43.75706" lon="5.88946">
        <ele>326.9</ele>
        <time>2022-02-21T01:55:25Z</time>
      </trkpt>
      <trkpt lat="43.75722" lon="5.8892">
        <ele>328.2</ele>
        <time>2022-02-21T01:55:43Z</time>
      </trkpt>
      <trkpt lat="43.75734" lon="5.88887">
        <ele>329.9</ele>
        <time>2022-02-21T01:55:51Z</time>
      </trkpt>
      <trkpt lat="43.75744" lon="5.88845">
        <ele>331.6</ele>
        <time>2022-02-21T01:55:55Z</time>
      </trkpt>
      <trkpt lat="43.75768" lon="5.88808">
        <ele>334</ele>
        <time>2022-02-21T01:56:12Z</time>
      </trkpt>
      <trkpt lat="43.75788" lon="5.88786">
        <ele>336.2</ele>
        <time>2022-02-21T01:56:21Z</time>
      </trkpt>
      <trkpt lat="43.758" lon="5.88784">
        <ele>336.9</ele>
        <time>2022-02-21T01:56:23Z</time>
      </trkpt>
      <trkpt lat="43.75809" lon="5.88791">
        <ele>336.9</ele>
        <time>2022-02-21T01:56:37Z</time>
      </trkpt>
      <trkpt lat="43.75807" lon="5.88804">
        <ele>336</ele>
        <time>2022-02-21T01:56:55Z</time>
      </trkpt>
      <trkpt lat="43.75807" lon="5.88808">
        <ele>335.7</ele>
        <time>2022-02-21T01:57:13Z</time>
      </trkpt>
      <trkpt lat="43.75818" lon="5.88802">
        <ele>336.6</ele>
        <time>2022-02-21T01:57:24Z</time>
      </trkpt>
      <trkpt lat="43.75841" lon="5.8881">
        <ele>337.4</ele>
        <time>2022-02-21T01:57:44Z</time>
      </trkpt>
      <trkpt lat="43.75859" lon="5.88811">
        <ele>339.2</ele>
        <time>2022-02-21T01:57:48Z</time>
      </trkpt>
      <trkpt lat="43.75885" lon="5.88807">
        <ele>342.2</ele>
        <time>2022-02-21T01:58:03Z</time>
      </trkpt>
      <trkpt lat="43.75904" lon="5.88806">
        <ele>344</ele>
        <time>2022-02-21T01:58:11Z</time>
      </trkpt>
      <trkpt lat="43.75926" lon="5.88804">
        <ele>345.9</ele>
        <time>2022-02-21T01:58:26Z</time>
      </trkpt>
      <trkpt lat="43.75959" lon="5.88789">
        <ele>348.6</ele>
        <time>2022-02-21T01:58:37Z</time>
      </trkpt>
      <trkpt lat="43.75972" lon="5.88772">
        <ele>350.8</ele>
        <time>2022-02-21T01:58:56Z</time>
      </trkpt>
      <trkpt lat="43.75985" lon="5.88754">
        <ele>353.4</ele>
        <time>2022-02-21T01:59:11Z</time>
      </trkpt>
      <trkpt lat="43.75996" lon="5.88733">
        <ele>355.5</ele>
        <time>2022-02-21T01:59:16Z</time>
      </trkpt>
      <trkpt lat="43.76012" lon="5.88704">
        <ele>357.5</ele>
        <time>2022-02-21T01:59:30Z</time>
      </trkpt>
      <trkpt lat="43.76016" lon="5.88679">
        <ele>359.4</ele>
        <time>2022-02-21T01:59:36Z</time>
      </trkpt>
      <trkpt lat="43.76029" lon="5.88654">
        <ele>359.7</ele>
        <time>2022-02-21T01:59:38Z</time>
      </trkpt>
      <trkpt lat="43.7605" lon="5.8861">
        <ele>360</ele>
        <time>2022-02-21T01:59:41Z</time>
      </trkpt>
      <trkpt lat="43.76056" lon="5.88577">
        <ele>361.4</ele>
        <time>2022-02-21T01:59:54Z</time>
      </trkpt>
      <trkpt lat="43.76058" lon="5.88559">
        <ele>362.5</ele>
        <time>2022-02-21T02:00:07Z</time>
      </trkpt>
      <trkpt lat="43.76061" lon="5.88557">
        <ele>362.5</ele>
        <time>2022-02-21T02:00:15Z</time>
      </trkpt>
      <trkpt lat="43.76061" lon="5.8855">
        <ele>362.9</ele>
        <time>2022-02-21T02:00:28Z</time>
      </trkpt>
      <trkpt lat="43.76061" lon="5.88549">
        <ele>362.9</ele>
        <time>2022-02-21T02:00:37Z</time>
      </trkpt>
      <trkpt lat="43.76054" lon="5.88535">
        <ele>364.1</ele>
        <time>2022-02-21T02:00:39Z</time>
      </trkpt>
      <trkpt lat="43.7605" lon="5.88517">
        <ele>365.6</ele>
        <time>2022-02-21T02:00:55Z</time>
      </trkpt>
      <trkpt lat="43.76042" lon="5.88488">
        <ele>368</ele>
        <time>2022-02-21T02:01:03Z</time>
      </trkpt>
      <trkpt lat="43.76043" lon="5.88478">
        <ele>368.8</ele>
        <time>2022-02-21T02:01:18Z</time>
      </trkpt>
      <trkpt lat="43.76052" lon="5.88464">
        <ele>369.5</ele>
        <time>2022-02-21T02:01:32Z</time>
      </trkpt>
      <trkpt lat="43.76054" lon="5.88462">
        <ele>369.6</ele>
        <time>2022-02-21T02:01:39Z</time>
      </trkpt>
      <trkpt lat="43.76068" lon="5.88439">
        <ele>370.4</ele>
        <time>2022-02-21T02:01:43Z</time>
      </trkpt>
      <trkpt lat="43.76088" lon="5.88403">
        <ele>372.4</ele>
        <time>2022-02-21T02:01:56Z</time>
      </trkpt>
      <trkpt lat="43.76103" lon="5.88381">
        <ele>374.1</ele>
        <time>2022-02-21T02:02:06Z</time>
      </trkpt>
      <trkpt lat="43.76102" lon="5.88366">
        <ele>376.2</ele>
        <time>2022-02-21T02:02:13Z</time>
      </trkpt>
      <trkpt lat="43.76107" lon="5.8836">
        <ele>376.8</ele>
        <time>2022-02-21T02:02:33Z</time>
      </trkpt>
      <trkpt lat="43.76155" lon="5.88338">
        <ele>377</ele>
        <time>2022-02-21T02:02:46Z</time>
      </trkpt>
      <trkpt lat="43.76166" lon="5.88328">
        <ele>378.1</ele>
        <time>2022-02-21T02:02:51Z</time>
      </trkpt>
      <trkpt lat="43.76167" lon="5.88313">
        <ele>380.2</ele>
        <time>2022-02-21T02:03:02Z</time>
      </trkpt>
      <trkpt lat="43.76173" lon="5.88292">
        <ele>383.1</ele>
        <time>2022-02-21T02:03:09Z</time>
      </trkpt>
      <trkpt lat="43.76184" lon="5.88281">
        <ele>384.2</ele>
        <time>2022-02-21T02:03:21Z</time>
      </trkpt>
      <trkpt lat="43.76211" lon="5.88256">
        <ele>388.1</ele>
        <time>2022-02-21T02:03:34Z</time>
      </trkpt>
      <trkpt lat="43.7623" lon="5.88233">
        <ele>391.9</ele>
        <time>2022-02-21T02:03:53Z</time>
      </trkpt>
      <trkpt lat="43.76256" lon="5.88218">
        <ele>395.2</ele>
        <time>2022-02-21T02:04:02Z</time>
      </trkpt>
      <trkpt lat="43.76285" lon="5.88203">
        <ele>398.7</ele>
        <time>2022-02-21T02:04:16Z</time>
      </trkpt>
      <trkpt lat="43.76292" lon="5.88199">
        <ele>399.8</ele>
        <time>2022-02-21T02:04:29Z</time>
      </trkpt>
      <trkpt lat="43.76294" lon="5.88199">
        <ele>399.9</ele>
        <time>2022-02-21T02:04:44Z</time>
      </trkpt>
      <trkpt lat="43.76306" lon="5.88188">
        <ele>403.4</ele>
        <time>2022-02-21T02:05:03Z</time>
      </trkpt>
      <trkpt lat="43.76328" lon="5.88167">
        <ele>410.6</ele>
        <time>2022-02-21T02:05:14Z</time>
      </trkpt>
      <trkpt lat="43.76346" lon="5.88158">
        <ele>413.5</ele>
        <time>2022-02-21T02:05:32Z</time>
      </trkpt>
      <trkpt lat="43.76364" lon="5.88149">
        <ele>416.3</ele>
        <time>2022-02-21T02:05:46Z</time>
      </trkpt>
      <trkpt lat="43.76386" lon="5.88139">
        <ele>419.4</ele>
        <time>2022-02-21T02:05:53Z</time>
      </trkpt>
      <trkpt lat="43.76404" lon="5.88131">
        <ele>422.2</ele>
        <time>2022-02-21T02:06:11Z</time>
      </trkpt>
      <trkpt lat="43.76413" lon="5.88127">
        <ele>423.5</ele>
        <time>2022-02-21T02:06:21Z</time>
      </trkpt>
      <trkpt lat="43.76415" lon="5.88124">
        <ele>424.2</ele>
        <time>2022-02-21T02:06:36Z</time>
      </trkpt>
      <trkpt lat="43.76423" lon="5.88122">
        <ele>423.8</ele>
        <time>2022-02-21T02:06:54Z</time>
      </trkpt>
      <trkpt lat="43.76438" lon="5.88108">
        <ele>424.4</ele>
        <time>2022-02-21T02:07:08Z</time>
      </trkpt>
      <trkpt lat="43.7647" lon="5.88074">
        <ele>424</ele>
        <time>2022-02-21T02:07:16Z</time>
      </trkpt>
      <trkpt lat="43.76496" lon="5.8806">
        <ele>419.1</ele>
        <time>2022-02-21T02:07:24Z</time>
      </trkpt>
      <trkpt lat="43.76503" lon="5.88051">
        <ele>417.7</ele>
        <time>2022-02-21T02:07:35Z</time>
      </trkpt>
      <trkpt lat="43.76505" lon="5.88038">
        <ele>417.1</ele>
        <time>2022-02-21T02:07:48Z</time>
      </trkpt>
      <trkpt lat="43.76498" lon="5.87991">
        <ele>417.7</ele>
        <time>2022-02-21T02:07:53Z</time>
      </trkpt>
      <trkpt lat="43.76489" lon="5.87947">
        <ele>421.8</ele>
        <time>2022-02-21T02:08:02Z</time>
      </trkpt>
      <trkpt lat="43.76482" lon="5.87923">
        <ele>424.8</ele>
        <time>2022-02-21T02:08:20Z</time>
      </trkpt>
      <trkpt lat="43.76481" lon="5.87895">
        <ele>427.2</ele>
        <time>2022-02-21T02:08:28Z</time>
      </trkpt>
      <trkpt lat="43.76485" lon="5.87849">
        <ele>429.7</ele>
        <time>2022-02-21T02:08:33Z</time>
      </trkpt>
      <trkpt lat="43.76488" lon="5.87802">
        <ele>435.9</ele>
        <time>2022-02-21T02:08:51Z</time>
      </trkpt>
      <trkpt lat="43.7649" lon="5.87784">
        <ele>438.9</ele>
        <time>2022-02-21T02:09:06Z</time>
      </trkpt>
      <trkpt lat="43.76504" lon="5.87755">
        <ele>443.4</ele>
        <time>2022-02-21T02:09:11Z</time>
      </trkpt>
      <trkpt lat="43.76517" lon="5.87729">
        <ele>444.8</ele>
        <time>2022-02-21T02:09:15Z</time>
      </trkpt>
      <trkpt lat="43.76532" lon="5.87696">
        <ele>446.8</ele>
        <time>2022-02-21T02:09:28Z</time>
      </trkpt>
      <trkpt lat="43.76543" lon="5.87672">
        <ele>448.1</ele>
        <time>2022-02-21T02:09:34Z</time>
      </trkpt>
      <trkpt lat="43.76555" lon="5.87653">
        <ele>448.5</ele>
        <time>2022-02-21T02:09:37Z</time>
      </trkpt>
      <trkpt lat="43.76581" lon="5.87627">
        <ele>448.6</ele>
        <time>2022-02-21T02:09:46Z</time>
      </trkpt>
      <trkpt lat="43.76605" lon="5.87598">
        <ele>451.9</ele>
        <time>2022-02-21T02:10:00Z</time>
      </trkpt>
      <trkpt lat="43.7663" lon="5.87563">
        <ele>453.7</ele>
        <time>2022-02-21T02:10:14Z</time>
      </trkpt>
      <trkpt lat="43.76644" lon="5.87546">
        <ele>453.9</ele>
        <time>2022-02-21T02:10:24Z</time>
      </trkpt>
      <trkpt lat="43.7666" lon="5.87517">
        <ele>454.6</ele>
        <time>2022-02-21T02:10:44Z</time>
      </trkpt>
      <trkpt lat="43.76665" lon="5.87492">
        <ele>457.5</ele>
        <time>2022-02-21T02:10:57Z</time>
      </trkpt>
      <trkpt lat="43.76665" lon="5.87459">
        <ele>465.2</ele>
        <time>2022-02-21T02:11:02Z</time>
      </trkpt>
      <trkpt lat="43.76672" lon="5.87432">
        <ele>471.8</ele>
        <time>2022-02-21T02:11:17Z</time>
      </trkpt>
      <trkpt lat="43.76687" lon="5.87405">
        <ele>476.7</ele>
        <time>2022-02-21T02:11:23Z</time>
      </trkpt>
      <trkpt lat="43.76705" lon="5.87389">
        <ele>478.1</ele>
        <time>2022-02-21T02:11:43Z</time>
      </trkpt>
      <trkpt lat="43.76726" lon="5.87383">
        <ele>478.6</ele>
        <time>2022-02-21T02:12:02Z</time>
      </trkpt>
      <trkpt lat="43.76745" lon="5.87386">
        <ele>478.7</ele>
        <time>2022-02-21T02:12:19Z</time>
      </trkpt>
      <trkpt lat="43.76748" lon="5.87387">
        <ele>478.7</ele>
        <time>2022-02-21T02:12:26Z</time>
      </trkpt>
      <trkpt lat="43.76775" lon="5.87376">
        <ele>479.8</ele>
        <time>2022-02-21T02:12:42Z</time>
      </trkpt>
      <trkpt lat="43.76807" lon="5.87372">
        <ele>480.5</ele>
        <time>2022-02-21T02:12:53Z</time>
      </trkpt>
      <trkpt lat="43.76829" lon="5.87379">
        <ele>481.8</ele>
        <time>2022-02-21T02:13:05Z</time>
      </trkpt>
      <trkpt lat="43.76863" lon="5.87399">
        <ele>481.2</ele>
        <time>2022-02-21T02:13:22Z</time>
      </trkpt>
      <trkpt lat="43.76882" lon="5.87413">
        <ele>480.9</ele>
        <time>2022-02-21T02:13:30Z</time>
      </trkpt>
      <trkpt lat="43.76896" lon="5.87431">
        <ele>480.1</ele>
        <time>2022-02-21T02:13:46Z</time>
      </trkpt>
      <trkpt lat="43.7692" lon="5.87459">
        <ele>479.5</ele>
        <time>2022-02-21T02:14:00Z</time>
      </trkpt>
      <trkpt lat="43.76942" lon="5.87497">
        <ele>480.9</ele>
        <time>2022-02-21T02:14:17Z</time>
      </trkpt>
      <trkpt lat="43.76962" lon="5.87529">
        <ele>483.4</ele>
        <time>2022-02-21T02:14:33Z</time>
      </trkpt>
      <trkpt lat="43.76987" lon="5.87569">
        <ele>487.4</ele>
        <time>2022-02-21T02:14:35Z</time>
      </trkpt>
      <trkpt lat="43.77008" lon="5.87578">
        <ele>488.4</ele>
        <time>2022-02-21T02:14:53Z</time>
      </trkpt>
      <trkpt lat="43.77036" lon="5.87576">
        <ele>488</ele>
        <time>2022-02-21T02:15:04Z</time>
      </trkpt>
      <trkpt lat="43.77057" lon="5.87572">
        <ele>487.7</ele>
        <time>2022-02-21T02:15:23Z</time>
      </trkpt>
      <trkpt lat="43.7708" lon="5.87575">
        <ele>487.7</ele>
        <time>2022-02-21T02:15:37Z</time>
      </trkpt>
      <trkpt lat="43.77123" lon="5.87594">
        <ele>489.9</ele>
        <time>2022-02-21T02:15:56Z</time>
      </trkpt>
      <trkpt lat="43.77151" lon="5.87607">
        <ele>490.5</ele>
        <time>2022-02-21T02:16:15Z</time>
      </trkpt>
      <trkpt lat="43.77173" lon="5.87609">
        <ele>490.9</ele>
        <time>2022-02-21T02:16:24Z</time>
      </trkpt>
      <trkpt lat="43.7722" lon="5.87611">
        <ele>491.1</ele>
        <time>2022-02-21T02:16:37Z</time>
      </trkpt>
      <trkpt lat="43.77257" lon="5.87616">
        <ele>490.7</ele>
        <time>2022-02-21T02:16:56Z</time>
      </trkpt>
      <trkpt lat="43.77301" lon="5.87611">
        <ele>488.7</ele>
        <time>2022-02-21T02:17:02Z</time>
      </trkpt>
      <trkpt lat="43.77332" lon="5.87586">
        <ele>488.9</ele>
        <time>2022-02-21T02:17:19Z</time>
      </trkpt>
      <trkpt lat="43.77342" lon="5.87584">
        <ele>489.4</ele>
        <time>2022-02-21T02:17:31Z</time>
      </trkpt>
      <trkpt lat="43.77355" lon="5.87577">
        <ele>490.2</ele>
        <time>2022-02-21T02:17:45Z</time>
      </trkpt>
      <trkpt lat="43.77404" lon="5.87523">
        <ele>492.7</ele>
        <time>2022-02-21T02:17:49Z</time>
      </trkpt>
      <trkpt lat="43.77461" lon="5.87479">
        <ele>494.1</ele>
        <time>2022-02-21T02:17:52Z</time>
      </trkpt>
      <trkpt lat="43.77507" lon="5.87443">
        <ele>495.4</ele>
        <time>2022-02-21T02:17:59Z</time>
      </trkpt>
      <trkpt lat="43.7757" lon="5.87398">
        <ele>496</ele>
        <time>2022-02-21T02:18:15Z</time>
      </trkpt>
      <trkpt lat="43.77593" lon="5.87388">
        <ele>496.1</ele>
        <time>2022-02-21T02:18:33Z</time>
      </trkpt>
      <trkpt lat="43.77646" lon="5.87372">
        <ele>497.2</ele>
        <time>2022-02-21T02:18:44Z</time>
      </trkpt>
      <trkpt lat="43.77706" lon="5.87354">
        <ele>496</ele>
        <time>2022-02-21T02:19:01Z</time>
      </trkpt>
      <trkpt lat="43.77752" lon="5.87338">
        <ele>493.8</ele>
        <time>2022-02-21T02:19:12Z</time>
      </trkpt>
      <trkpt lat="43.77786" lon="5.87303">
        <ele>492.1</ele>
        <time>2022-02-21T02:19:24Z</time>
      </trkpt>
      <trkpt lat="43.77815" lon="5.87254">
        <ele>491.2</ele>
        <time>2022-02-21T02:19:38Z</time>
      </trkpt>
      <trkpt lat="43.77864" lon="5.87167">
        <ele>493.9</ele>
        <time>2022-02-21T02:19:46Z</time>
      </trkpt>
      <trkpt lat="43.77908" lon="5.87105">
        <ele>495.7</ele>
        <time>2022-02-21T02:20:03Z</time>
      </trkpt>
      <trkpt lat="43.77951" lon="5.87044">
        <ele>494.3</ele>
        <time>2022-02-21T02:20:15Z</time>
      </trkpt>
      <trkpt lat="43.77968" lon="5.87011">
        <ele>493.7</ele>
        <time>2022-02-21T02:20:34Z</time>
      </trkpt>
      <trkpt lat="43.77985" lon="5.86979">
        <ele>493</ele>
        <time>2022-02-21T02:20:46Z</time>
      </trkpt>
      <trkpt lat="43.77997" lon="5.86946">
        <ele>492.3</ele>
        <time>2022-02-21T02:21:03Z</time>
      </trkpt>
      <trkpt lat="43.78016" lon="5.86917">
        <ele>491.2</ele>
        <time>2022-02-21T02:21:15Z</time>
      </trkpt>
      <trkpt lat="43.78052" lon="5.86865">
        <ele>487.4</ele>
        <time>2022-02-21T02:21:23Z</time>
      </trkpt>
      <trkpt lat="43.78073" lon="5.86838">
        <ele>485.5</ele>
        <time>2022-02-21T02:21:36Z</time>
      </trkpt>
      <trkpt lat="43.78094" lon="5.868">
        <ele>483.7</ele>
        <time>2022-02-21T02:21:41Z</time>
      </trkpt>
      <trkpt lat="43.78112" lon="5.86767">
        <ele>483.7</ele>
        <time>2022-02-21T02:21:58Z</time>
      </trkpt>
      <trkpt lat="43.78126" lon="5.8674">
        <ele>484</ele>
        <time>2022-02-21T02:22:12Z</time>
      </trkpt>
      <trkpt lat="43.78151" lon="5.86708">
        <ele>483.8</ele>
        <time>2022-02-21T02:22:24Z</time>
      </trkpt>
      <trkpt lat="43.78175" lon="5.86669">
        <ele>482.7</ele>
        <time>2022-02-21T02:22:42Z</time>
      </trkpt>
      <trkpt lat="43.78188" lon="5.86634">
        <ele>480.2</ele>
        <time>2022-02-21T02:22:58Z</time>
      </trkpt>
      <trkpt lat="43.78197" lon="5.86589">
        <ele>477</ele>
        <time>2022-02-21T02:23:14Z</time>
      </trkpt>
      <trkpt lat="43.78212" lon="5.86544">
        <ele>474.1</ele>
        <time>2022-02-21T02:23:19Z</time>
      </trkpt>
      <trkpt lat="43.78221" lon="5.86508">
        <ele>471.6</ele>
        <time>2022-02-21T02:23:35Z</time>
      </trkpt>
      <trkpt lat="43.78228" lon="5.86484">
        <ele>469.6</ele>
        <time>2022-02-21T02:23:38Z</time>
      </trkpt>
      <trkpt lat="43.78235" lon="5.8646">
        <ele>466.9</ele>
        <time>2022-02-21T02:23:49Z</time>
      </trkpt>
      <trkpt lat="43.78259" lon="5.86419">
        <ele>461.6</ele>
        <time>2022-02-21T02:23:59Z</time>
      </trkpt>
      <trkpt lat="43.78276" lon="5.86404">
        <ele>460.3</ele>
        <time>2022-02-21T02:24:02Z</time>
      </trkpt>
      <trkpt lat="43.78301" lon="5.86379">
        <ele>458.3</ele>
        <time>2022-02-21T02:24:09Z</time>
      </trkpt>
      <trkpt lat="43.78357" lon="5.86319">
        <ele>450.6</ele>
        <time>2022-02-21T02:24:19Z</time>
      </trkpt>
      <trkpt lat="43.78387" lon="5.86285">
        <ele>444.3</ele>
        <time>2022-02-21T02:24:21Z</time>
      </trkpt>
      <trkpt lat="43.78411" lon="5.86263">
        <ele>439.9</ele>
        <time>2022-02-21T02:24:33Z</time>
      </trkpt>
      <trkpt lat="43.78433" lon="5.86242">
        <ele>438</ele>
        <time>2022-02-21T02:24:45Z</time>
      </trkpt>
      <trkpt lat="43.78456" lon="5.86224">
        <ele>437.3</ele>
        <time>2022-02-21T02:24:59Z</time>
      </trkpt>
      <trkpt lat="43.7849" lon="5.86201">
        <ele>434.2</ele>
        <time>2022-02-21T02:25:18Z</time>
      </trkpt>
      <trkpt lat="43.78518" lon="5.86176">
        <ele>430.3</ele>
        <time>2022-02-21T02:25:21Z</time>
      </trkpt>
      <trkpt lat="43.78547" lon="5.86134">
        <ele>429.1</ele>
        <time>2022-02-21T02:25:35Z</time>
      </trkpt>
      <trkpt lat="43.78575" lon="5.86092">
        <ele>428.6</ele>
        <time>2022-02-21T02:25:52Z</time>
      </trkpt>
      <trkpt lat="43.78589" lon="5.86061">
        <ele>428.5</ele>
        <time>2022-02-21T02:26:00Z</time>
      </trkpt>
      <trkpt lat="43.78593" lon="5.8603">
        <ele>429.7</ele>
        <time>2022-02-21T02:26:17Z</time>
      </trkpt>
      <trkpt lat="43.78595" lon="5.86017">
        <ele>430</ele>
        <time>2022-02-21T02:26:23Z</time>
      </trkpt>
      <trkpt lat="43.78616" lon="5.85972">
        <ele>428.1</ele>
        <time>2022-02-21T02:26:30Z</time>
      </trkpt>
      <trkpt lat="43.78638" lon="5.85934">
        <ele>425.9</ele>
        <time>2022-02-21T02:26:45Z</time>
      </trkpt>
      <trkpt lat="43.78655" lon="5.85894">
        <ele>425</ele>
        <time>2022-02-21T02:26:51Z</time>
      </trkpt>
      <trkpt lat="43.78674" lon="5.85833">
        <ele>424.1</ele>
        <time>2022-02-21T02:27:08Z</time>
      </trkpt>
      <trkpt lat="43.78692" lon="5.85798">
        <ele>421.1</ele>
        <time>2022-02-21T02:27:12Z</time>
      </trkpt>
      <trkpt lat="43.78722" lon="5.8576">
        <ele>416.1</ele>
        <time>2022-02-21T02:27:20Z</time>
      </trkpt>
      <trkpt lat="43.78769" lon="5.85704">
        <ele>411.8</ele>
        <time>2022-02-21T02:27:23Z</time>
      </trkpt>
      <trkpt lat="43.78802" lon="5.85652">
        <ele>406.4</ele>
        <time>2022-02-21T02:27:26Z</time>
      </trkpt>
      <trkpt lat="43.78816" lon="5.85607">
        <ele>403.4</ele>
        <time>2022-02-21T02:27:39Z</time>
      </trkpt>
      <trkpt lat="43.78828" lon="5.85555">
        <ele>400.5</ele>
        <time>2022-02-21T02:27:53Z</time>
      </trkpt>
      <trkpt lat="43.78839" lon="5.85516">
        <ele>398.3</ele>
        <time>2022-02-21T02:27:55Z</time>
      </trkpt>
      <trkpt lat="43.78864" lon="5.85474">
        <ele>393.1</ele>
        <time>2022-02-21T02:28:02Z</time>
      </trkpt>
      <trkpt lat="43.78906" lon="5.85414">
        <ele>384.5</ele>
        <time>2022-02-21T02:28:06Z</time>
      </trkpt>
      <trkpt lat="43.78936" lon="5.85384">
        <ele>381.6</ele>
        <time>2022-02-21T02:28:11Z</time>
      </trkpt>
      <trkpt lat="43.78957" lon="5.85371">
        <ele>380.6</ele>
        <time>2022-02-21T02:28:29Z</time>
      </trkpt>
      <trkpt lat="43.78976" lon="5.85348">
        <ele>379.3</ele>
        <time>2022-02-21T02:28:44Z</time>
      </trkpt>
      <trkpt lat="43.79012" lon="5.85279">
        <ele>375.3</ele>
        <time>2022-02-21T02:28:58Z</time>
      </trkpt>
      <trkpt lat="43.79025" lon="5.85248">
        <ele>373.6</ele>
        <time>2022-02-21T02:29:08Z</time>
      </trkpt>
      <trkpt lat="43.79058" lon="5.85183">
        <ele>368.5</ele>
        <time>2022-02-21T02:29:17Z</time>
      </trkpt>
      <trkpt lat="43.79085" lon="5.85129">
        <ele>363.8</ele>
        <time>2022-02-21T02:29:23Z</time>
      </trkpt>
      <trkpt lat="43.79126" lon="5.85052">
        <ele>356.4</ele>
        <time>2022-02-21T02:29:43Z</time>
      </trkpt>
      <trkpt lat="43.79145" lon="5.85008">
        <ele>353.2</ele>
        <time>2022-02-21T02:29:45Z</time>
      </trkpt>
      <trkpt lat="43.79166" lon="5.84944">
        <ele>347.3</ele>
        <time>2022-02-21T02:29:59Z</time>
      </trkpt>
      <trkpt lat="43.79176" lon="5.84903">
        <ele>347.3</ele>
        <time>2022-02-21T02:30:06Z</time>
      </trkpt>
      <trkpt lat="43.79186" lon="5.84874">
        <ele>348.9</ele>
        <time>2022-02-21T02:30:09Z</time>
      </trkpt>
      <trkpt lat="43.79189" lon="5.8487">
        <ele>349.5</ele>
        <time>2022-02-21T02:30:19Z</time>
      </trkpt>
      <trkpt lat="43.79189" lon="5.84871">
        <ele>349.3</ele>
        <time>2022-02-21T02:30:35Z</time>
      </trkpt>
      <trkpt lat="43.79198" lon="5.84876">
        <ele>351</ele>
        <time>2022-02-21T02:30:42Z</time>
      </trkpt>
      <trkpt lat="43.79218" lon="5.84907">
        <ele>354.1</ele>
        <time>2022-02-21T02:30:48Z</time>
      </trkpt>
      <trkpt lat="43.79229" lon="5.84922">
        <ele>355.8</ele>
        <time>2022-02-21T02:31:03Z</time>
      </trkpt>
      <trkpt lat="43.79242" lon="5.84925">
        <ele>357.9</ele>
        <time>2022-02-21T02:31:19Z</time>
      </trkpt>
      <trkpt lat="43.79245" lon="5.84922">
        <ele>358.3</ele>
        <time>2022-02-21T02:31:22Z</time>
      </trkpt>
      <trkpt lat="43.79251" lon="5.84888">
        <ele>359.9</ele>
        <time>2022-02-21T02:31:32Z</time>
      </trkpt>
      <trkpt lat="43.79252" lon="5.84856">
        <ele>360.7</ele>
        <time>2022-02-21T02:31:37Z</time>
      </trkpt>
      <trkpt lat="43.79266" lon="5.8479">
        <ele>363.2</ele>
        <time>2022-02-21T02:31:47Z</time>
      </trkpt>
      <trkpt lat="43.79267" lon="5.84764">
        <ele>363.4</ele>
        <time>2022-02-21T02:31:51Z</time>
      </trkpt>
      <trkpt lat="43.79267" lon="5.84744">
        <ele>363.5</ele>
        <time>2022-02-21T02:32:00Z</time>
      </trkpt>
      <trkpt lat="43.79276" lon="5.8471">
        <ele>365</ele>
        <time>2022-02-21T02:32:07Z</time>
      </trkpt>
      <trkpt lat="43.7929" lon="5.84673">
        <ele>366.8</ele>
        <time>2022-02-21T02:32:16Z</time>
      </trkpt>
      <trkpt lat="43.79301" lon="5.84647">
        <ele>368</ele>
        <time>2022-02-21T02:32:26Z</time>
      </trkpt>
      <trkpt lat="43.79311" lon="5.84623">
        <ele>368.8</ele>
        <time>2022-02-21T02:32:44Z</time>
      </trkpt>
      <trkpt lat="43.79326" lon="5.84585">
        <ele>369.5</ele>
        <time>2022-02-21T02:33:02Z</time>
      </trkpt>
      <trkpt lat="43.79338" lon="5.84572">
        <ele>369</ele>
        <time>2022-02-21T02:33:12Z</time>
      </trkpt>
      <trkpt lat="43.7934" lon="5.84559">
        <ele>368.1</ele>
        <time>2022-02-21T02:33:22Z</time>
      </trkpt>
      <trkpt lat="43.79332" lon="5.84529">
        <ele>366.7</ele>
        <time>2022-02-21T02:33:36Z</time>
      </trkpt>
      <trkpt lat="43.79331" lon="5.84511">
        <ele>365.6</ele>
        <time>2022-02-21T02:33:49Z</time>
      </trkpt>
      <trkpt lat="43.79341" lon="5.84498">
        <ele>364.4</ele>
        <time>2022-02-21T02:33:56Z</time>
      </trkpt>
      <trkpt lat="43.79378" lon="5.84472">
        <ele>360.9</ele>
        <time>2022-02-21T02:34:09Z</time>
      </trkpt>
      <trkpt lat="43.7941" lon="5.84451">
        <ele>358.1</ele>
        <time>2022-02-21T02:34:20Z</time>
      </trkpt>
      <trkpt lat="43.79431" lon="5.84437">
        <ele>355.2</ele>
        <time>2022-02-21T02:34:35Z</time>
      </trkpt>
      <trkpt lat="43.79455" lon="5.84421">
        <ele>351.9</ele>
        <time>2022-02-21T02:34:39Z</time>
      </trkpt>
      <trkpt lat="43.79473" lon="5.84411">
        <ele>350</ele>
        <time>2022-02-21T02:34:41Z</time>
      </trkpt>
      <trkpt lat="43.79502" lon="5.84394">
        <ele>346.9</ele>
        <time>2022-02-21T02:34:51Z</time>
      </trkpt>
      <trkpt lat="43.79524" lon="5.84377">
        <ele>343.3</ele>
        <time>2022-02-21T02:35:05Z</time>
      </trkpt>
      <trkpt lat="43.79548" lon="5.84361">
        <ele>339.4</ele>
        <time>2022-02-21T02:35:21Z</time>
      </trkpt>
      <trkpt lat="43.79562" lon="5.84353">
        <ele>337.2</ele>
        <time>2022-02-21T02:35:32Z</time>
      </trkpt>
      <trkpt lat="43.79577" lon="5.84335">
        <ele>335</ele>
        <time>2022-02-21T02:35:47Z</time>
      </trkpt>
      <trkpt lat="43.79611" lon="5.84283">
        <ele>329.6</ele>
        <time>2022-02-21T02:36:04Z</time>
      </trkpt>
      <trkpt lat="43.79635" lon="5.84241">
        <ele>323.7</ele>
        <time>2022-02-21T02:36:21Z</time>
      </trkpt>
      <trkpt lat="43.79668" lon="5.84181">
        <ele>316.9</ele>
        <time>2022-02-21T02:36:28Z</time>
      </trkpt>
      <trkpt lat="43.7968" lon="5.84162">
        <ele>317.8</ele>
        <time>2022-02-21T02:36:45Z</time>
      </trkpt>
      <trkpt lat="43.79693" lon="5.84118">
        <ele>317.5</ele>
        <time>2022-02-21T02:36:54Z</time>
      </trkpt>
      <trkpt lat="43.79699" lon="5.84093">
        <ele>316.7</ele>
        <time>2022-02-21T02:37:10Z</time>
      </trkpt>
      <trkpt lat="43.79728" lon="5.84026">
        <ele>314.2</ele>
        <time>2022-02-21T02:37:12Z</time>
      </trkpt>
      <trkpt lat="43.79746" lon="5.83993">
        <ele>311.2</ele>
        <time>2022-02-21T02:37:25Z</time>
      </trkpt>
      <trkpt lat="43.79783" lon="5.83941">
        <ele>309</ele>
        <time>2022-02-21T02:37:44Z</time>
      </trkpt>
      <trkpt lat="43.79807" lon="5.83913">
        <ele>306.2</ele>
        <time>2022-02-21T02:37:49Z</time>
      </trkpt>
      <trkpt lat="43.79829" lon="5.83899">
        <ele>304.6</ele>
        <time>2022-02-21T02:37:56Z</time>
      </trkpt>
      <trkpt lat="43.79838" lon="5.83891">
        <ele>303.4</ele>
        <time>2022-02-21T02:38:00Z</time>
      </trkpt>
      <trkpt lat="43.7985" lon="5.83861">
        <ele>299.2</ele>
        <time>2022-02-21T02:38:18Z</time>
      </trkpt>
      <trkpt lat="43.79869" lon="5.8381">
        <ele>295.4</ele>
        <time>2022-02-21T02:38:22Z</time>
      </trkpt>
      <trkpt lat="43.79898" lon="5.83731">
        <ele>294.3</ele>
        <time>2022-02-21T02:38:33Z</time>
      </trkpt>
      <trkpt lat="43.79929" lon="5.83648">
        <ele>293.8</ele>
        <time>2022-02-21T02:38:35Z</time>
      </trkpt>
      <trkpt lat="43.79963" lon="5.83558">
        <ele>293.1</ele>
        <time>2022-02-21T02:38:40Z</time>
      </trkpt>
      <trkpt lat="43.80009" lon="5.83432">
        <ele>293.8</ele>
        <time>2022-02-21T02:38:48Z</time>
      </trkpt>
      <trkpt lat="43.80023" lon="5.83387">
        <ele>294.4</ele>
        <time>2022-02-21T02:38:59Z</time>
      </trkpt>
      <trkpt lat="43.80042" lon="5.8335">
        <ele>294.5</ele>
        <time>2022-02-21T02:39:04Z</time>
      </trkpt>
      <trkpt lat="43.80053" lon="5.83319">
        <ele>294.2</ele>
        <time>2022-02-21T02:39:09Z</time>
      </trkpt>
      <trkpt lat="43.80081" lon="5.83258">
        <ele>293.1</ele>
        <time>2022-02-21T02:39:18Z</time>
      </trkpt>
      <trkpt lat="43.80126" lon="5.83155">
        <ele>291.5</ele>
        <time>2022-02-21T02:39:20Z</time>
      </trkpt>
      <trkpt lat="43.80179" lon="5.83039">
        <ele>292.1</ele>
        <time>2022-02-21T02:39:26Z</time>
      </trkpt>
      <trkpt lat="43.80221" lon="5.82945">
        <ele>292.1</ele>
        <time>2022-02-21T02:39:40Z</time>
      </trkpt>
      <trkpt lat="43.80264" lon="5.82849">
        <ele>291</ele>
        <time>2022-02-21T02:39:42Z</time>
      </trkpt>
      <trkpt lat="43.80303" lon="5.82763">
        <ele>292.5</ele>
        <time>2022-02-21T02:40:01Z</time>
      </trkpt>
      <trkpt lat="43.8035" lon="5.8266">
        <ele>292.3</ele>
        <time>2022-02-21T02:40:13Z</time>
      </trkpt>
      <trkpt lat="43.804" lon="5.82548">
        <ele>288.7</ele>
        <time>2022-02-21T02:40:32Z</time>
      </trkpt>
      <trkpt lat="43.80451" lon="5.82433">
        <ele>289</ele>
        <time>2022-02-21T02:40:39Z</time>
      </trkpt>
      <trkpt lat="43.80508" lon="5.82308">
        <ele>295</ele>
        <time>2022-02-21T02:40:55Z</time>
      </trkpt>
      <trkpt lat="43.80565" lon="5.82182">
        <ele>297.9</ele>
        <time>2022-02-21T02:41:10Z</time>
      </trkpt>
      <trkpt lat="43.80616" lon="5.8207">
        <ele>294.4</ele>
        <time>2022-02-21T02:41:13Z</time>
      </trkpt>
      <trkpt lat="43.80651" lon="5.81987">
        <ele>293.2</ele>
        <time>2022-02-21T02:41:31Z</time>
      </trkpt>
      <trkpt lat="43.8068" lon="5.81945">
        <ele>293</ele>
        <time>2022-02-21T02:41:36Z</time>
      </trkpt>
      <trkpt lat="43.8069" lon="5.81883">
        <ele>293.2</ele>
        <time>2022-02-21T02:41:46Z</time>
      </trkpt>
      <trkpt lat="43.80721" lon="5.81798">
        <ele>293.3</ele>
        <time>2022-02-21T02:42:03Z</time>
      </trkpt>
      <trkpt lat="43.80752" lon="5.81722">
        <ele>294.3</ele>
        <time>2022-02-21T02:42:15Z</time>
      </trkpt>
      <trkpt lat="43.80796" lon="5.81631">
        <ele>293.9</ele>
        <time>2022-02-21T02:42:21Z</time>
      </trkpt>
      <trkpt lat="43.80835" lon="5.81558">
        <ele>293.6</ele>
        <time>2022-02-21T02:42:31Z</time>
      </trkpt>
      <trkpt lat="43.80876" lon="5.81483">
        <ele>294.1</ele>
        <time>2022-02-21T02:42:34Z</time>
      </trkpt>
      <trkpt lat="43.80924" lon="5.81394">
        <ele>294.4</ele>
        <time>2022-02-21T02:42:49Z</time>
      </trkpt>
      <trkpt lat="43.80966" lon="5.81313">
        <ele>295.2</ele>
        <time>2022-02-21T02:42:58Z</time>
      </trkpt>
      <trkpt lat="43.80989" lon="5.81258">
        <ele>295.2</ele>
        <time>2022-02-21T02:43:04Z</time>
      </trkpt>
      <trkpt lat="43.81006" lon="5.81209">
        <ele>295</ele>
        <time>2022-02-21T02:43:21Z</time>
      </trkpt>
      <trkpt lat="43.81023" lon="5.81179">
        <ele>295</ele>
        <time>2022-02-21T02:43:34Z</time>
      </trkpt>
      <trkpt lat="43.81063" lon="5.81118">
        <ele>295.6</ele>
        <time>2022-02-21T02:43:38Z</time>
      </trkpt>
      <trkpt lat="43.81107" lon="5.81034">
        <ele>297</ele>
        <time>2022-02-21T02:43:55Z</time>
      </trkpt>
      <trkpt lat="43.81136" lon="5.8098">
        <ele>297.4</ele>
        <time>2022-02-21T02:44:12Z</time>
      </trkpt>
      <trkpt lat="43.81167" lon="5.80917">
        <ele>297</ele>
        <time>2022-02-21T02:44:25Z</time>
      </trkpt>
      <trkpt lat="43.812" lon="5.8085">
        <ele>298.3</ele>
        <time>2022-02-21T02:44:37Z</time>
      </trkpt>
      <trkpt lat="43.81214" lon="5.80825">
        <ele>298.6</ele>
        <time>2022-02-21T02:44:46Z</time>
      </trkpt>
      <trkpt lat="43.81242" lon="5.80754">
        <ele>299.9</ele>
        <time>2022-02-21T02:44:58Z</time>
      </trkpt>
      <trkpt lat="43.81271" lon="5.80676">
        <ele>298.8</ele>
        <time>2022-02-21T02:45:11Z</time>
      </trkpt>
      <trkpt lat="43.81302" lon="5.80591">
        <ele>300.2</ele>
        <time>2022-02-21T02:45:17Z</time>
      </trkpt>
      <trkpt lat="43.81335" lon="5.80495">
        <ele>302.1</ele>
        <time>2022-02-21T02:45:23Z</time>
      </trkpt>
      <trkpt lat="43.8136" lon="5.80427">
        <ele>303.5</ele>
        <time>2022-02-21T02:45:39Z</time>
      </trkpt>
      <trkpt lat="43.81389" lon="5.80359">
        <ele>304.2</ele>
        <time>2022-02-21T02:45:45Z</time>
      </trkpt>
      <trkpt lat="43.81395" lon="5.80389">
        <ele>303.8</ele>
        <time>2022-02-21T02:45:51Z</time>
      </trkpt>
      <trkpt lat="43.81416" lon="5.80419">
        <ele>303</ele>
        <time>2022-02-21T02:45:54Z</time>
      </trkpt>
      <trkpt lat="43.81448" lon="5.80457">
        <ele>302.9</ele>
        <time>2022-02-21T02:45:56Z</time>
      </trkpt>
      <trkpt lat="43.81484" lon="5.80496">
        <ele>302.9</ele>
        <time>2022-02-21T02:46:09Z</time>
      </trkpt>
      <trkpt lat="43.81521" lon="5.80531">
        <ele>301.9</ele>
        <time>2022-02-21T02:46:20Z</time>
      </trkpt>
      <trkpt lat="43.81544" lon="5.80549">
        <ele>301.3</ele>
        <time>2022-02-21T02:46:28Z</time>
      </trkpt>
      <trkpt lat="43.81609" lon="5.8061">
        <ele>301</ele>
        <time>2022-02-21T02:46:44Z</time>
      </trkpt>
      <trkpt lat="43.81657" lon="5.80565">
        <ele>302.5</ele>
        <time>2022-02-21T02:46:49Z</time>
      </trkpt>
      <trkpt lat="43.81666" lon="5.80535">
        <ele>303.7</ele>
        <time>2022-02-21T02:47:09Z</time>
      </trkpt>
      <trkpt lat="43.81689" lon="5.80516">
        <ele>304.2</ele>
        <time>2022-02-21T02:47:19Z</time>
      </trkpt>
      <trkpt lat="43.81716" lon="5.8031">
        <ele>305.9</ele>
        <time>2022-02-21T02:47:31Z</time>
      </trkpt>
      <trkpt lat="43.81889" lon="5.80132">
        <ele>313.6</ele>
        <time>2022-02-21T02:47:50Z</time>
      </trkpt>
      <trkpt lat="43.81901" lon="5.80091">
        <ele>316.2</ele>
        <time>2022-02-21T02:47:53Z</time>
      </trkpt>
      <trkpt lat="43.82056" lon="5.80089">
        <ele>314.5</ele>
        <time>2022-02-21T02:48:10Z</time>
      </trkpt>
      <trkpt lat="43.8236" lon="5.80299">
        <ele>311.3</ele>
        <time>2022-02-21T02:48:16Z</time>
      </trkpt>
      <trkpt lat="43.82229" lon="5.80589">
        <ele>306.8</ele>
        <time>2022-02-21T02:48:27Z</time>
      </trkpt>
      <trkpt lat="43.8212" lon="5.80482">
        <ele>308.6</ele>
        <time>2022-02-21T02:48:44Z</time>
      </trkpt>
      <trkpt lat="43.82057" lon="5.80587">
        <ele>304.7</ele>
        <time>2022-02-21T02:48:57Z</time>
      </trkpt>
    </trkseg>
  </trk>
</gpx>